[[{"header":{"parameterUnit":"m.s-1","parameterCategory":1,"la1":31.0,"la2":29.5877,"lo1":-88.7671,"lo2":-86.6584,"dy":0.0162,"dx":0.0185,"nx":115,"ny":88,"refTime":"2024-02-11T06:00:00:Z","depth":0,"parameterNumber":2,"parameterNumberName":"U-component_of_WINDS"},"data":[0.0,0.0,0.0,0.0,0.0,0.0,0.0,0.0,0.0,0.0,0.0,0.0,0.0,0.0,0.0,0.0,0.0,0.0,0.0,0.0,0.0,0.0,0.0,0.0,0.0,0.0,0.0,0.0,0.0,0.0,0.0,0.0,0.0,0.0,0.0,0.0,0.0,0.0,0.0,0.0,0.0,0.0,0.0,0.0,0.0,0.0,0.0,0.0,0.0,0.0,0.0,0.0,0.0,0.0,0.0,0.0,0.0,0.0,0.0,0.0,0.0,0.0,0.0,0.0,0.0,0.0,0.0,0.0,0.0,0.0,0.0,0.0,0.0,0.0,0.0,0.0,0.0,0.0,0.0,0.0,0.0,0.0,0.0,0.0,0.0,0.0,0.0,0.0,0.0,0.0,0.0,0.0,0.0,0.0,0.0,0.0,0.0,0.0,0.0,0.0,0.0,0.0,0.0,0.0,0.0,0.0,0.0,0.0,0.0,0.0,0.0,0.0,0.0,0.0,0.0,0.0,0.0,0.0,0.0,0.0,0.0,0.0,0.0,0.0,0.0,0.0,0.0,0.0,0.0,0.0,0.0,0.0,0.0,0.0,0.0,0.0,0.0,0.0,0.0,0.0,0.0,0.0,0.0,0.0,0.0,0.0,0.0,0.0,0.0,0.0,0.0,0.0,0.0,0.0,0.0,0.0,0.0,0.0,0.0,0.0,0.0,0.0,0.0,0.0,0.0,0.0,0.0,0.0,0.0,0.0,0.0,0.0,0.0,0.0,0.0,0.0,0.0,0.0,0.0,0.0,0.0,0.0,0.0,0.0,0.0,0.0,0.0,0.0,0.0,0.0,0.0,0.0,0.0,0.0,0.0,0.0,0.0,0.0,0.0,0.0,0.0,0.0,0.0,0.0,0.0,0.0,0.0,0.0,0.0,0.0,0.0,0.0,0.0,0.0,0.0,0.0,0.0,0.0,0.0,0.0,0.0,0.0,0.0,0.0,0.0,0.0,0.0,0.0,0.0,0.0,0.0,0.0,0.0,0.0,0.0,0.0,0.0,0.0,0.0,0.0,0.0,0.0,0.0,0.0,0.0,0.0,0.0,0.0,0.0,0.0,0.0,0.0,0.0,0.0,0.0,0.0,0.0,0.0,0.0,0.0,0.0,0.0,0.0,0.0,0.0,0.0,0.0,0.0,0.0,0.0,0.0,0.0,0.0,0.0,0.0,0.0,0.0,0.0,0.0,0.0,0.0,0.0,0.0,0.0,0.0,0.0,0.0,0.0,0.0,0.0,0.0,0.0,0.0,0.0,0.0,0.0,0.0,0.0,0.0,0.0,0.0,0.0,0.0,0.0,0.0,0.0,0.0,0.0,0.0,0.0,0.0,0.0,0.0,0.0,0.0,0.0,0.0,0.0,0.0,0.0,0.0,0.0,0.0,0.0,0.0,0.0,0.0,0.0,0.0,0.0,0.0,0.0,0.0,0.0,0.0,0.0,0.0,0.0,0.0,0.0,0.0,0.0,0.0,0.0,0.0,0.0,0.0,0.0,0.0,0.0,0.0,0.0,0.0,0.0,0.0,0.0,0.0,0.0,0.0,0.0,0.0,0.0,0.0,0.0,0.0,0.0,0.0,0.0,0.0,0.0,0.0,0.0,0.0,0.0,0.0,0.0,0.0,0.0,0.0,0.0,0.0,0.0,0.0,0.0,0.0,0.0,0.0,0.0,0.0,0.0,0.0,0.0,0.0,0.0,0.0,0.0,0.0,0.0,0.0,0.0,0.0,0.0,0.0,0.0,0.0,0.0,0.0,0.0,0.0,0.0,0.0,0.0,0.0,0.0,0.0,0.0,0.0,0.0,0.0,0.0,0.0,0.0,0.0,0.0,0.0,0.0,0.0,0.0,0.0,0.0,0.0,0.0,0.0,0.0,0.0,0.0,0.0,0.0,0.0,0.0,0.0,0.0,0.0,0.0,0.0,0.0,0.0,0.0,0.0,0.0,0.0,0.0,0.0,0.0,0.0,0.0,0.0,0.0,0.0,0.0,0.0,0.0,0.0,0.0,0.0,0.0,0.0,0.0,0.0,0.0,0.0,0.0,0.0,0.0,0.0,0.0,0.0,0.0,0.0,0.0,0.0,0.0,0.0,0.0,0.0,0.0,0.0,0.0,0.0,0.0,0.0,0.0,0.0,0.0,0.0,0.0,0.0,0.0,0.0,0.0,0.0,0.0,0.0,0.0,0.0,0.0,0.0,0.0,0.0,0.0,0.0,0.0,0.0,0.0,0.0,0.0,0.0,0.0,0.0,0.0,0.0,0.0,0.0,0.0,0.0,0.0,0.0,0.0,0.0,0.0,0.0,0.0,0.0,0.0,0.0,0.0,0.0,0.0,0.0,0.0,0.0,0.0,0.0,0.0,0.0,0.0,0.0,0.0,0.0,0.0,0.0,0.0,0.0,0.0,0.0,0.0,0.0,0.0,0.0,0.0,0.0,0.0,0.0,0.0,0.0,0.0,0.0,0.0,0.0,0.0,0.0,0.0,0.0,0.0,0.0,0.0,0.0,0.0,0.0,0.0,0.0,0.0,0.0,0.0,0.0,0.0,0.0,0.0,0.0,0.0,0.0,0.0,0.0,0.0,0.0,0.0,0.0,0.0,0.0,0.0,0.0,0.0,0.0,0.0,0.0,0.0,0.0,0.0,0.0,0.0,0.0,0.0,0.0,0.0,0.0,0.0,0.0,0.0,0.0,0.0,0.0,0.0,0.0,0.0,0.0,0.0,0.0,0.0,0.0,0.0,0.0,0.0,0.0,0.0,0.0,0.0,0.0,0.0,0.0,0.0,0.0,0.0,0.0,0.0,0.0,0.0,0.0,0.0,0.0,0.0,0.0,0.0,0.0,0.0,0.0,0.0,0.0,0.0,0.0,0.0,0.0,0.0,0.0,0.0,0.0,0.0,0.0,0.0,0.0,0.0,0.0,0.0,0.0,0.0,0.0,0.0,0.0,0.0,0.0,0.0,0.0,0.0,0.0,0.0,0.0,0.0,0.0,0.0,0.0,0.0,0.0,0.0,0.0,0.0,0.0,0.0,0.0,0.0,0.0,0.0,0.0,0.0,0.0,0.0,0.0,0.0,0.0,0.0,0.0,0.0,0.0,0.0,0.0,0.0,0.0,0.0,0.0,0.0,0.0,0.0,0.0,0.0,0.0,0.0,0.0,0.0,0.0,0.0,0.0,0.0,0.0,0.0,0.0,0.0,0.0,0.0,0.0,0.0,0.0,0.0,0.0,0.0,0.0,0.0,0.0,0.0,0.0,0.0,0.0,0.0,0.0,0.0,0.0,0.0,0.0,0.0,0.0,0.0,0.0,0.0,0.0,0.0,0.0,0.0,0.0,0.0,0.0,0.0,0.0,0.0,0.0,0.0,0.0,0.0,0.0,0.0,0.0,0.0,0.0,0.0,0.0,0.0,0.0,0.0,0.0,0.0,0.0,0.0,0.0,0.0,0.0,0.0,0.0,0.0,0.0,0.0,0.0,0.0,0.0,0.0,0.0,0.0,0.0,0.0,0.0,0.0,0.0,0.0,0.0,0.0,0.0,0.0,0.0,0.0,0.0,0.0,0.0,0.0,0.0,0.0,0.0,0.0,0.0,0.0,0.0,0.0,0.0,0.0,0.0,0.0,0.0,0.0,0.0,0.0,0.0,0.0,0.0,0.0,0.0,0.0,0.0,0.0,0.0,0.0,0.0,0.0,0.0,0.0,0.0,0.0,0.0,0.0,0.0,0.0,0.0,0.0,0.0,0.0,0.0,0.0,0.0,0.0,0.0,0.0,0.0,0.0,0.0,0.0,0.0,0.0,0.0,0.0,0.0,0.0,0.0,0.0,0.0,0.0,0.0,0.0,0.0,0.0,0.0,0.0,0.0,0.0,0.0,0.0,0.0,0.0,0.0,0.0,0.0,0.0,0.0,0.0,0.0,0.0,0.0,0.0,0.0,0.0,0.0,0.0,0.0,0.0,0.0,0.0,0.0,0.0,0.0,0.0,0.0,0.0,0.0,0.0,0.0,0.0,0.0,0.0,0.0,0.0,0.0,0.0,0.0,0.0,0.0,0.0,0.0,0.0,0.0,0.0,0.0,0.0,0.0,0.0,0.0,0.0,0.0,0.0,0.0,0.0,0.0,0.0,0.0,0.0,0.0,0.0,0.0,0.0,0.0,0.0,0.0,0.0,0.0,0.0,0.0,0.0,0.0,0.0,0.0,0.0,0.0,0.0,0.0,0.0,-1.5404,0.0,0.0,0.0,0.0,0.0,0.0,0.0,0.0,0.0,0.0,0.0,0.0,0.0,0.0,0.0,0.0,0.0,0.0,0.0,0.0,0.0,0.0,0.0,0.0,0.0,0.0,0.0,0.0,0.0,0.0,0.0,0.0,0.0,0.0,0.0,0.0,0.0,0.0,0.0,0.0,0.0,0.0,0.0,0.0,0.0,0.0,0.0,0.0,0.0,0.0,0.0,0.0,0.0,0.0,0.0,0.0,0.0,0.0,0.0,0.0,0.0,0.0,0.0,0.0,0.0,0.0,0.0,0.0,0.0,0.0,0.0,0.0,0.0,0.0,0.0,0.0,0.0,0.0,0.0,0.0,0.0,0.0,0.0,0.0,0.0,0.0,0.0,0.0,0.0,0.0,0.0,0.0,0.0,0.0,0.0,0.0,0.0,0.0,0.0,0.0,0.0,0.0,0.0,0.0,0.0,0.0,0.0,0.0,0.0,0.0,-1.5404,-1.5418,-1.5407,-1.5412,-1.5399,0.0,0.0,0.0,0.0,0.0,0.0,0.0,0.0,0.0,0.0,0.0,0.0,0.0,0.0,0.0,0.0,0.0,0.0,0.0,0.0,0.0,0.0,0.0,0.0,0.0,0.0,0.0,0.0,0.0,0.0,0.0,0.0,0.0,0.0,0.0,0.0,0.0,0.0,0.0,0.0,0.0,0.0,0.0,0.0,0.0,0.0,0.0,0.0,0.0,0.0,0.0,0.0,0.0,0.0,0.0,0.0,0.0,0.0,0.0,0.0,0.0,0.0,0.0,0.0,0.0,0.0,0.0,0.0,0.0,0.0,0.0,0.0,0.0,0.0,0.0,0.0,0.0,0.0,0.0,0.0,0.0,0.0,0.0,0.0,0.0,0.0,0.0,0.0,0.0,0.0,0.0,0.0,0.0,0.0,0.0,0.0,0.0,0.0,0.0,0.0,0.0,0.0,0.0,0.0,0.0,0.0,0.0,0.0,0.0,0.0,0.0,0.0,-1.5403,-1.5387,-1.5384,0.0,0.0,0.0,0.0,0.0,0.0,0.0,0.0,0.0,0.0,0.0,0.0,0.0,0.0,0.0,0.0,0.0,0.0,0.0,0.0,0.0,0.0,0.0,0.0,0.0,0.0,0.0,0.0,0.0,0.0,0.0,0.0,0.0,0.0,0.0,0.0,0.0,0.0,0.0,0.0,0.0,0.0,0.0,0.0,0.0,0.0,0.0,0.0,0.0,0.0,0.0,0.0,0.0,0.0,0.0,0.0,0.0,0.0,0.0,0.0,0.0,0.0,0.0,0.0,0.0,0.0,0.0,0.0,0.0,0.0,0.0,0.0,0.0,0.0,0.0,0.0,0.0,0.0,0.0,0.0,0.0,0.0,0.0,0.0,0.0,0.0,0.0,0.0,0.0,0.0,0.0,0.0,0.0,0.0,0.0,0.0,0.0,0.0,0.0,0.0,0.0,0.0,0.0,0.0,0.0,0.0,0.0,0.0,0.0,0.0,-1.5412,-1.5405,-1.5409,0.0,-1.5323,0.0,0.0,0.0,0.0,0.0,0.0,0.0,0.0,0.0,0.0,0.0,0.0,0.0,0.0,0.0,0.0,0.0,0.0,0.0,0.0,0.0,0.0,0.0,0.0,0.0,0.0,0.0,0.0,0.0,0.0,0.0,0.0,0.0,0.0,0.0,0.0,0.0,0.0,0.0,0.0,0.0,0.0,0.0,0.0,0.0,0.0,0.0,0.0,0.0,0.0,0.0,0.0,0.0,0.0,0.0,0.0,0.0,0.0,0.0,0.0,0.0,0.0,0.0,0.0,0.0,0.0,0.0,0.0,0.0,0.0,0.0,0.0,0.0,0.0,0.0,0.0,0.0,0.0,0.0,0.0,0.0,0.0,0.0,0.0,0.0,0.0,0.0,0.0,0.0,0.0,0.0,0.0,0.0,0.0,0.0,0.0,0.0,0.0,0.0,0.0,0.0,0.0,0.0,0.0,0.0,0.0,0.0,0.0,0.0,0.0,-1.5409,-1.5416,-1.5354,-1.5326,0.0,0.0,0.0,0.0,0.0,0.0,0.0,0.0,0.0,0.0,0.0,0.0,0.0,0.0,0.0,0.0,0.0,0.0,0.0,0.0,0.0,0.0,0.0,0.0,0.0,0.0,0.0,0.0,0.0,0.0,0.0,0.0,0.0,0.0,0.0,0.0,0.0,0.0,0.0,0.0,0.0,0.0,0.0,0.0,0.0,0.0,0.0,0.0,0.0,0.0,0.0,0.0,0.0,0.0,0.0,0.0,0.0,0.0,0.0,0.0,0.0,0.0,0.0,0.0,0.0,0.0,0.0,0.0,0.0,0.0,0.0,0.0,0.0,0.0,0.0,0.0,0.0,0.0,0.0,0.0,0.0,0.0,0.0,0.0,0.0,0.0,0.0,0.0,0.0,0.0,0.0,0.0,0.0,0.0,0.0,0.0,0.0,0.0,0.0,0.0,0.0,0.0,0.0,0.0,0.0,0.0,0.0,0.0,0.0,0.0,-1.5412,-1.542,-1.5402,-1.5336,-1.5292,-1.5295,0.0,0.0,0.0,0.0,0.0,0.0,0.0,0.0,0.0,0.0,0.0,0.0,0.0,0.0,0.0,0.0,0.0,0.0,0.0,0.0,0.0,0.0,0.0,0.0,0.0,0.0,0.0,0.0,0.0,0.0,0.0,0.0,0.0,0.0,0.0,0.0,0.0,0.0,0.0,0.0,0.0,0.0,0.0,0.0,0.0,0.0,0.0,0.0,0.0,0.0,0.0,0.0,0.0,0.0,0.0,0.0,0.0,0.0,0.0,0.0,0.0,0.0,0.0,0.0,0.0,0.0,0.0,0.0,0.0,0.0,0.0,0.0,0.0,0.0,0.0,0.0,0.0,0.0,0.0,0.0,0.0,0.0,0.0,0.0,0.0,0.0,0.0,0.0,0.0,0.0,0.0,0.0,0.0,0.0,0.0,0.0,0.0,0.0,0.0,0.0,0.0,0.0,0.0,0.0,0.0,0.0,0.0,0.0,-1.541,-1.5418,-1.5421,-1.5397,-1.533,-1.5295,0.0,0.0,0.0,0.0,0.0,0.0,0.0,0.0,0.0,0.0,0.0,0.0,0.0,0.0,0.0,0.0,0.0,0.0,0.0,0.0,0.0,0.0,0.0,0.0,0.0,0.0,0.0,0.0,0.0,0.0,0.0,0.0,0.0,0.0,0.0,0.0,0.0,0.0,0.0,0.0,0.0,0.0,0.0,0.0,0.0,0.0,0.0,0.0,0.0,0.0,0.0,0.0,0.0,0.0,0.0,0.0,0.0,0.0,0.0,0.0,0.0,0.0,0.0,0.0,0.0,0.0,0.0,0.0,0.0,0.0,0.0,0.0,0.0,0.0,0.0,0.0,0.0,0.0,0.0,0.0,0.0,0.0,0.0,0.0,0.0,0.0,0.0,0.0,0.0,0.0,0.0,0.0,0.0,0.0,0.0,0.0,0.0,0.0,0.0,0.0,0.0,0.0,0.0,0.0,0.0,0.0,0.0,0.0,0.0,-1.5416,-1.5421,-1.5381,-1.5345,-1.5323,-1.5287,0.0,0.0,0.0,0.0,0.0,0.0,0.0,0.0,0.0,0.0,0.0,0.0,0.0,0.0,0.0,0.0,0.0,0.0,0.0,0.0,0.0,0.0,0.0,0.0,0.0,0.0,0.0,0.0,0.0,0.0,0.0,0.0,0.0,0.0,0.0,0.0,0.0,0.0,0.0,0.0,0.0,0.0,0.0,0.0,0.0,0.0,0.0,0.0,0.0,0.0,0.0,0.0,0.0,0.0,0.0,0.0,0.0,0.0,0.0,0.0,0.0,0.0,0.0,0.0,0.0,0.0,0.0,0.0,0.0,0.0,0.0,0.0,0.0,0.0,0.0,0.0,0.0,0.0,0.0,0.0,0.0,0.0,0.0,0.0,0.0,0.0,0.0,0.0,0.0,0.0,0.0,0.0,0.0,0.0,0.0,0.0,0.0,0.0,0.0,0.0,0.0,0.0,0.0,0.0,0.0,0.0,0.0,0.0,0.0,-1.5418,0.0,-1.5345,-1.5295,-1.5295,-1.5298,0.0,0.0,0.0,0.0,0.0,0.0,0.0,0.0,0.0,0.0,0.0,0.0,0.0,0.0,0.0,0.0,0.0,0.0,0.0,0.0,0.0,0.0,0.0,0.0,0.0,0.0,0.0,0.0,0.0,0.0,0.0,0.0,0.0,0.0,0.0,0.0,0.0,0.0,0.0,0.0,0.0,0.0,0.0,0.0,0.0,0.0,0.0,0.0,0.0,0.0,0.0,0.0,0.0,0.0,0.0,0.0,0.0,0.0,0.0,0.0,0.0,0.0,0.0,0.0,0.0,0.0,0.0,0.0,0.0,0.0,0.0,0.0,0.0,0.0,0.0,0.0,0.0,0.0,0.0,0.0,0.0,0.0,0.0,0.0,0.0,0.0,0.0,0.0,0.0,0.0,0.0,0.0,0.0,0.0,0.0,0.0,0.0,0.0,0.0,0.0,0.0,0.0,0.0,0.0,0.0,0.0,0.0,0.0,-1.5413,-1.5394,-1.5322,-1.5295,-1.5295,-1.5287,-1.5284,0.0,0.0,0.0,0.0,0.0,0.0,0.0,0.0,0.0,0.0,0.0,0.0,0.0,0.0,0.0,0.0,0.0,0.0,0.0,0.0,0.0,0.0,0.0,0.0,0.0,0.0,0.0,0.0,0.0,0.0,0.0,0.0,0.0,0.0,0.0,0.0,0.0,0.0,0.0,0.0,0.0,0.0,0.0,0.0,0.0,0.0,0.0,0.0,0.0,0.0,0.0,0.0,0.0,0.0,0.0,0.0,0.0,0.0,0.0,0.0,0.0,0.0,0.0,0.0,0.0,0.0,0.0,0.0,0.0,0.0,0.0,0.0,0.0,0.0,0.0,0.0,0.0,0.0,0.0,0.0,0.0,0.0,0.0,0.0,0.0,0.0,0.0,0.0,0.0,0.0,0.0,0.0,0.0,0.0,0.0,0.0,0.0,0.0,0.0,0.0,0.0,0.0,0.0,0.0,0.0,0.0,0.0,0.0,0.0,-1.5346,-1.5323,-1.5295,-1.5283,-1.5293,-1.5294,0.0,0.0,0.0,0.0,0.0,0.0,0.0,0.0,0.0,0.0,0.0,0.0,0.0,0.0,0.0,0.0,0.0,0.0,0.0,0.0,0.0,0.0,0.0,0.0,0.0,0.0,0.0,0.0,0.0,0.0,0.0,0.0,0.0,0.0,0.0,0.0,0.0,0.0,0.0,0.0,0.0,0.0,0.0,0.0,0.0,0.0,0.0,0.0,0.0,0.0,0.0,0.0,0.0,0.0,0.0,0.0,0.0,0.0,0.0,0.0,0.0,0.0,0.0,0.0,0.0,0.0,0.0,0.0,0.0,0.0,0.0,0.0,0.0,0.0,0.0,0.0,0.0,0.0,0.0,0.0,0.0,0.0,0.0,0.0,0.0,0.0,0.0,0.0,0.0,0.0,0.0,0.0,0.0,0.0,0.0,0.0,0.0,0.0,0.0,0.0,0.0,0.0,0.0,0.0,0.0,0.0,0.0,0.0,0.0,-1.6193,-1.5903,-1.5729,-1.5739,-1.5425,-1.5405,-1.5655,0.0,0.0,0.0,0.0,0.0,0.0,0.0,0.0,0.0,0.0,0.0,0.0,0.0,0.0,0.0,0.0,0.0,0.0,0.0,0.0,0.0,0.0,0.0,0.0,0.0,0.0,0.0,0.0,0.0,0.0,0.0,0.0,0.0,0.0,0.0,0.0,0.0,0.0,0.0,0.0,0.0,0.0,0.0,0.0,0.0,0.0,0.0,0.0,0.0,0.0,0.0,0.0,0.0,0.0,0.0,0.0,0.0,0.0,0.0,0.0,0.0,0.0,0.0,0.0,0.0,0.0,0.0,0.0,0.0,0.0,0.0,0.0,0.0,0.0,0.0,0.0,0.0,0.0,0.0,0.0,0.0,0.0,0.0,0.0,0.0,0.0,0.0,0.0,0.0,0.0,0.0,0.0,0.0,0.0,0.0,0.0,0.0,0.0,0.0,0.0,0.0,0.0,0.0,0.0,0.0,0.0,0.0,0.0,-1.7675,-1.6996,-1.6596,-1.6543,-1.5736,-1.5655,0.0,0.0,0.0,0.0,0.0,0.0,0.0,0.0,0.0,0.0,0.0,0.0,0.0,0.0,0.0,0.0,0.0,0.0,0.0,0.0,0.0,0.0,0.0,0.0,0.0,0.0,0.0,0.0,0.0,0.0,0.0,0.0,0.0,0.0,0.0,0.0,0.0,0.0,0.0,0.0,0.0,0.0,0.0,0.0,0.0,0.0,0.0,0.0,0.0,0.0,0.0,0.0,0.0,0.0,0.0,0.0,0.0,0.0,0.0,0.0,0.0,0.0,0.0,0.0,0.0,0.0,0.0,0.0,0.0,0.0,0.0,0.0,0.0,0.0,0.0,0.0,0.0,0.0,0.0,0.0,0.0,0.0,0.0,0.0,0.0,0.0,0.0,0.0,0.0,0.0,0.0,0.0,0.0,0.0,0.0,0.0,0.0,0.0,0.0,0.0,0.0,0.0,0.0,0.0,0.0,0.0,0.0,0.0,0.0,-1.7619,-1.801,-1.7926,-1.74,-1.6529,-1.6176,0.0,0.0,0.0,0.0,0.0,0.0,0.0,0.0,0.0,0.0,0.0,0.0,0.0,0.0,0.0,0.0,0.0,0.0,0.0,0.0,0.0,0.0,0.0,0.0,0.0,0.0,0.0,0.0,0.0,0.0,0.0,0.0,0.0,0.0,0.0,0.0,0.0,0.0,0.0,0.0,0.0,0.0,0.0,0.0,0.0,0.0,0.0,0.0,0.0,0.0,0.0,0.0,0.0,0.0,0.0,0.0,0.0,0.0,0.0,0.0,0.0,0.0,0.0,0.0,0.0,0.0,0.0,0.0,0.0,0.0,0.0,0.0,0.0,0.0,0.0,0.0,0.0,0.0,0.0,0.0,0.0,0.0,0.0,0.0,0.0,0.0,0.0,0.0,0.0,0.0,0.0,0.0,0.0,0.0,0.0,0.0,0.0,0.0,0.0,0.0,0.0,0.0,0.0,0.0,0.0,0.0,0.0,0.0,-1.8313,-1.8611,-1.9069,-1.9097,-1.8675,-1.7524,-1.6866,0.0,0.0,0.0,0.0,0.0,0.0,0.0,0.0,0.0,0.0,0.0,0.0,0.0,0.0,0.0,0.0,0.0,0.0,0.0,0.0,0.0,0.0,0.0,0.0,0.0,0.0,0.0,0.0,0.0,0.0,0.0,0.0,0.0,0.0,0.0,0.0,0.0,0.0,0.0,0.0,0.0,0.0,0.0,0.0,0.0,0.0,0.0,0.0,0.0,0.0,0.0,0.0,0.0,0.0,0.0,0.0,0.0,0.0,0.0,0.0,0.0,0.0,0.0,0.0,0.0,0.0,0.0,0.0,0.0,0.0,0.0,0.0,0.0,0.0,0.0,0.0,0.0,0.0,0.0,0.0,0.0,0.0,0.0,0.0,0.0,0.0,0.0,0.0,0.0,0.0,0.0,0.0,0.0,0.0,0.0,0.0,0.0,0.0,0.0,0.0,0.0,0.0,0.0,0.0,0.0,0.0,0.0,0.0,-1.9154,-1.9958,-1.9977,-1.9985,-1.9945,-1.8507,-1.7649,0.0,0.0,0.0,0.0,0.0,0.0,0.0,0.0,0.0,0.0,0.0,0.0,0.0,0.0,0.0,0.0,0.0,0.0,0.0,0.0,0.0,0.0,0.0,0.0,0.0,0.0,0.0,0.0,0.0,0.0,0.0,0.0,0.0,0.0,0.0,0.0,0.0,0.0,0.0,0.0,0.0,0.0,0.0,0.0,0.0,0.0,0.0,0.0,0.0,0.0,0.0,0.0,0.0,0.0,0.0,0.0,0.0,0.0,0.0,0.0,0.0,0.0,0.0,0.0,0.0,0.0,0.0,0.0,0.0,0.0,0.0,0.0,0.0,0.0,0.0,0.0,0.0,0.0,0.0,0.0,0.0,0.0,0.0,0.0,0.0,0.0,0.0,0.0,0.0,0.0,0.0,0.0,0.0,0.0,0.0,0.0,0.0,0.0,0.0,0.0,0.0,0.0,0.0,0.0,0.0,0.0,0.0,0.0,-1.9028,-1.9816,-1.983,-1.9844,-1.9844,-1.8958,-1.8127,0.0,0.0,0.0,0.0,0.0,0.0,0.0,0.0,0.0,0.0,0.0,0.0,0.0,0.0,0.0,0.0,0.0,0.0,0.0,0.0,0.0,0.0,0.0,0.0,0.0,0.0,0.0,0.0,0.0,0.0,0.0,0.0,0.0,0.0,0.0,0.0,0.0,0.0,0.0,0.0,0.0,0.0,0.0,0.0,0.0,0.0,0.0,0.0,-0.0083,0.0,0.0,0.0,0.0,0.0,0.0,0.0,0.0,0.0,0.0,0.0,0.0,0.0,0.0,0.0,0.0,0.0,0.0,0.0,0.0,0.0,0.0,0.0,0.0,0.0,0.0,0.0,0.0,0.0,0.0,0.0,0.0,0.0,0.0,0.0,0.0,0.0,0.0,0.0,0.0,0.0,0.0,0.0,0.0,0.0,0.0,0.0,0.0,0.0,0.0,0.0,0.0,0.0,0.0,0.0,0.0,0.0,0.0,0.0,-1.9313,-1.9682,-1.9725,-1.9699,-1.9686,-1.932,-1.8549,0.0,0.0,0.0,0.0,0.0,0.0,0.0,0.0,0.0,0.0,0.0,0.0,0.0,0.0,0.0,0.0,0.0,0.0,0.0,0.0,0.0,0.0,0.0,0.0,0.0,0.0,0.0,0.0,0.0,0.0,0.0,0.0,0.0,0.0,0.0,0.0,0.0,0.0,0.0,0.0,0.0,0.0,0.0,0.0,0.0,0.0,0.0,0.0,0.0,0.0,0.0,0.0,0.0,0.0,0.0,0.0,0.0,0.0,0.0,0.0,0.0,0.0,0.0,0.0,0.0,0.0,0.0,0.0,0.0,0.0,0.0,0.0,0.0,0.0,0.0,0.0,0.0,0.0,0.0,0.0,0.0,0.0,0.0,0.0,0.0,0.0,0.0,0.0,0.0,0.0,0.0,0.0,0.0,0.0,0.0,0.0,0.0,0.0,0.0,0.0,0.0,0.0,0.0,0.0,0.0,0.0,0.0,-1.9218,-1.9633,-1.9574,-1.9555,-1.956,-1.9555,-1.9555,-1.8785,-1.7193,0.0,0.0,0.0,0.0,0.0,0.0,0.0,0.0,0.0,0.0,0.0,0.0,0.0,0.0,0.0,0.0,0.0,0.0,0.0,0.0,0.0,0.0,0.0,0.0,0.0,0.0,0.0,0.0,0.0,0.0,0.0,0.0,0.0,0.0,0.0,0.0,0.0,0.0,-0.169,-0.0719,0.0,0.0,0.0,0.0,0.0,0.0,0.0,0.0,0.29,0.0,0.0,0.0,0.0,0.0,0.0,0.0,0.0,0.0,0.0,0.0,0.0,0.0,0.0,0.0,0.0,0.0,0.0,0.0,0.0,0.0,0.0,0.0,0.0,0.0,0.0,0.0,0.0,0.0,0.0,0.0,0.0,0.0,0.0,0.0,0.0,0.0,0.0,0.0,0.0,0.0,0.0,0.0,0.0,0.0,0.0,0.0,0.0,0.0,0.0,0.0,0.0,0.0,0.0,0.0,0.0,-1.8236,-1.904,-1.945,-1.9435,-1.9368,-1.9368,-1.9353,-1.936,-1.8559,-1.7,0.0,0.0,0.0,0.0,0.0,0.0,0.0,0.0,0.0,0.0,0.0,0.0,0.0,0.0,0.0,0.0,0.0,0.0,0.0,0.0,0.0,0.0,0.0,0.0,0.0,0.0,0.0,0.0,0.0,0.0,0.0,0.0,0.0,0.0,0.0,0.0,0.0,0.0,0.0,0.0536,0.1188,0.0,0.0,0.0,0.0,0.0,0.0,0.0,0.0,0.398,0.0,0.0,0.0,0.0,0.0,0.0,0.0,0.0,0.0,0.0,0.0,0.0,0.0,0.0,0.0,0.0,0.0,0.0,0.0,0.0,0.0,0.0,0.0,0.0,0.0,0.0,0.0,0.0,0.0,0.0,0.0,0.0,0.0,0.0,0.0,0.0,0.0,0.0,0.0,0.0,0.0,0.0,0.0,0.0,0.0,0.0,0.0,0.0,0.0,0.0,0.0,0.0,0.0,0.0,0.0,-1.8608,-1.905,-1.9235,-1.9202,-1.915,-1.9134,-1.9099,-1.9135,-1.8574,0.0,0.0,0.0,0.0,0.0,0.0,0.0,0.0,0.0,0.0,0.0,0.0,0.0,0.0,0.0,0.0,0.0,0.0,0.0,0.0,0.0,0.0,0.0,0.0,0.0,0.0,0.0,0.0,0.0,0.0,0.0,0.0,0.0,0.0,0.0,0.0,0.0,0.0,0.0,0.0,0.1505,0.2137,0.2636,0.0,0.0,0.0,0.0,0.0,0.0,0.429,0.4718,0.0,0.0,0.0,0.0,0.0,0.0,0.0,0.0,0.0,0.0,0.0,0.0,0.0,0.0,0.0,0.0,0.0,0.0,0.0,0.0,0.0,0.0,0.0,0.0,0.0,0.0,0.0,0.0,0.0,0.0,0.0,0.0,0.0,0.0,0.0,0.0,0.0,0.0,0.0,0.0,0.0,0.0,0.0,0.0,0.0,0.0,0.0,0.0,0.0,0.0,0.0,0.0,0.0,0.0,0.0,-1.893,-1.9002,-1.8966,-1.8931,-1.8931,-1.8914,-1.8843,-1.8878,-1.8483,0.0,0.0,0.0,0.0,0.0,0.0,0.0,0.0,0.0,0.0,0.0,0.0,0.0,0.0,0.0,0.0,0.0,0.0,0.0,0.0,0.0,0.0,0.0,0.0,0.0,0.0,0.0,0.0,0.0,0.0,0.0,0.0,0.0,0.0,0.0,0.0,0.0,0.0,0.0,0.0,0.0,0.3101,0.3365,0.3752,0.0,0.0,0.0,0.0,0.4913,0.5222,0.0,0.0,0.0,0.0,0.0,0.0,0.0,0.0,0.0,0.0,0.0,0.0,0.0,0.0,0.0,0.0,0.0,0.0,0.0,0.0,0.0,0.0,0.0,0.0,0.0,0.0,0.0,0.0,0.0,0.0,0.0,0.0,0.0,0.0,0.0,0.0,0.0,0.0,0.0,0.0,0.0,0.0,0.0,0.0,0.0,0.0,0.0,0.0,0.0,0.0,0.0,0.0,0.0,0.0,0.0,0.0,-1.8607,-1.8659,-1.8642,-1.8642,-1.8642,-1.8659,-1.8623,-1.8623,-1.7932,0.0,0.0,0.0,0.0,0.0,0.0,0.0,0.0,0.0,0.0,0.0,0.0,0.0,0.0,0.0,0.0,0.0,0.0,0.0,0.0,0.0,0.0,0.0,0.0,0.0,0.0,0.0,0.0,0.0,0.0,0.0,0.0,0.0,0.0,0.0,0.0,0.0,0.0,0.0,0.0,0.0,0.4077,0.4453,0.49,0.5324,0.0,0.0,0.6219,0.6413,0.6491,0.0,0.0,0.0,0.0,0.0,0.0,0.0,0.0,0.0,0.0,0.0,0.0,0.0,0.0,0.0,0.0,0.0,0.0,0.0,0.0,0.0,0.0,0.0,0.0,0.0,0.0,0.0,0.0,0.0,0.0,0.0,0.0,0.0,0.0,0.0,0.0,0.0,0.0,0.0,0.0,0.0,0.0,0.0,0.0,0.0,0.0,0.0,0.0,0.0,0.0,0.0,0.0,0.0,0.0,0.0,-1.6777,-1.8261,-1.8313,-1.8313,-1.8273,-1.8293,-1.8313,-1.8307,-1.8351,-1.7844,0.0,0.0,0.0,0.0,0.0,0.0,0.0,0.0,0.0,0.0,0.0,0.0,0.0,0.0,0.0,0.0,0.0,0.0,0.0,0.0,0.0,0.0,0.0,0.0,0.0,0.0,0.0,0.0,0.0,0.0,0.0,0.0,0.0,0.0,0.0,0.0,0.0,0.0,0.0,0.0,0.0,0.0,0.6033,0.6293,0.0,0.0,0.0,0.7121,0.7229,0.0,0.0,0.0,0.0,0.0,0.0,0.0,0.0,0.0,0.0,0.0,0.0,0.0,0.0,0.0,0.0,0.0,0.0,0.0,0.0,0.0,0.0,0.0,0.0,0.0,0.0,0.0,0.0,0.0,0.0,0.0,0.0,0.0,0.0,0.0,0.0,0.0,0.0,0.0,0.0,0.0,0.0,0.0,0.0,0.0,0.0,0.0,0.0,0.0,0.0,0.0,0.0,0.0,0.0,0.0,0.0,0.0,-1.7847,-1.7941,-1.7919,-1.7876,-1.7958,-1.7975,-1.7966,-1.8014,0.0,0.0,0.0,0.0,0.0,0.0,0.0,0.0,0.0,0.0,0.0,0.0,0.0,0.0,0.0,0.0,0.0,0.0,0.0,0.0,0.0,0.0,0.0,0.0,0.0,0.0,0.0,-1.1196,0.0,0.0,0.0,0.0,0.0,0.0,0.0,0.0,0.0,0.0,0.0,0.0,0.0,0.0,0.6905,0.7682,0.7757,0.7807,0.0,0.0,0.8215,0.8379,0.8619,0.8844,0.0,0.0,0.0,0.0,0.0,0.0,0.0,0.0,0.0,0.0,0.0,0.0,0.0,0.0,0.0,0.0,0.0,0.0,0.0,0.0,0.0,0.0,0.0,0.0,0.0,0.0,0.0,0.0,0.0,0.0,0.0,0.0,0.0,0.0,0.0,0.0,0.0,0.0,0.0,0.0,0.0,0.0,0.0,0.0,0.0,0.0,0.0,0.0,0.0,0.0,0.0,0.0,0.0,0.0,0.0,-1.7318,-1.7486,-1.7532,-1.7532,-1.7595,-1.7595,-1.7532,-1.7595,-1.7232,0.0,0.0,0.0,0.0,0.0,0.0,0.0,0.0,0.0,0.0,0.0,0.0,0.0,0.0,0.0,0.0,0.0,0.0,0.0,0.0,0.0,0.0,0.0,0.0,0.0,0.0,0.0,0.0,0.0,0.0,0.0,0.0,0.0,0.0,0.0,0.0,0.0,0.0,0.0,0.0,0.0,0.8451,0.9249,0.9295,0.9438,0.0,0.0,0.9867,1.0232,1.0236,1.0203,1.0263,0.0,0.0,0.0,0.0,0.0,0.0,0.0,0.0,0.0,0.0,0.0,0.0,0.0,0.0,0.0,0.0,0.0,0.0,0.0,0.0,0.0,0.0,0.0,0.0,0.0,0.0,0.0,0.0,0.0,0.0,0.0,0.0,0.0,0.0,0.0,0.0,0.0,0.0,0.0,0.0,0.0,0.0,0.0,0.0,0.0,0.0,0.0,0.0,0.0,0.0,0.0,0.0,0.0,-1.6185,-1.6919,-1.696,-1.7027,-1.7076,-1.7126,-1.7126,-1.7052,-1.7126,-1.6971,0.0,0.0,0.0,0.0,0.0,0.0,0.0,0.0,0.0,0.0,0.0,0.0,0.0,0.0,0.0,0.0,0.0,0.0,0.0,0.0,0.0,0.0,0.0,0.0,0.0,0.0,0.0,0.0,-0.5607,-0.2329,0.2955,0.0,0.0,0.0,0.0,0.0,0.0,0.0,0.0,0.0,0.0,0.9937,1.0677,1.0782,0.0,0.0,1.1241,1.1253,1.1411,1.1539,1.1615,1.1686,1.1799,0.0,0.0,0.0,0.0,0.0,0.0,0.0,0.0,0.0,0.0,0.0,0.0,0.0,0.0,0.0,0.0,0.0,0.0,0.0,0.0,0.0,0.0,0.0,0.0,0.0,0.0,0.0,0.0,0.0,0.0,0.0,0.0,0.0,0.0,0.0,0.0,0.0,0.0,0.0,0.0,0.0,0.0,0.0,0.0,0.0,0.0,0.0,0.0,0.0,0.0,0.0,0.0,-1.5842,-1.6389,-1.6485,-1.6538,-1.6581,-1.6644,-1.6686,-1.6581,-1.6617,-1.6591,0.0,0.0,0.0,0.0,0.0,0.0,0.0,0.0,0.0,0.0,0.0,0.0,0.0,0.0,0.0,0.0,0.0,0.0,0.0,0.0,0.0,0.0,0.0,0.0,0.0,0.0,0.0,0.0,-0.4851,-0.1055,0.4245,0.0,0.0,0.0,0.0,0.0,0.0,0.0,0.0,0.0,0.0,1.0549,1.1304,1.143,1.1535,1.1819,1.1854,1.1877,1.1952,1.216,1.2341,1.2404,0.0,0.0,0.0,0.0,0.0,0.0,0.0,0.0,0.0,0.0,0.0,0.0,0.0,0.0,0.0,0.0,0.0,0.0,0.0,0.0,0.0,0.0,0.0,0.0,0.0,0.0,0.0,0.0,0.0,0.0,0.0,0.0,0.0,0.0,0.0,0.0,0.0,0.0,0.0,0.0,0.0,0.0,0.0,0.0,0.0,0.0,0.0,0.0,0.0,0.0,0.0,0.0,0.0,-1.5752,-1.5739,-1.5996,-1.6123,-1.6123,-1.6176,-1.6176,-1.6123,-1.6095,-1.6067,-1.5981,0.0,0.0,0.0,0.0,0.0,0.0,0.0,0.0,0.0,0.0,0.0,0.0,0.0,0.0,0.0,0.0,0.0,0.0,0.0,0.0,0.0,0.0,0.0,0.0,0.0,0.0,-0.9004,-0.4286,-0.0153,0.0,0.0,0.0,0.0,0.0,0.0,0.0,0.0,0.0,0.0,0.95,1.0016,1.0872,1.0995,1.109,1.1455,1.1503,1.16,1.1851,1.2065,1.2206,0.0,0.0,0.0,0.0,0.0,0.0,0.0,0.0,0.0,0.0,0.0,0.0,0.0,0.0,0.0,0.0,0.0,0.0,0.0,0.0,0.0,0.0,0.0,0.0,0.0,0.0,0.0,0.0,-1.1057,0.0,0.0,0.0,0.0,0.0,0.0,0.0,0.0,0.0,0.0,0.0,-1.2265,-1.2568,0.0,0.0,0.0,0.0,0.0,0.0,0.0,0.0,0.0,0.0,0.0,0.0,-1.527,-1.53,-1.5477,-1.5595,-1.5697,-1.5682,-1.5638,-1.5551,-1.5463,-1.5374,-1.5269,0.0,0.0,0.0,0.0,0.0,0.0,0.0,0.0,0.0,0.0,0.0,0.0,0.0,0.0,0.0,0.0,0.0,0.0,0.0,0.0,0.0,0.0,0.0,0.0,0.0,-0.9631,0.0,0.0,0.0,0.0,0.0,0.0,0.0,0.0,0.0,0.0,0.0,0.6943,0.7402,0.7962,0.8633,0.9491,0.9861,1.0288,0.0,0.0,0.0,0.0,0.0,0.0,0.0,0.0,0.0,0.0,0.0,0.0,0.0,0.0,1.2676,1.3391,1.3515,1.375,1.4583,0.0,0.0,0.0,0.0,0.0,0.0,0.0,0.0,0.0,0.0,0.0,0.0,0.0,0.0,0.0,0.0,-1.1378,0.0,0.0,0.0,0.0,0.0,0.0,0.0,0.0,-1.2384,-1.2489,-1.2576,-1.271,-1.2826,0.0,-1.3195,-1.3116,0.0,0.0,0.0,0.0,0.0,0.0,0.0,0.0,-1.4833,-1.5093,-1.502,-1.5029,-1.5134,-1.5104,-1.5074,-1.5043,-1.4951,-1.4828,-1.47,-1.4296,-1.3959,0.0,0.0,0.0,0.0,0.0,0.0,0.0,0.0,0.0,0.0,0.0,0.0,0.0,0.0,0.0,0.0,0.0,0.0,0.0,0.0,0.0,0.0,0.0,-0.8729,0.0,0.0,0.0,0.0,0.0,0.0,0.0,0.0,0.0,0.3724,0.4528,0.4979,0.5391,0.5926,0.6596,0.7551,0.0,0.0,0.0,0.0,0.0,0.0,0.0,1.0703,1.0833,1.101,1.1202,1.1295,1.1045,1.1039,1.1697,0.0,0.0,1.2942,1.3196,1.3619,1.4894,1.5124,1.5255,1.5709,1.5817,1.5948,0.0,0.0,0.0,0.0,0.0,0.0,0.0,0.0,-1.1864,-1.183,0.0,-1.179,0.0,0.0,0.0,0.0,0.0,0.0,0.0,0.0,-1.2549,-1.2508,-1.2513,-1.2316,-1.2304,-1.2424,-1.2615,-1.2745,-1.2945,-1.3641,0.0,0.0,0.0,0.0,0.0,0.0,-1.4466,-1.5065,-1.4659,-1.4475,-1.4552,-1.4552,-1.4525,-1.4511,-1.4511,-1.4415,-1.43,-1.4287,-1.3952,-1.3249,-1.312,0.0,0.0,0.0,0.0,0.0,0.0,0.0,0.0,0.0,0.0,0.0,0.0,0.0,0.0,0.0,0.0,0.0,0.0,0.0,0.0,-0.9314,0.0,0.0,0.0,0.0,0.0,0.0,0.0,0.0,0.0,0.0,0.1366,0.2092,0.2587,0.3107,0.0,0.0,0.0,0.0,0.6223,0.6908,0.7373,0.7757,0.8079,0.8644,0.9046,0.9133,0.0,0.0,0.9306,0.9093,0.9055,0.9191,0.9277,1.0057,1.2699,1.3175,1.369,1.498,1.522,1.5747,1.6884,1.6981,1.7098,-1.1759,0.0,0.0,0.0,0.0,-1.1643,-1.164,-1.1435,-1.1688,-1.1813,-1.1738,-1.1497,0.0,0.0,0.0,0.0,0.0,0.0,-1.2136,-1.2212,-1.2362,-1.2454,-1.2496,-1.2682,-1.2838,-1.2969,-1.3168,-1.3325,-1.3494,-1.373,-1.3927,-1.4069,0.0,0.0,0.0,0.0,-1.4909,-1.5088,-1.5105,-1.5158,-1.5189,-1.5238,-1.4968,-1.4432,-1.4419,-1.4188,-1.3741,-1.3715,-1.3604,-1.3349,-1.2807,0.0,0.0,0.0,0.0,0.0,0.0,0.0,0.0,0.0,0.0,0.0,0.0,0.0,0.0,0.0,0.0,0.0,0.0,0.0,-0.8798,-0.8432,-0.7931,0.0,0.0,0.0,0.0,0.0,0.0,0.0,0.0,0.0,-0.2128,-0.0919,0.0,0.0,0.0,0.1272,0.2275,0.3107,0.3889,0.4762,0.0,0.0,0.0,0.6816,0.7238,0.7541,0.7975,0.8252,0.8316,0.8242,0.8332,0.8578,0.8618,0.9003,1.0026,1.1183,1.2335,1.3614,1.3969,1.4453,1.5791,1.6152,1.6486,-1.1733,-1.1739,-1.1499,-1.1445,-1.1519,-1.1751,-1.1761,-1.1556,-1.1893,-1.1949,-1.193,-1.179,-1.1911,-1.2234,-1.2022,0.0,0.0,0.0,-1.2236,-1.2272,-1.2341,-1.2436,-1.2503,-1.2584,-1.2679,-1.2848,-1.2984,-1.314,-1.3358,-1.3527,-1.3789,-1.4123,0.0,0.0,-1.4992,-1.4912,-1.4951,-1.5257,-1.5171,-1.5146,-1.5234,-1.5234,-1.4954,-1.4474,-1.4461,-1.4273,-1.3849,-1.3588,-1.3451,-1.338,-1.2734,-1.2174,0.0,0.0,0.0,0.0,0.0,0.0,0.0,0.0,0.0,0.0,0.0,-0.9928,0.0,0.0,0.0,0.0,-0.8976,-0.8616,-0.8054,-0.7855,0.0,0.0,0.0,0.0,0.0,0.0,0.0,-0.4918,-0.4719,-0.4549,-0.4284,-0.3455,-0.2527,-0.1558,-0.1154,-0.058,0.0272,0.0,0.1912,0.2817,0.3379,0.4031,0.4711,0.5169,0.567,0.6449,0.7033,0.7443,0.7582,0.7727,0.7954,0.8216,0.8354,0.8527,0.8899,0.9779,1.0858,1.2287,1.2603,1.3106,1.458,1.5524,1.6423,-1.1678,-1.1678,-1.1669,-1.1719,-1.1877,-1.1877,-1.1977,-1.2076,-1.2175,-1.2184,-1.2076,-1.2323,-1.2372,-1.2274,-1.2431,0.0,0.0,-1.2588,-1.2618,-1.2666,-1.2451,-1.2358,-1.2477,-1.2222,-1.2162,-1.2379,-1.2368,-1.253,-1.2893,-1.3225,-1.3662,-1.4081,-1.4062,-1.4434,-1.5127,-1.4716,-1.4809,-1.5467,-1.5039,-1.478,-1.4846,-1.4858,-1.4755,-1.4536,-1.4563,-1.4511,-1.4225,-1.3718,-1.3416,-1.3354,-1.2778,-1.2106,-1.1503,0.0,0.0,0.0,0.0,0.0,0.0,0.0,0.0,0.0,0.0,0.0,0.0,0.0,0.0,0.0,-0.8604,0.0,-0.7753,-0.7503,0.0,0.0,0.0,-0.6787,-0.6453,-0.6386,-0.6226,-0.5647,0.0,0.0,0.0,0.0,-0.4826,-0.2993,-0.2429,-0.1919,-0.1089,-0.0475,0.0241,0.1041,0.155,0.2201,0.3128,0.3719,0.4499,0.5533,0.6358,0.6811,0.699,0.7342,0.7754,0.801,0.824,0.8421,0.8835,0.8967,0.9402,1.0912,1.1229,1.1742,1.3257,1.4919,1.6279,-1.1377,-1.1377,-1.1368,-1.1528,-1.1728,-1.1728,-1.1778,-1.1778,-1.1828,-1.1828,-1.1819,-1.1877,-1.1927,-1.2026,-1.2126,-1.2175,-1.2184,-1.2224,-1.2274,-1.2421,-1.2415,-1.2513,-1.2667,-1.2665,-1.2738,-1.2849,-1.2943,-1.3093,-1.3279,-1.3543,-1.3793,-1.4025,-1.4225,-1.4631,-1.5248,-1.5142,-1.5219,-1.5501,-1.548,-1.5464,-1.5396,-1.5396,-1.5162,-1.4642,-1.4672,-1.4411,-1.3848,-1.3507,-1.3317,-1.3317,-1.291,-1.2432,-1.1872,-1.1679,0.0,0.0,0.0,0.0,0.0,0.0,0.0,0.0,0.0,-0.9346,-0.8776,0.0,-0.8949,0.0,-0.8302,-0.7979,-0.7607,-0.7454,0.0,0.0,-0.6914,-0.6781,-0.6526,-0.6586,-0.658,-0.6254,-0.6288,-0.6347,-0.6144,-0.5955,-0.5566,-0.4878,-0.4193,-0.3526,-0.2822,-0.1983,-0.1243,-0.0551,0.0252,0.1005,0.1709,0.2754,0.3807,0.45,0.5189,0.5678,0.5921,0.6412,0.6858,0.7092,0.7433,0.7767,0.8166,0.8334,0.8662,0.941,0.9876,1.0648,1.2321,1.3145,1.4254,-1.1276,-1.1276,-1.1276,-1.1368,-1.1519,-1.1528,-1.1528,-1.1528,-1.1578,-1.1628,-1.1628,-1.1678,-1.1728,-1.1819,-1.1868,-1.1927,-1.1927,-1.1927,-1.1968,-1.2026,-1.2126,-1.2224,-1.2431,-1.2529,-1.2618,-1.2793,-1.2842,-1.2997,-1.319,-1.3344,-1.3478,-1.3726,-1.3952,-1.428,-1.4719,-1.4983,-1.5198,-1.5334,-1.539,-1.5379,-1.5277,-1.5266,-1.5093,-1.4673,-1.465,-1.4469,-1.4012,-1.353,-1.3302,-1.3291,-1.2829,-1.2383,-1.2099,-1.1892,-1.146,0.0,0.0,0.0,0.0,0.0,0.0,0.0,0.0,0.0,0.0,0.0,-0.9007,0.0,-0.8435,0.0,-0.782,-0.7681,-0.751,-0.7294,-0.7205,-0.7122,-0.693,-0.7028,-0.7028,-0.6702,-0.6875,-0.6927,-0.6679,-0.6521,-0.6335,-0.6079,-0.5457,-0.4702,-0.3869,-0.3039,-0.228,-0.1631,-0.0845,0.0,0.0897,0.2053,0.3051,0.3632,0.4365,0.4988,0.5246,0.5817,0.6381,0.6681,0.7036,0.7496,0.7954,0.8197,0.8446,0.8989,0.9332,0.9952,1.0976,1.2028,1.3506,-1.1345,-1.1345,-1.1294,-1.1268,-1.1276,-1.1276,-1.1276,-1.1326,-1.1427,-1.1477,-1.1477,-1.1628,-1.1619,-1.1669,-1.1619,-1.1628,-1.1628,-1.1678,-1.1669,-1.1678,-1.1678,-1.1819,-1.2026,-1.2085,-1.2175,-1.2431,-1.2421,-1.2578,-1.2832,-1.2881,-1.3017,-1.3324,-1.3467,-1.3668,-1.3926,-1.4455,-1.4823,-1.5017,-1.4971,-1.4915,-1.4812,-1.4823,-1.4697,-1.4534,-1.4477,-1.443,-1.4269,-1.3651,-1.3257,-1.3247,-1.2614,-1.2202,-1.2152,-1.1914,-1.1665,0.0,-1.1079,0.0,0.0,0.0,0.0,0.0,0.0,0.0,0.0,-0.9368,-0.909,-0.881,-0.867,-0.849,-0.8153,-0.8051,-0.7862,-0.7685,-0.7589,-0.7535,-0.7481,-0.7519,-0.7448,-0.7164,-0.7386,-0.744,-0.7144,-0.712,-0.7025,-0.673,-0.6288,-0.5636,-0.4661,-0.3841,-0.313,-0.2454,-0.179,-0.0776,0.05,0.1446,0.2223,0.2843,0.3666,0.4405,0.4659,0.532,0.5987,0.6357,0.6822,0.7326,0.7949,0.8143,0.8461,0.8901,0.9207,0.9438,0.9946,1.1323,1.2871,-1.1643,-1.1369,-1.1369,-1.1247,-1.0981,-1.0972,-1.1124,-1.1276,-1.1318,-1.1326,-1.1318,-1.1377,-1.1377,-1.1368,-1.1377,-1.1377,-1.1377,-1.1368,-1.1427,-1.1528,-1.1528,-1.1628,-1.1769,-1.1778,-1.1868,-1.2026,-1.2126,-1.2224,-1.2421,-1.2627,-1.2822,-1.3017,-1.318,-1.3372,-1.3515,0.0,0.0,0.0,-1.4348,-1.4233,-1.4316,-1.4244,-1.415,-1.4114,-1.401,0.0,-1.3752,-1.3433,-1.3192,-1.304,-1.2646,0.0,0.0,0.0,0.0,0.0,0.0,0.0,0.0,0.0,0.0,0.0,-0.9435,-0.9209,-0.9283,-0.9004,-0.8778,-0.8732,-0.8685,-0.8591,-0.8294,-0.824,-0.8105,-0.7882,-0.7834,-0.778,-0.7685,-0.7824,-0.7866,-0.7691,-0.792,-0.787,-0.7494,-0.7439,-0.7306,-0.6933,-0.6544,-0.615,-0.5729,-0.4845,-0.4042,-0.34,-0.2345,-0.123,-0.0168,0.0671,0.134,0.2012,0.2796,0.3461,0.3849,0.4567,0.5171,0.5496,0.61,0.6707,0.709,0.7515,0.7943,0.8315,0.8745,0.9228,0.9824,1.049,1.1499,-1.1806,0.0,-1.1642,-1.1526,0.0,-1.1407,-1.1369,-1.1343,-1.115,-1.1065,-1.1124,-1.1124,-1.1124,-1.1124,-1.1124,-1.1124,-1.1124,-1.1116,-1.1116,-1.1217,-1.1226,-1.1276,-1.1418,-1.1427,-1.1477,-1.1628,-1.1678,-1.1828,-1.2026,-1.2126,-1.2332,-1.2529,-1.2647,-1.2793,-1.2842,-1.2997,-1.3382,-1.3988,-1.381,-1.3705,-1.38,-1.3658,-1.3621,-1.361,0.0,0.0,0.0,0.0,0.0,0.0,0.0,0.0,0.0,0.0,0.0,-1.0959,-1.0711,-1.0462,-1.0221,-0.9881,-0.9707,-0.9733,-0.9438,-0.922,-0.9195,-0.9047,-0.8955,-0.8955,-0.8905,-0.8806,-0.865,-0.86,-0.845,-0.825,-0.8206,-0.8106,-0.7961,-0.8069,-0.8061,-0.7918,-0.8022,-0.8055,-0.767,-0.7515,-0.7413,-0.7155,-0.6766,-0.6436,-0.6164,-0.534,-0.446,-0.363,-0.2796,-0.1846,-0.0896,-0.0168,0.0504,0.1231,0.1959,0.2573,0.3074,0.3796,0.4401,0.4842,0.5445,0.5996,0.6386,0.6923,0.7408,0.7729,0.8215,0.8745,0.9211,0.9732,1.039,-1.2004,-1.189,-1.1955,-1.1906,-1.1848,-1.1857,-1.1677,-1.1428,0.0,0.0,0.0,-1.0913,-1.0913,-1.0913,-1.0913,-1.0913,-1.0913,-1.0913,-1.0913,-1.0913,-1.0913,-1.0972,-1.1074,-1.1074,-1.1124,-1.1276,-1.1276,-1.1368,-1.1628,-1.1669,-1.1778,-1.2017,-1.2175,-1.2234,-1.2274,-1.2382,-1.2715,-1.3324,-1.3286,-1.3276,-1.3276,-1.317,-1.3074,-1.3074,-1.29,-1.2813,-1.2813,-1.2676,-1.2501,-1.2355,-1.2098,-1.1904,-1.1799,-1.1504,-1.1276,-1.1124,-1.0769,-1.0522,-1.0308,-0.9991,-0.9784,-0.9695,-0.948,-0.9316,-0.9211,-0.9204,-0.9204,-0.9204,-0.9106,-0.9008,-0.9015,-0.891,-0.8798,-0.8633,-0.8533,-0.8421,-0.8321,-0.8268,-0.8203,-0.8062,-0.8109,-0.8062,-0.7729,-0.7568,-0.7461,-0.7257,-0.6928,-0.6593,-0.6218,-0.5449,-0.457,-0.3688,-0.3079,-0.2408,-0.1623,-0.0896,-0.0224,0.0617,0.1232,0.1847,0.2408,0.3019,0.3627,0.4236,0.4787,0.5281,0.5782,0.6327,0.6815,0.7079,0.7676,0.8162,0.8468,0.9054,0.9607,-1.2286,-1.2006,-1.2006,-1.1831,-1.1551,-1.1551,-1.1527,-1.1479,-1.1055,-1.0922,-1.0913,-1.0913,-1.0913,-1.0913,-1.0913,-1.0913,-1.0913,-1.0913,-1.0913,0.0,-1.0913,-1.0922,-1.0922,-1.0922,-1.0972,-1.1124,-1.1124,-1.1217,-1.1377,-1.1477,-1.1628,-1.1728,-1.1877,-1.2026,-1.2135,-1.2126,-1.2224,-1.2314,-1.2618,-1.2871,-1.2978,-1.2725,-1.2618,-1.2569,-1.2372,-1.2175,-1.2067,-1.2026,-1.1959,-1.1832,-1.156,-1.1385,-1.1361,-1.104,-1.0667,-1.0352,-1.0205,-0.994,-0.9621,-0.9524,-0.9361,-0.9113,-0.9054,-0.9106,-0.9152,-0.9204,-0.9204,-0.9204,-0.9159,-0.9106,-0.9008,-0.8956,-0.8903,-0.8752,-0.8752,-0.8699,-0.8646,-0.858,-0.8421,-0.8268,-0.8268,-0.8008,-0.7628,-0.7622,-0.7515,-0.7192,-0.6928,-0.6608,-0.5896,-0.523,-0.468,-0.4021,-0.3411,-0.2796,-0.2014,-0.14,-0.0729,0.0,0.0617,0.1232,0.1847,0.2464,0.3021,0.3627,0.4239,0.4736,0.5124,0.5832,0.6268,0.6539,0.7187,0.7777,0.7984,0.8415,0.889,-1.2219,-1.2071,-1.2071,-1.1978,-1.1814,-1.162,-1.1484,-1.1437,-1.1138,-1.0977,-1.0967,-1.0959,-1.0853,-1.0675,-1.0675,-1.0675,-1.0667,-1.0667,-1.0667,-1.0675,-1.0667,-1.0667,-1.0675,-1.0667,-1.0718,-1.0777,-1.0777,-1.0828,-1.0981,-1.1023,-1.1124,-1.1276,-1.1427,-1.1519,-1.1669,-1.1669,-1.1669,-1.1678,-1.2076,-1.2323,-1.248,-1.2274,-1.2234,-1.2283,-1.2076,-1.1927,-1.1769,-1.1719,-1.1569,-1.1283,-1.1108,-1.093,-1.0759,-1.0478,-1.0205,-0.9999,-0.9836,-0.9629,-0.9309,-0.9099,-0.889,-0.8791,-0.8745,-0.8685,-0.8791,-0.8896,-0.8956,-0.8896,-0.889,-0.8837,-0.8692,-0.8692,-0.8639,-0.8487,-0.8487,-0.8434,-0.8334,-0.8268,-0.8162,-0.8049,-0.7943,-0.7788,-0.7521,-0.7521,-0.7473,-0.7203,-0.6928,-0.6386,-0.5791,-0.5289,-0.4794,-0.419,-0.3691,-0.3135,-0.2408,-0.1849,-0.1176,-0.0336,0.0112,0.0673,0.1345,0.1961,0.2462,0.3072,0.3683,0.4128,0.4519,0.5175,0.5719,0.61,0.6707,0.7241,0.7557,0.7925,0.8355,-1.2294,-1.2287,-1.2203,-1.2189,-1.2104,-1.1775,-1.1653,-1.1638,-1.1335,-1.1218,-1.1131,-1.1044,-1.0855,-1.0611,-1.0525,-1.0478,-1.047,-1.0399,-1.0368,-1.0419,-1.0368,-1.0368,-1.0411,-1.036,-1.0411,-1.036,-1.036,-1.047,-1.0514,-1.0565,-1.0667,-1.082,-1.0922,-1.1065,-1.1175,-1.1226,-1.1226,-1.1226,-1.1528,-1.1778,-1.1927,-1.1778,-1.1778,-1.1877,-1.1719,-1.1628,-1.1528,-1.1427,-1.1217,-1.0905,-1.071,-1.0522,-1.0244,-1.0007,-0.9792,-0.9636,-0.9465,-0.9256,-0.9054,-0.8732,-0.8573,-0.8573,-0.8474,-0.8368,-0.8421,-0.8593,-0.8692,-0.8573,-0.858,-0.8527,-0.8421,-0.8421,-0.8374,-0.8268,-0.8275,-0.8215,-0.8062,-0.7961,-0.7848,-0.7783,-0.767,-0.7622,-0.7467,-0.7365,-0.7203,-0.7036,-0.6657,-0.6168,-0.5791,-0.5348,-0.4853,-0.4304,-0.386,-0.336,-0.2633,-0.2128,-0.1512,-0.0672,-0.028,0.028,0.0953,0.1456,0.1958,0.2627,0.3128,0.363,0.4079,0.4684,0.523,0.5614,0.6268,0.6869,0.7295,0.7557,0.7984,-1.2892,-1.2854,-1.2565,-1.234,-1.2088,-1.2035,-1.2027,-1.2004,-1.2035,-1.1775,-1.1424,-1.1157,-1.1005,-1.0936,-1.0638,-1.0509,-1.0486,-1.0196,-1.0066,-1.0066,-1.0051,-1.0051,-1.0051,-1.0051,-1.0051,-1.0051,-1.0051,-1.011,-1.011,-1.0265,-1.0411,-1.0522,-1.0675,-1.0726,-1.0769,-1.0871,-1.0922,-1.0922,-1.0964,-1.1124,-1.1377,-1.1217,-1.1175,-1.1167,-1.1074,-1.0972,-1.0972,-1.0964,-1.0879,-1.0699,-1.0581,-1.0375,-1.0029,-0.9695,-0.9368,-0.9113,-0.8844,-0.8626,-0.8474,-0.8421,-0.8368,-0.8421,-0.8368,-0.8368,-0.8368,-0.8374,-0.8427,-0.8368,-0.8421,-0.8421,-0.8368,-0.8368,-0.8374,-0.8315,-0.8321,-0.8368,-0.8262,-0.8055,-0.7901,-0.7901,-0.7622,-0.7461,-0.7311,-0.7198,-0.6928,-0.6603,-0.6277,-0.595,-0.5622,-0.5234,-0.4739,-0.4301,-0.386,-0.336,-0.2802,-0.2296,-0.168,-0.0953,-0.0561,-0.0056,0.0617,0.1122,0.157,0.2183,0.2627,0.3183,0.3796,0.4353,0.4736,0.5289,0.5887,0.6485,0.709,0.7413,0.7735,-1.2729,-1.2714,-1.258,-1.2446,-1.2334,-1.2327,-1.2216,-1.2037,-1.2037,-1.1781,-1.1424,-1.1216,-1.1137,-1.1016,-1.0752,-1.0692,-1.0621,-1.0383,-1.0206,-1.0089,-1.0074,-0.997,-0.9792,-0.9844,-0.9903,-0.9903,-0.9947,-1.0007,-0.9999,-1.011,-1.0213,-1.036,-1.0419,-1.047,-1.047,-1.0522,-1.0462,-1.036,-1.036,-1.0411,-1.0557,-1.082,-1.0972,-1.0871,-1.0828,-1.0726,-1.0573,-1.0419,-1.0257,-1.0051,-0.9888,-0.9732,-0.9539,-0.9271,-0.9061,-0.885,-0.8427,-0.8103,-0.799,-0.7889,-0.7889,-0.7895,-0.7889,-0.7836,-0.7889,-0.7889,-0.7889,-0.7889,-0.8115,-0.8215,-0.8109,-0.8109,-0.8109,-0.8109,-0.8049,-0.799,-0.799,-0.7783,-0.7628,-0.7526,-0.7473,-0.7311,-0.7095,-0.6928,-0.6712,-0.6332,-0.6059,-0.5727,-0.5458,-0.5073,-0.4632,-0.4249,-0.3863,-0.3413,-0.291,-0.2406,-0.1847,-0.1233,-0.0841,-0.0393,0.0449,0.0785,0.1178,0.1852,0.224,0.2738,0.3352,0.391,0.4408,0.4959,0.5732,0.6386,0.6869,0.7036,0.7306,-1.2789,-1.2775,-1.2701,-1.2599,-1.2526,-1.2458,-1.2253,-1.2043,-1.2036,-1.1775,-1.1496,-1.1411,-1.125,-1.1138,-1.0887,-1.0741,-1.0726,-1.053,-1.0307,-1.014,-1.0125,-0.9951,-0.9676,-0.9708,-0.9716,-0.965,-0.974,-0.9792,-0.9844,-0.9888,-0.9947,-1.0102,-1.0162,-1.0162,-1.0162,-1.0162,-1.011,-0.9955,-0.9955,-0.9947,-0.994,-1.03,-1.0506,-1.0514,-1.0514,-1.0411,-1.0169,-1.0007,-0.9792,-0.9517,-0.9413,-0.9204,-0.9001,-0.8896,-0.8745,-0.848,-0.8055,-0.7783,-0.7676,-0.7568,-0.7521,-0.7521,-0.7521,-0.7521,-0.7521,-0.7521,-0.7521,-0.7521,-0.7788,-0.7949,-0.7848,-0.7788,-0.7788,-0.7788,-0.7676,-0.7622,-0.7568,-0.7467,-0.7306,-0.7149,-0.7095,-0.6933,-0.6717,-0.6549,-0.6381,-0.6119,-0.5841,-0.5559,-0.5238,-0.4853,-0.4522,-0.4135,-0.3749,-0.3357,-0.2907,-0.2406,-0.1849,-0.1345,-0.0954,-0.0505,0.0393,0.0561,0.0898,0.1626,0.1961,0.2406,0.3077,0.3633,0.419,0.4849,0.5508,0.6168,0.6495,0.6657,0.6874,-1.3455,-1.3397,-1.3111,-1.2826,-1.2465,-1.2344,-1.218,-1.2158,-1.2016,-1.1866,-1.1776,-1.1612,-1.1472,-1.1374,-1.0842,-1.0583,-1.0601,-1.0303,-1.0105,-1.005,-1.0057,-0.9946,-0.9721,-0.9707,-0.9566,-0.9355,-0.9365,-0.9389,-0.9465,-0.9569,-0.9614,-0.9614,-0.974,-0.9799,-0.9851,-0.9947,-0.9947,-0.9792,-0.9792,-0.974,-0.9621,-0.9673,-0.9777,-0.9991,-1.0051,-0.9947,-0.9844,-0.9799,-0.9636,-0.9211,-0.9159,-0.8949,-0.8527,-0.8427,-0.8209,-0.783,-0.7723,-0.7622,-0.7515,-0.7461,-0.7467,-0.7467,-0.7467,-0.7467,-0.7408,-0.7408,-0.7413,-0.7461,-0.7461,-0.7515,-0.7521,-0.7521,-0.7521,-0.7521,-0.7419,-0.7317,-0.7317,-0.709,-0.6874,-0.6761,-0.6598,-0.6381,-0.6114,-0.6055,-0.5946,-0.5791,-0.5517,-0.5183,-0.4959,-0.4625,-0.4294,-0.391,-0.358,-0.3246,-0.2747,-0.2352,-0.1793,-0.1289,-0.0897,-0.0505,0.0,0.0505,0.0954,0.1402,0.1792,0.2238,0.291,0.3522,0.4132,0.4739,0.5238,0.5786,0.6168,0.6332,0.6544,-1.3193,-1.3112,-1.2998,-1.2877,-1.2792,-1.2707,-1.2516,-1.2347,-1.2263,-1.1943,-1.1635,-1.1445,-1.133,-1.104,-1.0653,-1.0504,-1.0588,-1.0219,-0.9958,-0.98,-0.9781,-0.963,-0.9431,-0.9519,-0.9579,-0.9513,-0.9494,-0.9454,-0.9278,-0.9309,-0.9368,-0.9361,-0.9368,-0.942,-0.9427,-0.9472,-0.9472,-0.9427,-0.9427,-0.9368,-0.9309,-0.9263,-0.9271,-0.9375,-0.9427,-0.9427,-0.9271,-0.9106,-0.8942,-0.8837,-0.8633,-0.848,-0.8268,-0.8002,-0.7676,-0.7348,-0.7246,-0.7144,-0.7031,-0.6977,-0.6977,-0.6977,-0.6977,-0.7031,-0.6977,-0.6977,-0.6977,-0.6972,-0.6977,-0.6977,-0.7031,-0.73,-0.7467,-0.7365,-0.7252,-0.7144,-0.6987,-0.6771,-0.6549,-0.649,-0.6218,-0.5941,-0.5782,-0.5614,-0.5449,-0.5289,-0.5018,-0.4798,-0.4522,-0.4298,-0.4079,-0.3747,-0.3411,-0.3077,-0.2633,-0.224,-0.1847,-0.1345,-0.0898,-0.0449,0.0,0.0336,0.0785,0.129,0.1625,0.2127,0.2796,0.3466,0.4076,0.468,0.5234,0.5513,0.585,0.6119,0.6386,-1.3212,-1.298,-1.2973,-1.2836,-1.268,-1.268,-1.2483,-1.2298,-1.222,-1.1891,-1.1506,-1.1331,-1.1146,-1.0823,-1.0449,-1.0305,-1.0366,-1.0142,-0.9882,-0.9718,-0.9705,-0.9566,-0.9392,-0.9525,-0.9532,-0.9485,-0.9593,-0.9501,-0.924,-0.9305,-0.9256,-0.9166,-0.9166,-0.9113,-0.9113,-0.9061,-0.9061,-0.9001,-0.8995,-0.8995,-0.8949,-0.8844,-0.8798,-0.8738,-0.8798,-0.8791,-0.8791,-0.8633,-0.8415,-0.8309,-0.8156,-0.8002,-0.7901,-0.7574,-0.7252,-0.709,-0.6928,-0.6825,-0.6707,-0.6707,-0.6707,-0.6707,-0.6707,-0.6707,-0.6707,-0.6707,-0.6707,-0.6707,-0.6707,-0.6707,-0.6707,-0.6923,-0.7144,-0.709,-0.6977,-0.6815,-0.6663,-0.644,-0.6218,-0.6,-0.5723,-0.5449,-0.5344,-0.5179,-0.5011,-0.4791,-0.4632,-0.4415,-0.4135,-0.3968,-0.3747,-0.3469,-0.319,-0.2912,-0.2577,-0.2184,-0.1792,-0.1345,-0.0897,-0.0449,-0.0056,0.0224,0.0617,0.1122,0.1626,0.2071,0.2685,0.3411,0.4076,0.468,0.5011,0.5289,0.5622,0.59,0.6173,-1.3466,-1.2988,-1.2968,-1.275,-1.2398,-1.2168,-1.2035,-1.2009,-1.1781,-1.1675,-1.15,-1.1184,-1.1006,-1.0814,-1.0307,-1.0043,-1.0018,-0.9964,-0.9918,-0.9926,-0.9926,-0.9781,-0.9524,-0.9511,-0.944,-0.9277,-0.9453,-0.9405,-0.9203,-0.9398,-0.9323,-0.9024,-0.8944,-0.8884,-0.8811,-0.8745,-0.8685,-0.8626,-0.8573,-0.8521,-0.8427,-0.8421,-0.8321,-0.8215,-0.8062,-0.8055,-0.8374,-0.8368,-0.815,-0.7777,-0.767,-0.7568,-0.7311,-0.7139,-0.7036,-0.6874,-0.6879,-0.682,-0.6707,-0.6652,-0.6652,-0.6652,-0.6707,-0.6652,-0.6652,-0.6652,-0.6652,-0.6652,-0.6598,-0.6598,-0.6436,-0.6436,-0.649,-0.6647,-0.6544,-0.6381,-0.6228,-0.6059,-0.5786,-0.5407,-0.5066,-0.4849,-0.4743,-0.4688,-0.4629,-0.446,-0.4301,-0.4082,-0.3855,-0.3691,-0.3469,-0.3188,-0.2968,-0.2745,-0.2408,-0.2073,-0.1737,-0.1345,-0.0897,-0.0505,-0.0112,0.0168,0.0561,0.1066,0.1625,0.2127,0.2852,0.3522,0.3965,0.4463,0.4736,0.5066,0.5403,0.5736,0.6014,-1.2903,-1.2667,-1.2661,-1.2616,-1.2454,-1.222,-1.2041,-1.1866,-1.1624,-1.1368,-1.1123,-1.0947,-1.0769,-1.0563,-1.0075,-0.989,-0.9862,-0.9541,-0.9434,-0.9567,-0.9622,-0.948,-0.9261,-0.934,-0.9333,-0.9169,-0.9186,-0.9104,-0.8945,-0.8959,-0.8821,-0.8601,-0.8496,-0.8384,-0.8221,-0.815,-0.8143,-0.8143,-0.8143,-0.809,-0.8037,-0.7937,-0.7889,-0.783,-0.7628,-0.7521,-0.7515,-0.7574,-0.7574,-0.7419,-0.7252,-0.709,-0.6869,-0.6707,-0.6598,-0.6549,-0.6445,-0.6391,-0.6337,-0.6337,-0.6386,-0.6386,-0.6391,-0.6337,-0.6337,-0.6337,-0.6332,-0.6273,-0.6218,-0.6164,-0.6009,-0.6009,-0.6064,-0.6159,-0.6105,-0.5946,-0.5782,-0.5563,-0.5175,-0.4849,-0.468,-0.4515,-0.4298,-0.4242,-0.4187,-0.4018,-0.3858,-0.3694,-0.3524,-0.3355,-0.3135,-0.2856,-0.2689,-0.2523,-0.2186,-0.1906,-0.1569,-0.1233,-0.0841,-0.0505,-0.0168,0.0224,0.0617,0.1121,0.168,0.2294,0.2963,0.3522,0.391,0.4298,0.4629,0.4963,0.5297,0.5631,0.5905,-1.2563,-1.2314,-1.2308,-1.2166,-1.2006,-1.184,-1.1665,-1.1449,-1.1359,-1.1025,-1.0727,-1.0537,-1.0427,-1.0225,-0.9803,-0.9627,-0.9611,-0.9233,-0.9122,-0.9189,-0.9286,-0.9131,-0.8969,-0.8986,-0.8948,-0.8937,-0.897,-0.8836,-0.8537,-0.8639,-0.8516,-0.8184,-0.8143,-0.8016,-0.7729,-0.7701,-0.7666,-0.7634,-0.7616,-0.761,-0.7557,-0.7509,-0.7456,-0.7354,-0.7257,-0.7095,-0.6972,-0.6982,-0.6987,-0.7041,-0.6874,-0.6657,-0.649,-0.6327,-0.6218,-0.6168,-0.6119,-0.6069,-0.6069,-0.6069,-0.6069,-0.6069,-0.6069,-0.6069,-0.6069,-0.6064,-0.6009,-0.595,-0.595,-0.59,-0.5736,-0.5686,-0.5681,-0.5618,-0.5727,-0.5618,-0.5399,-0.5014,-0.4684,-0.4353,-0.4242,-0.4073,-0.3855,-0.3799,-0.3688,-0.3574,-0.3466,-0.3304,-0.319,-0.3023,-0.28,-0.2633,-0.2465,-0.2186,-0.1909,-0.1628,-0.1403,-0.1066,-0.0729,-0.0449,-0.0168,0.028,0.0729,0.14,0.2015,0.2406,0.3077,0.3463,0.3852,0.4187,0.4577,0.4908,0.5238,0.5576,0.5905,-1.2385,-1.2016,-1.2005,-1.1711,-1.1283,-1.1277,-1.1098,-1.0891,-1.0816,-1.0702,-1.0391,-1.0053,-0.9891,-0.9766,-0.9468,-0.9301,-0.9261,-0.9008,-0.8796,-0.8748,-0.8862,-0.8857,-0.8675,-0.8573,-0.8472,-0.8473,-0.8598,-0.8526,-0.824,-0.8421,-0.8287,-0.7887,-0.7855,-0.7746,-0.751,-0.741,-0.7314,-0.7159,-0.7116,-0.7111,-0.7079,-0.7068,-0.6993,-0.6885,-0.682,-0.6766,-0.6647,-0.649,-0.649,-0.6598,-0.6436,-0.6282,-0.6173,-0.6059,-0.595,-0.585,-0.5791,-0.5845,-0.5791,-0.5845,-0.585,-0.5845,-0.5791,-0.5791,-0.5791,-0.5791,-0.574,-0.574,-0.5707,-0.5661,-0.555,-0.5361,-0.5254,-0.5167,-0.5325,-0.5238,-0.4897,-0.4463,-0.419,-0.3968,-0.3855,-0.3688,-0.3413,-0.3355,-0.3244,-0.3132,-0.3074,-0.2965,-0.28,-0.2689,-0.2521,-0.2354,-0.2188,-0.1906,-0.1628,-0.1515,-0.1234,-0.0954,-0.0617,-0.0336,-0.0056,0.0393,0.0897,0.1569,0.2183,0.2575,0.3021,0.3355,0.3744,0.4132,0.4463,0.4849,0.5183,0.5462,0.5845,-1.1632,-1.1492,-1.1492,-1.1368,-1.1229,-1.1144,-1.0868,-1.0653,-1.031,-1.0058,-0.9846,-0.9514,-0.9399,-0.9385,-0.91,-0.8932,-0.8816,-0.8622,-0.8435,-0.8273,-0.8285,-0.8325,-0.8197,-0.8146,-0.8035,-0.7986,-0.8023,-0.792,-0.7718,-0.7901,-0.778,-0.7567,-0.7619,-0.7572,-0.7323,-0.7175,-0.7091,-0.7036,-0.6915,-0.6817,-0.669,-0.6675,-0.6582,-0.6386,-0.6287,-0.6237,-0.6168,-0.6064,-0.6005,-0.6164,-0.6009,-0.5959,-0.5914,-0.5922,-0.5881,-0.583,-0.5813,-0.5804,-0.5804,-0.5808,-0.5745,-0.5677,-0.5661,-0.5563,-0.5445,-0.5449,-0.5399,-0.5313,-0.5286,-0.5258,-0.5109,-0.5016,-0.4893,-0.4765,-0.4784,-0.4653,-0.4258,-0.3962,-0.3799,-0.3577,-0.3418,-0.3258,-0.3095,-0.2927,-0.2876,-0.2817,-0.2763,-0.2651,-0.2556,-0.2439,-0.2279,-0.2085,-0.1855,-0.1629,-0.1403,-0.129,-0.1066,-0.0785,-0.0449,-0.0168,0.0168,0.0617,0.1066,0.157,0.2073,0.2519,0.291,0.3244,0.3633,0.4024,0.4408,0.4739,0.5014,0.5293,0.5732,-1.0895,-1.0895,-1.0809,-1.0722,-1.0727,-1.0641,-1.0393,-1.0123,-0.9937,-0.9625,-0.9428,-0.9072,-0.8958,-0.8944,-0.8617,-0.8449,-0.8354,-0.8184,-0.7919,-0.7758,-0.7662,-0.7688,-0.7821,-0.7851,-0.7737,-0.7646,-0.7633,-0.7514,-0.7421,-0.746,-0.7349,-0.7255,-0.7286,-0.7177,-0.6984,-0.6904,-0.6796,-0.6736,-0.6607,-0.6483,-0.6321,-0.6312,-0.6205,-0.6041,-0.5971,-0.5914,-0.5918,-0.5804,-0.5797,-0.5857,-0.5865,-0.5802,-0.5811,-0.5831,-0.5861,-0.5865,-0.5865,-0.5813,-0.5747,-0.5747,-0.5629,-0.5575,-0.5518,-0.5457,-0.5346,-0.5277,-0.5163,-0.5132,-0.5034,-0.4893,-0.4796,-0.4626,-0.4418,-0.4209,-0.4157,-0.407,-0.3842,-0.3735,-0.3498,-0.3266,-0.3089,-0.2913,-0.2737,-0.2623,-0.2568,-0.2576,-0.2527,-0.2464,-0.2347,-0.2217,-0.2093,-0.1854,-0.1724,-0.1553,-0.1316,-0.1141,-0.0852,-0.0567,-0.0171,0.017,0.0509,0.0903,0.1289,0.1738,0.2073,0.2464,0.2854,0.3244,0.3635,0.4024,0.4353,0.4629,0.4901,0.5289,0.5673,-1.0207,-1.0202,-1.0038,-0.9956,-0.9951,-0.9864,-0.9772,-0.951,-0.941,-0.9318,-0.9104,-0.8717,-0.8568,-0.8475,-0.8187,-0.7903,-0.7875,-0.7793,-0.7605,-0.7373,-0.7227,-0.7283,-0.7605,-0.7505,-0.7402,-0.7347,-0.741,-0.7227,-0.7078,-0.7095,-0.7,-0.6862,-0.6885,-0.6785,-0.6646,-0.6552,-0.6461,-0.6371,-0.6305,-0.6214,-0.6038,-0.6021,-0.5932,-0.5763,-0.5696,-0.5644,-0.5592,-0.5536,-0.5549,-0.5708,-0.5734,-0.5752,-0.5723,-0.5807,-0.5796,-0.5787,-0.5771,-0.5719,-0.5619,-0.5588,-0.5491,-0.5419,-0.537,-0.5343,-0.5242,-0.5097,-0.4913,-0.485,-0.4796,-0.4642,-0.4488,-0.4238,-0.3942,-0.3758,-0.3606,-0.3599,-0.3658,-0.3522,-0.3204,-0.2954,-0.2889,-0.2646,-0.2526,-0.2344,-0.2337,-0.2345,-0.2293,-0.2292,-0.217,-0.2107,-0.1931,-0.1696,-0.1559,-0.1481,-0.1233,-0.0987,-0.0636,-0.0288,0.0174,0.0579,0.0979,0.1317,0.1636,0.1961,0.2184,0.2575,0.2965,0.3355,0.3641,0.4024,0.4356,0.4625,0.4901,0.5344,0.5732,-0.9519,-0.9519,-0.9432,-0.9432,-0.9432,-0.9257,-0.9091,-0.9007,-0.8644,-0.8564,-0.8368,-0.8162,-0.8055,-0.8055,-0.7906,-0.7853,-0.7639,-0.762,-0.7545,-0.7301,-0.7137,-0.7134,-0.7203,-0.7134,-0.699,-0.6904,-0.6795,-0.6699,-0.6552,-0.6634,-0.6599,-0.6559,-0.6501,-0.6465,-0.6437,-0.6339,-0.6278,-0.6234,-0.6096,-0.5886,-0.5786,-0.5704,-0.5658,-0.551,-0.5362,-0.5168,-0.5039,-0.4975,-0.5001,-0.5083,-0.5269,-0.5491,-0.5483,-0.5521,-0.5559,-0.5563,-0.5548,-0.5479,-0.5468,-0.543,-0.5343,-0.5186,-0.5078,-0.4914,-0.4789,-0.4684,-0.4494,-0.4384,-0.427,-0.4171,-0.3978,-0.3753,-0.3607,-0.3468,-0.3277,-0.315,-0.3207,-0.3105,-0.2983,-0.2785,-0.2539,-0.2344,-0.2225,-0.2172,-0.2109,-0.2099,-0.2102,-0.2099,-0.2043,-0.1927,-0.1748,-0.1572,-0.1424,-0.1285,-0.1033,-0.072,-0.0356,0.0,0.0474,0.095,0.1358,0.1576,0.1845,0.2044,0.224,0.2639,0.3062,0.3375,0.3722,0.4042,0.4356,0.4629,0.4956,0.5399,0.5732,-0.8984,-0.898,-0.889,-0.8804,-0.8804,-0.8713,-0.8579,-0.852,-0.8236,-0.8101,-0.804,-0.7856,-0.768,-0.768,-0.7584,-0.7439,-0.7368,-0.7289,-0.7222,-0.7119,-0.6987,-0.6909,-0.6873,-0.6821,-0.6666,-0.6684,-0.6734,-0.6645,-0.6503,-0.6474,-0.6481,-0.6375,-0.6291,-0.6293,-0.625,-0.6133,-0.6079,-0.6071,-0.5954,-0.5778,-0.5575,-0.5492,-0.5342,-0.5142,-0.4994,-0.4931,-0.4814,-0.4814,-0.481,-0.4868,-0.4994,-0.515,-0.5296,-0.5335,-0.5438,-0.5501,-0.5501,-0.5501,-0.5505,-0.5441,-0.5322,-0.5108,-0.4931,-0.4807,-0.4614,-0.4483,-0.4232,-0.4051,-0.3908,-0.3708,-0.3485,-0.3222,-0.3159,-0.3092,-0.2956,-0.2822,-0.2872,-0.2808,-0.2759,-0.2572,-0.2454,-0.2322,-0.2187,-0.2041,-0.2052,-0.2131,-0.2005,-0.1939,-0.1944,-0.182,-0.1621,-0.1424,-0.1211,-0.1072,-0.0818,-0.0498,0.0,0.0366,0.0791,0.1217,0.1637,0.1856,0.2008,0.2222,0.2439,0.2774,0.314,0.3452,0.375,0.4045,0.4307,0.4632,0.5014,0.5407,0.5686,-0.8516,-0.852,-0.8333,-0.834,-0.8247,-0.8232,-0.8158,-0.8059,-0.8051,-0.7876,-0.783,-0.7542,-0.7457,-0.7418,-0.7231,-0.7139,-0.7105,-0.7037,-0.7052,-0.7028,-0.6891,-0.6829,-0.6781,-0.6661,-0.6694,-0.6865,-0.6791,-0.6619,-0.6539,-0.6481,-0.6364,-0.6255,-0.6113,-0.604,-0.6,-0.5913,-0.5843,-0.5758,-0.5755,-0.5586,-0.5348,-0.5276,-0.5067,-0.4797,-0.4659,-0.459,-0.4587,-0.4527,-0.461,-0.4631,-0.4631,-0.4766,-0.4915,-0.5209,-0.5362,-0.5474,-0.5384,-0.537,-0.5298,-0.5325,-0.5196,-0.502,-0.4818,-0.4616,-0.4475,-0.4265,-0.3995,-0.3806,-0.3551,-0.3215,-0.2958,-0.2757,-0.2621,-0.2554,-0.2552,-0.2552,-0.2552,-0.2552,-0.2404,-0.2407,-0.219,-0.205,-0.2059,-0.1989,-0.2074,-0.2085,-0.1951,-0.1816,-0.1748,-0.1612,-0.1398,-0.1195,-0.0982,-0.0716,-0.0454,0.0,0.0445,0.0758,0.1133,0.1508,0.1947,0.2135,0.2304,0.2446,0.2669,0.2951,0.3225,0.3559,0.3793,0.4041,0.4406,0.4829,0.5143,0.5428,0.5644,-0.8337,-0.8337,-0.8337,-0.834,-0.8247,-0.8063,-0.7966,-0.7934,-0.7747,-0.7567,-0.7528,-0.7423,-0.7355,-0.7187,-0.7143,-0.7143,-0.7136,-0.7092,-0.7088,-0.7068,-0.6953,-0.6892,-0.6861,-0.6736,-0.6726,-0.6644,-0.6579,-0.6426,-0.6353,-0.6173,-0.619,-0.604,-0.5913,-0.584,-0.5834,-0.5799,-0.5633,-0.5487,-0.5473,-0.5297,-0.5026,-0.487,-0.4724,-0.4386,-0.425,-0.4102,-0.4028,-0.3959,-0.3959,-0.3959,-0.3959,-0.401,-0.4127,-0.4547,-0.4827,-0.4894,-0.496,-0.4957,-0.496,-0.4897,-0.4827,-0.4694,-0.4498,-0.4298,-0.4097,-0.383,-0.356,-0.3293,-0.3025,-0.2757,-0.249,-0.2354,-0.222,-0.2084,-0.195,-0.1882,-0.1882,-0.1882,-0.195,-0.2085,-0.1884,-0.1748,-0.1748,-0.1748,-0.1748,-0.1748,-0.1614,-0.1479,-0.1412,-0.1277,-0.1074,-0.0872,-0.0738,-0.0402,-0.0134,0.0466,0.0991,0.125,0.1574,0.1902,0.23,0.2515,0.2694,0.281,0.2941,0.3094,0.3378,0.3727,0.3988,0.4274,0.4697,0.5056,0.5331,0.5648,0.5763,-0.8111,-0.8111,-0.8111,-0.8111,-0.8111,-0.8014,-0.7873,-0.7808,-0.7706,-0.7624,-0.7522,-0.7485,-0.7455,-0.737,-0.7282,-0.7221,-0.7163,-0.7139,-0.7139,-0.7115,-0.7068,-0.7037,-0.693,-0.6885,-0.6834,-0.6676,-0.6515,-0.6358,-0.6366,-0.6224,-0.6156,-0.6112,-0.5919,-0.5772,-0.5672,-0.5538,-0.5418,-0.5277,-0.5197,-0.5029,-0.4688,-0.4544,-0.4245,-0.3988,-0.3835,-0.3675,-0.3496,-0.3493,-0.3493,-0.3493,-0.3491,-0.3491,-0.3629,-0.3766,-0.41,-0.4303,-0.4364,-0.4425,-0.4495,-0.4428,-0.4361,-0.4295,-0.403,-0.3832,-0.3627,-0.336,-0.3092,-0.2757,-0.2624,-0.2287,-0.2018,-0.1951,-0.1816,-0.1748,-0.1614,-0.1614,-0.1547,-0.148,-0.1614,-0.1749,-0.1682,-0.1547,-0.1479,-0.1479,-0.1412,-0.1344,-0.1277,-0.1143,-0.1008,-0.0807,-0.0673,-0.0471,-0.0269,0.0067,0.0337,0.0807,0.1344,0.1614,0.1883,0.2287,0.2555,0.2751,0.2935,0.315,0.3228,0.331,0.3602,0.3963,0.4241,0.4571,0.4924,0.5281,0.5561,0.5748,0.5927,-0.8038,-0.8038,-0.8038,-0.8038,-0.8038,-0.8038,-0.7967,-0.7872,-0.7858,-0.7773,-0.7651,-0.7638,-0.7624,-0.757,-0.7472,-0.7353,-0.7231,-0.7221,-0.7111,-0.7104,-0.7058,-0.7044,-0.6926,-0.687,-0.6708,-0.6685,-0.647,-0.6338,-0.6357,-0.6215,-0.6155,-0.6025,-0.5841,-0.5692,-0.567,-0.5464,-0.524,-0.5125,-0.505,-0.4826,-0.4439,-0.4068,-0.375,-0.3534,-0.3453,-0.335,-0.317,-0.3166,-0.3164,-0.3162,-0.3158,-0.315,-0.3147,-0.3145,-0.3279,-0.3612,-0.3787,-0.3894,-0.3959,-0.3959,-0.3828,-0.3758,-0.356,-0.3362,-0.3094,-0.2891,-0.2621,-0.222,-0.2085,-0.1951,-0.1681,-0.1547,-0.1547,-0.1479,-0.1479,-0.148,-0.1412,-0.1279,-0.1212,-0.1279,-0.1346,-0.1279,-0.1144,-0.1076,-0.101,-0.0942,-0.0875,-0.0673,-0.0539,-0.0337,-0.0135,0.0067,0.0269,0.0605,0.0942,0.1144,0.1547,0.1884,0.2151,0.2488,0.269,0.2889,0.3139,0.339,0.3524,0.3612,0.3913,0.421,0.451,0.4845,0.5195,0.5448,0.5685,0.598,0.6171,-0.8038,-0.8038,-0.8038,-0.8038,-0.8038,-0.8038,-0.8031,-0.8007,-0.8001,-0.7926,-0.7787,-0.778,-0.7719,-0.7628,-0.7597,-0.756,-0.7495,-0.7309,-0.7161,-0.6969,-0.6873,-0.6723,-0.6526,-0.6511,-0.6474,-0.6455,-0.627,-0.6317,-0.6188,-0.5969,-0.5891,-0.586,-0.5764,-0.5613,-0.5526,-0.5316,-0.5143,-0.4905,-0.4659,-0.4318,-0.3885,-0.3582,-0.3356,-0.3194,-0.3042,-0.2885,-0.2863,-0.2785,-0.2863,-0.287,-0.2877,-0.2956,-0.2887,-0.2741,-0.2669,-0.2848,-0.3055,-0.3293,-0.3311,-0.3394,-0.3326,-0.326,-0.3107,-0.296,-0.2755,-0.2488,-0.2151,-0.1748,-0.1681,-0.1614,-0.1412,-0.1344,-0.1277,-0.121,-0.121,-0.121,-0.1143,-0.1145,-0.101,-0.0809,-0.0876,-0.0876,-0.0809,-0.0674,-0.0539,-0.0539,-0.0472,-0.0269,-0.0067,0.0135,0.0471,0.0673,0.0807,0.1144,0.1412,0.1614,0.1816,0.2153,0.2421,0.2688,0.2822,0.3023,0.3357,0.3551,0.3627,0.3894,0.4185,0.4498,0.4779,0.5062,0.5414,0.5631,0.5872,0.6096,0.6437,-0.8038,-0.8038,-0.8038,-0.8038,-0.8038,-0.8038,-0.8038,-0.8038,-0.8038,-0.8004,-0.795,-0.794,-0.7858,-0.7647,-0.7531,-0.7478,-0.7315,-0.7156,-0.7034,-0.6821,-0.6718,-0.6638,-0.6529,-0.6471,-0.6343,-0.6151,-0.6031,-0.5815,-0.5781,-0.5892,-0.5943,-0.5843,-0.558,-0.5351,-0.5263,-0.4964,-0.4753,-0.4481,-0.4236,-0.3912,-0.3579,-0.3262,-0.2943,-0.2756,-0.253,-0.2439,-0.227,-0.2186,-0.2187,-0.226,-0.226,-0.226,-0.2187,-0.2113,-0.2112,-0.2107,-0.2216,-0.2469,-0.2819,-0.2956,-0.2947,-0.2938,-0.2776,-0.2602,-0.23,-0.2022,-0.1753,-0.1479,-0.1412,-0.1347,-0.1213,-0.121,-0.1143,-0.1144,-0.1085,-0.1015,-0.0948,-0.0876,-0.0809,-0.0607,-0.0406,-0.0408,-0.0341,-0.0204,-0.0136,-0.0067,0.0067,0.0269,0.0471,0.074,0.1076,0.1412,0.1547,0.1681,0.1884,0.2085,0.2218,0.2488,0.269,0.2889,0.2958,0.3159,0.3426,0.3625,0.3761,0.4028,0.4361,0.4622,0.4872,0.519,0.5636,0.5853,0.6069,0.6475,0.6755,-0.7839,-0.7839,-0.7939,-0.8038,-0.8038,-0.8038,-0.8038,-0.8038,-0.8038,-0.7942,-0.7842,-0.7829,-0.777,-0.7599,-0.7472,-0.7333,-0.7232,-0.7003,-0.6798,-0.6658,-0.6485,-0.6308,-0.6165,-0.6088,-0.5936,-0.5816,-0.5622,-0.5432,-0.5481,-0.5472,-0.554,-0.5661,-0.521,-0.5078,-0.4887,-0.4522,-0.4236,-0.4034,-0.3686,-0.3361,-0.3122,-0.2815,-0.2557,-0.2303,-0.2133,-0.1968,-0.1791,-0.1788,-0.1789,-0.179,-0.1868,-0.1872,-0.187,-0.1723,-0.1647,-0.1646,-0.1636,-0.1708,-0.2066,-0.2346,-0.263,-0.2536,-0.2445,-0.211,-0.1872,-0.1579,-0.1443,-0.1314,-0.1313,-0.1241,-0.1168,-0.1102,-0.1106,-0.1108,-0.1037,-0.0964,-0.0825,-0.069,-0.0555,-0.0349,-0.014,0.0139,0.0209,0.0277,0.0343,0.0406,0.0539,0.0742,0.1013,0.1353,0.1618,0.1957,0.2087,0.2154,0.2285,0.2488,0.2621,0.2822,0.3023,0.3157,0.3291,0.336,0.356,0.3694,0.3828,0.4092,0.4428,0.4694,0.4897,0.5279,0.5665,0.6005,0.633,0.6745,0.7046,-0.7235,-0.7338,-0.7739,-0.7939,-0.7939,-0.8038,-0.7939,-0.7939,-0.7939,-0.7842,-0.7643,-0.7437,-0.7329,-0.7214,-0.7201,-0.7096,-0.7189,-0.7082,-0.6654,-0.631,-0.6138,-0.5858,-0.5614,-0.546,-0.5297,-0.5228,-0.5039,-0.5029,-0.501,-0.4809,-0.4826,-0.4849,-0.4744,-0.4536,-0.4345,-0.407,-0.3695,-0.3404,-0.3039,-0.2849,-0.2608,-0.237,-0.2126,-0.1963,-0.1882,-0.188,-0.1876,-0.1787,-0.1705,-0.1704,-0.1624,-0.1702,-0.1543,-0.139,-0.1312,-0.1235,-0.1159,-0.1157,-0.1306,-0.1652,-0.176,-0.1825,-0.1747,-0.174,-0.1504,-0.1442,-0.1374,-0.1222,-0.1214,-0.122,-0.1152,-0.1158,-0.1145,-0.107,-0.0994,-0.0853,-0.0712,-0.0429,-0.0287,-0.0072,0.0216,0.0499,0.0712,0.0851,0.0844,0.0832,0.1172,0.138,0.1716,0.1989,0.2177,0.2372,0.2567,0.2627,0.2688,0.2822,0.309,0.3157,0.3291,0.3491,0.3625,0.3761,0.3694,0.3828,0.3961,0.4228,0.4492,0.4761,0.5027,0.5362,0.576,0.6086,0.6482,0.6876,0.7269,-0.7235,-0.7235,-0.7437,-0.754,-0.7537,-0.7537,-0.754,-0.754,-0.7537,-0.7441,-0.7341,-0.7141,-0.6942,-0.6842,-0.6542,-0.6442,-0.6437,-0.62,-0.6075,-0.594,-0.5674,-0.561,-0.5365,-0.5117,-0.4962,-0.473,-0.4505,-0.429,-0.4203,-0.4068,-0.3937,-0.3877,-0.3986,-0.4042,-0.3937,-0.3562,-0.3101,-0.2747,-0.2553,-0.2375,-0.2129,-0.1799,-0.1628,-0.1527,-0.1205,-0.1114,-0.1102,-0.11,-0.11,-0.1102,-0.1102,-0.1182,-0.118,-0.1022,-0.0944,-0.0865,-0.0786,-0.0707,-0.0786,-0.1155,-0.1292,-0.1121,-0.1268,-0.1337,-0.1249,-0.1242,-0.124,-0.1238,-0.117,-0.1101,-0.1168,-0.1166,-0.1162,-0.1092,-0.0949,-0.0732,-0.0514,-0.0295,0.0074,0.0295,0.0586,0.0942,0.116,0.138,0.1294,0.1281,0.1629,0.1973,0.2315,0.2518,0.2712,0.2904,0.3034,0.3211,0.3269,0.3385,0.3498,0.3567,0.3636,0.3768,0.3904,0.3825,0.3828,0.3961,0.4164,0.4361,0.4561,0.4827,0.509,0.5488,0.5822,0.6156,0.6548,0.7073,0.7335,-0.6736,-0.6736,-0.6736,-0.6936,-0.7138,-0.7235,-0.7235,-0.7238,-0.7141,-0.6939,-0.6839,-0.6542,-0.6442,-0.6339,-0.6139,-0.5842,-0.5739,-0.5632,-0.5434,-0.5309,-0.5172,-0.5143,-0.5007,-0.4758,-0.4405,-0.4294,-0.3959,-0.3731,-0.3637,-0.3381,-0.3266,-0.3148,-0.3194,-0.3254,-0.3317,-0.3011,-0.255,-0.2293,-0.2024,-0.1936,-0.1762,-0.1341,-0.1087,-0.1071,-0.0823,-0.0736,-0.0729,-0.0727,-0.0723,-0.0722,-0.0721,-0.0637,-0.0634,-0.0552,-0.0553,-0.0473,-0.0472,-0.0472,0.0,-0.0784,-0.0935,-0.0845,-0.0842,-0.0986,-0.0975,-0.0969,-0.0976,-0.0975,-0.0973,-0.1043,-0.1043,-0.0975,-0.0902,-0.0831,-0.0679,-0.0529,-0.0302,0.0,0.0302,0.0602,0.0973,0.1275,0.18,0.2028,0.199,0.1967,0.2231,0.2511,0.2868,0.3077,0.3218,0.3416,0.3615,0.3713,0.3875,0.3889,0.3894,0.3908,0.3968,0.3996,0.4053,0.3979,0.3966,0.4097,0.4298,0.4431,0.4631,0.4894,0.5223,0.555,0.5951,0.642,0.6811,0.7269,0.7466,-0.5634,-0.5636,-0.5636,-0.6237,-0.7036,-0.7138,-0.7138,-0.7039,-0.6839,-0.6539,-0.6142,-0.5837,-0.5636,-0.5634,-0.5536,-0.5336,-0.5138,-0.514,-0.4939,-0.4528,-0.452,-0.4323,-0.4098,-0.3953,-0.391,-0.3876,-0.3548,-0.3333,-0.3333,-0.2892,-0.2683,-0.248,-0.2357,-0.2327,-0.2505,-0.2283,-0.2086,-0.1993,-0.1535,-0.1358,-0.1272,-0.0935,-0.0763,-0.0674,-0.0589,-0.0503,-0.0499,-0.0498,-0.0495,-0.049,-0.0495,-0.0491,-0.0481,-0.0323,-0.0322,-0.0318,-0.0158,0.0,0.0,0.0,-0.0549,-0.0547,-0.0623,-0.0622,-0.0624,-0.0625,-0.0699,-0.077,-0.0698,-0.0701,-0.0625,-0.0625,-0.0622,-0.0543,-0.0465,-0.0309,0.0,0.0231,0.0615,0.092,0.1241,0.1566,0.2267,0.2719,0.2658,0.2759,0.286,0.3067,0.3377,0.3534,0.3763,0.3871,0.3998,0.4099,0.4207,0.4311,0.4306,0.4305,0.4255,0.4298,0.4322,0.423,0.4276,0.4317,0.4431,0.4561,0.4827,0.503,0.5422,0.5815,0.6412,0.6876,0.7138,0.74,0.7596,-0.5534,-0.5534,-0.5534,-0.5834,-0.6137,-0.6137,-0.6137,-0.6137,-0.6037,-0.5937,-0.5636,-0.5236,-0.5035,-0.4935,-0.4734,-0.4535,-0.4435,-0.4437,-0.4135,-0.3932,-0.3831,-0.3731,-0.3519,-0.3307,-0.3191,-0.3075,-0.2846,-0.272,-0.2622,-0.2381,-0.2079,-0.1879,-0.1572,-0.1455,-0.1619,-0.1601,-0.1509,-0.1241,-0.097,-0.0879,-0.0877,-0.0613,-0.0436,-0.0431,-0.0344,0.0,0.0,0.0,0.0,0.0,0.0,0.0,0.0,0.0,0.0,0.0,0.0,0.0,0.0,-0.0159,-0.0236,0.0,-0.0314,-0.0393,-0.0393,-0.055,-0.055,-0.055,-0.055,-0.055,-0.0628,-0.0628,-0.0548,-0.0391,-0.0235,0.0,0.0234,0.0547,0.0859,0.117,0.1492,0.1962,0.2589,0.3137,0.324,0.3377,0.3408,0.3565,0.3812,0.4047,0.4204,0.4285,0.4318,0.4421,0.4476,0.4575,0.4554,0.4552,0.4522,0.4583,0.4526,0.445,0.4431,0.4425,0.4557,0.4761,0.4979,0.5256,0.5763,0.6214,0.6613,0.6881,0.7073,0.7335,0.7666,-0.5035,-0.5035,-0.5138,-0.5135,-0.5135,-0.5434,-0.5534,-0.5334,-0.5334,-0.5233,-0.4933,-0.4634,-0.4533,-0.4433,-0.4234,-0.3833,-0.3732,-0.3732,-0.3429,-0.3226,-0.3126,-0.3026,-0.2927,-0.2725,-0.2717,-0.2513,-0.2298,-0.2081,-0.2079,-0.1848,-0.1536,-0.1235,-0.0941,-0.0925,-0.1094,-0.1082,-0.1075,-0.0805,-0.0713,-0.0625,-0.0536,-0.0447,-0.0267,-0.0177,0.0,0.0,0.0,0.0,0.0,0.0,0.0,0.0,0.0,0.0,0.0,0.0,0.0,0.0,0.0,0.0,0.0,0.0,0.0,-0.0236,-0.0236,-0.0314,-0.0314,-0.0314,-0.0314,-0.0236,-0.0236,-0.0236,-0.0157,0.0,0.0079,0.0315,0.0551,0.0866,0.1182,0.1497,0.1886,0.2434,0.2902,0.3372,0.3744,0.3906,0.3988,0.4153,0.4233,0.438,0.4525,0.4619,0.4654,0.4704,0.4755,0.4758,0.4798,0.473,0.4716,0.4713,0.4706,0.4626,0.4615,0.4602,0.4769,0.4992,0.5251,0.5557,0.5926,0.6296,0.6613,0.6876,0.6942,0.7335,0.7731,-0.4034,-0.4034,-0.4237,-0.4237,-0.4236,-0.5033,-0.5233,-0.4734,-0.4734,-0.4533,-0.4034,-0.4133,-0.4033,-0.4033,-0.3934,-0.3632,-0.3229,-0.3229,-0.2825,-0.2522,-0.2422,-0.2322,-0.2321,-0.2219,-0.2119,-0.2018,-0.1812,-0.1505,-0.151,-0.119,-0.0877,-0.0768,-0.0669,-0.0566,-0.0556,-0.0549,-0.0634,-0.054,-0.0449,-0.0359,-0.0359,-0.018,0.0,0.0,0.0,0.0,0.0,0.0,0.0,0.0,0.0,0.0,0.0,0.0,0.0,0.0,0.0,0.0,0.0,0.0,0.0,0.0,0.0,0.0,0.0,0.0,0.0,0.0157,0.0157,0.0314,0.0471,0.0471,0.0471,0.0551,0.0552,0.0711,0.0869,0.1185,0.158,0.1894,0.2358,0.2826,0.3294,0.3841,0.4164,0.4311,0.4387,0.4545,0.4623,0.4623,0.4774,0.4849,0.4902,0.4919,0.4974,0.4931,0.4909,0.4847,0.4836,0.4822,0.4741,0.4751,0.4664,0.4726,0.5003,0.5235,0.555,0.5777,0.6011,0.6394,0.673,0.6942,0.7134,0.7405,0.7731,-0.4034,-0.4034,-0.4135,-0.4034,-0.4034,-0.4334,-0.4332,-0.4234,-0.4234,-0.4133,-0.4034,-0.3835,-0.3633,-0.343,-0.3229,-0.2925,-0.2724,-0.2522,-0.2221,-0.2019,-0.1817,-0.1615,-0.1414,-0.1312,-0.1313,-0.1212,-0.1111,-0.101,-0.1009,-0.0601,-0.0496,-0.0489,-0.039,-0.0192,0.0,0.0,0.0,0.0,0.0,0.0,0.0,0.0,0.0,0.0,0.0,0.0,0.0,0.0,0.0,0.0,0.0,0.0,0.0,0.0,0.0,0.0,0.0,0.0,0.0,0.017,0.0253,0.0338,0.0416,0.0328,0.0323,0.0239,0.0317,0.0476,0.0556,0.0637,0.0717,0.0716,0.0795,0.0796,0.096,0.1127,0.1288,0.161,0.2012,0.241,0.2879,0.3247,0.3714,0.4095,0.4415,0.4555,0.4701,0.4781,0.4859,0.4859,0.4859,0.494,0.5018,0.5018,0.5018,0.4982,0.4982,0.4972,0.4947,0.4928,0.4893,0.4841,0.48,0.491,0.5173,0.5554,0.5905,0.6066,0.6207,0.655,0.6873,0.7061,0.733,0.754,0.7802,-0.3632,-0.3732,-0.3833,-0.3833,-0.3835,-0.3732,-0.3731,-0.3731,-0.3835,-0.3833,-0.3632,-0.343,-0.323,-0.3029,-0.2826,-0.2422,-0.2119,-0.2019,-0.1817,-0.1414,-0.1313,-0.1111,-0.0909,-0.0808,-0.0909,-0.0808,-0.0707,-0.0707,-0.0606,-0.0404,-0.03,-0.0199,0.0,0.0,0.0,0.0,0.0,0.0,0.0,0.0,0.0,0.0,0.0,0.0,0.0,0.0,0.0,0.0,0.0,0.0,0.0,0.0,0.0,0.0,0.0,0.0,0.0,0.0,0.0176,0.0349,0.0519,0.0517,0.06,0.0593,0.0585,0.0577,0.0654,0.0732,0.073,0.081,0.0809,0.0889,0.097,0.1051,0.1306,0.1565,0.1813,0.206,0.2551,0.2961,0.3345,0.3708,0.4084,0.4381,0.4587,0.4638,0.4779,0.4937,0.494,0.494,0.494,0.5018,0.5018,0.5018,0.5018,0.5018,0.501,0.5004,0.4999,0.4988,0.4999,0.4977,0.4988,0.5081,0.5327,0.5721,0.604,0.62,0.6363,0.6725,0.7074,0.7333,0.7517,0.7639,0.7892,-0.313,-0.323,-0.3433,-0.3534,-0.3534,-0.3331,-0.313,-0.313,-0.3331,-0.3433,-0.313,-0.2927,-0.2725,-0.2625,-0.2423,-0.2019,-0.1716,-0.1616,-0.1313,-0.0808,-0.0808,-0.0707,-0.0707,-0.0707,-0.0606,-0.0606,-0.0505,-0.0404,-0.0303,0.0,0.0,0.0,0.0,0.0,0.0,0.0,0.0,0.0,0.0,0.0,0.0,0.0,0.0,0.0,0.0,0.0,0.0,0.0,0.0,0.0,0.0,0.0,0.0,0.0,0.0,0.0,0.0,0.0357,0.0446,0.0622,0.0713,0.0798,0.0794,0.0873,0.0948,0.0842,0.0831,0.0912,0.0992,0.1074,0.1156,0.1238,0.1321,0.1574,0.1837,0.2019,0.2278,0.2611,0.3106,0.3515,0.3816,0.4106,0.441,0.4715,0.4834,0.4844,0.4888,0.5053,0.5021,0.5021,0.5018,0.5018,0.5018,0.5018,0.5018,0.5018,0.5018,0.5018,0.5018,0.5018,0.501,0.509,0.5171,0.5337,0.5572,0.5777,0.6098,0.6273,0.6542,0.6932,0.728,0.7578,0.7812,0.7927,0.8134,-0.2927,-0.2927,-0.323,-0.313,-0.3029,-0.2927,-0.2725,-0.2623,-0.2624,-0.2725,-0.2826,-0.2623,-0.2322,-0.2222,-0.1919,-0.1616,-0.1313,-0.1111,-0.0808,-0.0606,-0.0505,-0.0404,0.0,0.0,0.0,-0.0202,-0.0101,0.0,0.0,0.0,0.0,0.0,0.0,0.0,0.0,0.0,0.0,0.0,0.0,0.0,0.0,0.0,0.0,0.0,0.0,0.0,0.0,0.0,0.0,0.0,0.0,0.0,0.0,0.0,0.0269,0.0359,0.0539,0.0628,0.0718,0.0807,0.0987,0.1076,0.1071,0.1248,0.1233,0.1028,0.1013,0.1182,0.1267,0.1436,0.152,0.1604,0.1774,0.2039,0.2305,0.249,0.2675,0.318,0.3596,0.3912,0.4219,0.4529,0.4758,0.4969,0.5004,0.5044,0.5084,0.5132,0.5053,0.5026,0.5018,0.5018,0.5018,0.5018,0.5018,0.5018,0.5018,0.5018,0.5015,0.5018,0.5018,0.5249,0.5401,0.5628,0.5902,0.6096,0.6277,0.6435,0.6733,0.7131,0.7461,0.776,0.8209,0.8413,0.8539,-0.2623,-0.2624,-0.2826,-0.2725,-0.2624,-0.2624,-0.2522,-0.2422,-0.2119,-0.212,-0.2222,-0.212,-0.1918,-0.1718,-0.1415,-0.1111,-0.0909,-0.0707,-0.0505,-0.0303,0.0,-0.0101,0.0,0.0,0.0,0.0,0.0,0.0,0.0,0.0,0.0,0.0,0.0,0.0,0.0,0.0,0.0,0.0,0.0,0.0,0.0,0.0,0.0,0.0,0.0,0.0,0.0,0.0,0.0,0.0,0.0,0.0,0.0,0.0,0.0456,0.0545,0.0723,0.0897,0.0987,0.1077,0.1256,0.1346,0.1436,0.1521,0.161,0.1486,0.1485,0.1659,0.1746,0.1834,0.1921,0.2008,0.2182,0.245,0.2805,0.299,0.3436,0.3959,0.4212,0.4459,0.469,0.4923,0.5152,0.5194,0.5304,0.5205,0.5252,0.52,0.5121,0.505,0.5037,0.5023,0.5026,0.5021,0.5018,0.5018,0.5018,0.5018,0.5093,0.5171,0.5326,0.5479,0.5709,0.5941,0.617,0.6391,0.6572,0.6673,0.7052,0.7476,0.7721,0.7866,0.8346,0.8816,0.8896,-0.2321,-0.2422,-0.2422,-0.2422,-0.2321,-0.2321,-0.222,-0.2119,-0.1717,-0.1516,-0.1516,-0.1515,-0.1516,-0.1313,-0.101,-0.0707,-0.0505,-0.0404,-0.0202,0.0,0.0,0.0,0.0,0.0,0.0,0.0,0.0,0.0,0.0,0.0,0.0,0.0,0.0,0.0,0.0,0.0,0.0,0.0,0.0,0.0,0.0,0.0,0.0,0.0,0.0,0.0,0.0,0.0,0.0,0.0,0.0,0.0,0.0378,0.0561,0.0652,0.0833,0.1004,0.1088,0.1174,0.135,0.1438,0.1525,0.1705,0.1885,0.1974,0.2061,0.2058,0.2147,0.2237,0.2236,0.2325,0.2503,0.268,0.2946,0.3307,0.3576,0.4113,0.4561,0.4734,0.4994,0.5151,0.53,0.5359,0.5491,0.5419,0.5401,0.5325,0.526,0.5197,0.5135,0.5091,0.5061,0.504,0.5034,0.5021,0.5018,0.5018,0.5093,0.5168,0.5401,0.5556,0.5709,0.5864,0.618,0.6412,0.656,0.6791,0.6908,0.7379,0.7761,0.7899,0.8065,0.8641,0.9103,0.9246,-0.2019,-0.2422,-0.2422,-0.2221,-0.202,-0.1818,-0.1616,-0.1414,-0.1111,-0.0909,-0.0909,-0.0707,-0.0707,-0.0909,-0.0606,-0.0404,-0.0303,0.0,0.0,0.0,0.0,0.0,0.0,0.0,0.0,0.0,0.0,0.0,0.0,0.0,0.0,0.0,0.0,0.0,0.0,0.0,0.0,0.0,0.0,0.0,0.0,0.0,0.0,0.0,0.0,0.0,0.0,0.0,0.0,0.0,0.0193,0.0288,0.0574,0.0763,0.0949,0.1132,0.1303,0.1384,0.1469,0.164,0.1727,0.1803,0.1983,0.2249,0.2336,0.2599,0.2688,0.2777,0.2867,0.2688,0.2776,0.2955,0.3223,0.3578,0.3849,0.4293,0.4741,0.4919,0.5008,0.5186,0.5359,0.5437,0.5609,0.5571,0.5542,0.554,0.548,0.5415,0.5328,0.5243,0.5156,0.5124,0.5089,0.5037,0.5018,0.5096,0.5093,0.5168,0.5321,0.5553,0.5709,0.5783,0.6018,0.6335,0.649,0.6637,0.6872,0.7103,0.7484,0.7859,0.794,0.8273,0.8849,0.9319,0.9474]},{"header":{"parameterUnit":"m.s-1","parameterCategory":1,"la1":31.0,"la2":29.5877,"lo1":-88.7671,"lo2":-86.6584,"dy":0.0162,"dx":0.0185,"nx":115,"ny":88,"refTime":"2024-02-11T06:00:00:Z","depth":0,"parameterNumber":3,"parameterNumberName":"V-component_of_WINDS"},"data":[0.0,0.0,0.0,0.0,0.0,0.0,0.0,0.0,0.0,0.0,0.0,0.0,0.0,0.0,0.0,0.0,0.0,0.0,0.0,0.0,0.0,0.0,0.0,0.0,0.0,0.0,0.0,0.0,0.0,0.0,0.0,0.0,0.0,0.0,0.0,0.0,0.0,0.0,0.0,0.0,0.0,0.0,0.0,0.0,0.0,0.0,0.0,0.0,0.0,0.0,0.0,0.0,0.0,0.0,0.0,0.0,0.0,0.0,0.0,0.0,0.0,0.0,0.0,0.0,0.0,0.0,0.0,0.0,0.0,0.0,0.0,0.0,0.0,0.0,0.0,0.0,0.0,0.0,0.0,0.0,0.0,0.0,0.0,0.0,0.0,0.0,0.0,0.0,0.0,0.0,0.0,0.0,0.0,0.0,0.0,0.0,0.0,0.0,0.0,0.0,0.0,0.0,0.0,0.0,0.0,0.0,0.0,0.0,0.0,0.0,0.0,0.0,0.0,0.0,0.0,0.0,0.0,0.0,0.0,0.0,0.0,0.0,0.0,0.0,0.0,0.0,0.0,0.0,0.0,0.0,0.0,0.0,0.0,0.0,0.0,0.0,0.0,0.0,0.0,0.0,0.0,0.0,0.0,0.0,0.0,0.0,0.0,0.0,0.0,0.0,0.0,0.0,0.0,0.0,0.0,0.0,0.0,0.0,0.0,0.0,0.0,0.0,0.0,0.0,0.0,0.0,0.0,0.0,0.0,0.0,0.0,0.0,0.0,0.0,0.0,0.0,0.0,0.0,0.0,0.0,0.0,0.0,0.0,0.0,0.0,0.0,0.0,0.0,0.0,0.0,0.0,0.0,0.0,0.0,0.0,0.0,0.0,0.0,0.0,0.0,0.0,0.0,0.0,0.0,0.0,0.0,0.0,0.0,0.0,0.0,0.0,0.0,0.0,0.0,0.0,0.0,0.0,0.0,0.0,0.0,0.0,0.0,0.0,0.0,0.0,0.0,0.0,0.0,0.0,0.0,0.0,0.0,0.0,0.0,0.0,0.0,0.0,0.0,0.0,0.0,0.0,0.0,0.0,0.0,0.0,0.0,0.0,0.0,0.0,0.0,0.0,0.0,0.0,0.0,0.0,0.0,0.0,0.0,0.0,0.0,0.0,0.0,0.0,0.0,0.0,0.0,0.0,0.0,0.0,0.0,0.0,0.0,0.0,0.0,0.0,0.0,0.0,0.0,0.0,0.0,0.0,0.0,0.0,0.0,0.0,0.0,0.0,0.0,0.0,0.0,0.0,0.0,0.0,0.0,0.0,0.0,0.0,0.0,0.0,0.0,0.0,0.0,0.0,0.0,0.0,0.0,0.0,0.0,0.0,0.0,0.0,0.0,0.0,0.0,0.0,0.0,0.0,0.0,0.0,0.0,0.0,0.0,0.0,0.0,0.0,0.0,0.0,0.0,0.0,0.0,0.0,0.0,0.0,0.0,0.0,0.0,0.0,0.0,0.0,0.0,0.0,0.0,0.0,0.0,0.0,0.0,0.0,0.0,0.0,0.0,0.0,0.0,0.0,0.0,0.0,0.0,0.0,0.0,0.0,0.0,0.0,0.0,0.0,0.0,0.0,0.0,0.0,0.0,0.0,0.0,0.0,0.0,0.0,0.0,0.0,0.0,0.0,0.0,0.0,0.0,0.0,0.0,0.0,0.0,0.0,0.0,0.0,0.0,0.0,0.0,0.0,0.0,0.0,0.0,0.0,0.0,0.0,0.0,0.0,0.0,0.0,0.0,0.0,0.0,0.0,0.0,0.0,0.0,0.0,0.0,0.0,0.0,0.0,0.0,0.0,0.0,0.0,0.0,0.0,0.0,0.0,0.0,0.0,0.0,0.0,0.0,0.0,0.0,0.0,0.0,0.0,0.0,0.0,0.0,0.0,0.0,0.0,0.0,0.0,0.0,0.0,0.0,0.0,0.0,0.0,0.0,0.0,0.0,0.0,0.0,0.0,0.0,0.0,0.0,0.0,0.0,0.0,0.0,0.0,0.0,0.0,0.0,0.0,0.0,0.0,0.0,0.0,0.0,0.0,0.0,0.0,0.0,0.0,0.0,0.0,0.0,0.0,0.0,0.0,0.0,0.0,0.0,0.0,0.0,0.0,0.0,0.0,0.0,0.0,0.0,0.0,0.0,0.0,0.0,0.0,0.0,0.0,0.0,0.0,0.0,0.0,0.0,0.0,0.0,0.0,0.0,0.0,0.0,0.0,0.0,0.0,0.0,0.0,0.0,0.0,0.0,0.0,0.0,0.0,0.0,0.0,0.0,0.0,0.0,0.0,0.0,0.0,0.0,0.0,0.0,0.0,0.0,0.0,0.0,0.0,0.0,0.0,0.0,0.0,0.0,0.0,0.0,0.0,0.0,0.0,0.0,0.0,0.0,0.0,0.0,0.0,0.0,0.0,0.0,0.0,0.0,0.0,0.0,0.0,0.0,0.0,0.0,0.0,0.0,0.0,0.0,0.0,0.0,0.0,0.0,0.0,0.0,0.0,0.0,0.0,0.0,0.0,0.0,0.0,0.0,0.0,0.0,0.0,0.0,0.0,0.0,0.0,0.0,0.0,0.0,0.0,0.0,0.0,0.0,0.0,0.0,0.0,0.0,0.0,0.0,0.0,0.0,0.0,0.0,0.0,0.0,0.0,0.0,0.0,0.0,0.0,0.0,0.0,0.0,0.0,0.0,0.0,0.0,0.0,0.0,0.0,0.0,0.0,0.0,0.0,0.0,0.0,0.0,0.0,0.0,0.0,0.0,0.0,0.0,0.0,0.0,0.0,0.0,0.0,0.0,0.0,0.0,0.0,0.0,0.0,0.0,0.0,0.0,0.0,0.0,0.0,0.0,0.0,0.0,0.0,0.0,0.0,0.0,0.0,0.0,0.0,0.0,0.0,0.0,0.0,0.0,0.0,0.0,0.0,0.0,0.0,0.0,0.0,0.0,0.0,0.0,0.0,0.0,0.0,0.0,0.0,0.0,0.0,0.0,0.0,0.0,0.0,0.0,0.0,0.0,0.0,0.0,0.0,0.0,0.0,0.0,0.0,0.0,0.0,0.0,0.0,0.0,0.0,0.0,0.0,0.0,0.0,0.0,0.0,0.0,0.0,0.0,0.0,0.0,0.0,0.0,0.0,0.0,0.0,0.0,0.0,0.0,0.0,0.0,0.0,0.0,0.0,0.0,0.0,0.0,0.0,0.0,0.0,0.0,0.0,0.0,0.0,0.0,0.0,0.0,0.0,0.0,0.0,0.0,0.0,0.0,0.0,0.0,0.0,0.0,0.0,0.0,0.0,0.0,0.0,0.0,0.0,0.0,0.0,0.0,0.0,0.0,0.0,0.0,0.0,0.0,0.0,0.0,0.0,0.0,0.0,0.0,0.0,0.0,0.0,0.0,0.0,0.0,0.0,0.0,0.0,0.0,0.0,0.0,0.0,0.0,0.0,0.0,0.0,0.0,0.0,0.0,0.0,0.0,0.0,0.0,0.0,0.0,0.0,0.0,0.0,0.0,0.0,0.0,0.0,0.0,0.0,0.0,0.0,0.0,0.0,0.0,0.0,0.0,0.0,0.0,0.0,0.0,0.0,0.0,0.0,0.0,0.0,0.0,0.0,0.0,0.0,0.0,0.0,0.0,0.0,0.0,0.0,0.0,0.0,0.0,0.0,0.0,0.0,0.0,0.0,0.0,0.0,0.0,0.0,0.0,0.0,0.0,0.0,0.0,0.0,0.0,0.0,0.0,0.0,0.0,0.0,0.0,0.0,0.0,0.0,0.0,0.0,0.0,0.0,0.0,0.0,0.0,0.0,0.0,0.0,0.0,0.0,0.0,0.0,0.0,0.0,0.0,0.0,0.0,0.0,0.0,0.0,0.0,0.0,0.0,0.0,0.0,0.0,0.0,0.0,0.0,0.0,0.0,0.0,0.0,0.0,0.0,0.0,0.0,0.0,0.0,0.0,0.0,0.0,0.0,0.0,0.0,0.0,0.0,0.0,0.0,0.0,0.0,0.0,0.0,0.0,0.0,0.0,0.0,0.0,0.0,0.0,0.0,0.0,0.0,0.0,0.0,0.0,0.0,0.0,0.0,0.0,0.0,0.0,0.0,0.0,0.0,0.0,0.0,0.0,0.0,0.0,0.0,0.0,0.0,0.0,0.0,0.0,0.0,0.0,0.0,0.0,0.0,0.0,0.0,0.0,0.0,0.0,0.0,0.0,0.0,0.0,0.0,0.0,0.0,0.1179,0.0,0.0,0.0,0.0,0.0,0.0,0.0,0.0,0.0,0.0,0.0,0.0,0.0,0.0,0.0,0.0,0.0,0.0,0.0,0.0,0.0,0.0,0.0,0.0,0.0,0.0,0.0,0.0,0.0,0.0,0.0,0.0,0.0,0.0,0.0,0.0,0.0,0.0,0.0,0.0,0.0,0.0,0.0,0.0,0.0,0.0,0.0,0.0,0.0,0.0,0.0,0.0,0.0,0.0,0.0,0.0,0.0,0.0,0.0,0.0,0.0,0.0,0.0,0.0,0.0,0.0,0.0,0.0,0.0,0.0,0.0,0.0,0.0,0.0,0.0,0.0,0.0,0.0,0.0,0.0,0.0,0.0,0.0,0.0,0.0,0.0,0.0,0.0,0.0,0.0,0.0,0.0,0.0,0.0,0.0,0.0,0.0,0.0,0.0,0.0,0.0,0.0,0.0,0.0,0.0,0.0,0.0,0.0,0.0,0.0,0.0437,0.0606,0.0841,0.1078,0.1246,0.0,0.0,0.0,0.0,0.0,0.0,0.0,0.0,0.0,0.0,0.0,0.0,0.0,0.0,0.0,0.0,0.0,0.0,0.0,0.0,0.0,0.0,0.0,0.0,0.0,0.0,0.0,0.0,0.0,0.0,0.0,0.0,0.0,0.0,0.0,0.0,0.0,0.0,0.0,0.0,0.0,0.0,0.0,0.0,0.0,0.0,0.0,0.0,0.0,0.0,0.0,0.0,0.0,0.0,0.0,0.0,0.0,0.0,0.0,0.0,0.0,0.0,0.0,0.0,0.0,0.0,0.0,0.0,0.0,0.0,0.0,0.0,0.0,0.0,0.0,0.0,0.0,0.0,0.0,0.0,0.0,0.0,0.0,0.0,0.0,0.0,0.0,0.0,0.0,0.0,0.0,0.0,0.0,0.0,0.0,0.0,0.0,0.0,0.0,0.0,0.0,0.0,0.0,0.0,0.0,0.0,0.0,0.0,0.0,0.0,0.0,0.0,0.0908,0.1143,0.1414,0.0,0.0,0.0,0.0,0.0,0.0,0.0,0.0,0.0,0.0,0.0,0.0,0.0,0.0,0.0,0.0,0.0,0.0,0.0,0.0,0.0,0.0,0.0,0.0,0.0,0.0,0.0,0.0,0.0,0.0,0.0,0.0,0.0,0.0,0.0,0.0,0.0,0.0,0.0,0.0,0.0,0.0,0.0,0.0,0.0,0.0,0.0,0.0,0.0,0.0,0.0,0.0,0.0,0.0,0.0,0.0,0.0,0.0,0.0,0.0,0.0,0.0,0.0,0.0,0.0,0.0,0.0,0.0,0.0,0.0,0.0,0.0,0.0,0.0,0.0,0.0,0.0,0.0,0.0,0.0,0.0,0.0,0.0,0.0,0.0,0.0,0.0,0.0,0.0,0.0,0.0,0.0,0.0,0.0,0.0,0.0,0.0,0.0,0.0,0.0,0.0,0.0,0.0,0.0,0.0,0.0,0.0,0.0,0.0,0.0,0.074,0.0875,0.1111,0.0,0.1814,0.0,0.0,0.0,0.0,0.0,0.0,0.0,0.0,0.0,0.0,0.0,0.0,0.0,0.0,0.0,0.0,0.0,0.0,0.0,0.0,0.0,0.0,0.0,0.0,0.0,0.0,0.0,0.0,0.0,0.0,0.0,0.0,0.0,0.0,0.0,0.0,0.0,0.0,0.0,0.0,0.0,0.0,0.0,0.0,0.0,0.0,0.0,0.0,0.0,0.0,0.0,0.0,0.0,0.0,0.0,0.0,0.0,0.0,0.0,0.0,0.0,0.0,0.0,0.0,0.0,0.0,0.0,0.0,0.0,0.0,0.0,0.0,0.0,0.0,0.0,0.0,0.0,0.0,0.0,0.0,0.0,0.0,0.0,0.0,0.0,0.0,0.0,0.0,0.0,0.0,0.0,0.0,0.0,0.0,0.0,0.0,0.0,0.0,0.0,0.0,0.0,0.0,0.0,0.0,0.0,0.0,0.0,0.0,0.0,0.0,0.0808,0.101,0.131,0.1611,0.0,0.0,0.0,0.0,0.0,0.0,0.0,0.0,0.0,0.0,0.0,0.0,0.0,0.0,0.0,0.0,0.0,0.0,0.0,0.0,0.0,0.0,0.0,0.0,0.0,0.0,0.0,0.0,0.0,0.0,0.0,0.0,0.0,0.0,0.0,0.0,0.0,0.0,0.0,0.0,0.0,0.0,0.0,0.0,0.0,0.0,0.0,0.0,0.0,0.0,0.0,0.0,0.0,0.0,0.0,0.0,0.0,0.0,0.0,0.0,0.0,0.0,0.0,0.0,0.0,0.0,0.0,0.0,0.0,0.0,0.0,0.0,0.0,0.0,0.0,0.0,0.0,0.0,0.0,0.0,0.0,0.0,0.0,0.0,0.0,0.0,0.0,0.0,0.0,0.0,0.0,0.0,0.0,0.0,0.0,0.0,0.0,0.0,0.0,0.0,0.0,0.0,0.0,0.0,0.0,0.0,0.0,0.0,0.0,0.0,0.074,0.0943,0.1212,0.151,0.1742,0.1878,0.0,0.0,0.0,0.0,0.0,0.0,0.0,0.0,0.0,0.0,0.0,0.0,0.0,0.0,0.0,0.0,0.0,0.0,0.0,0.0,0.0,0.0,0.0,0.0,0.0,0.0,0.0,0.0,0.0,0.0,0.0,0.0,0.0,0.0,0.0,0.0,0.0,0.0,0.0,0.0,0.0,0.0,0.0,0.0,0.0,0.0,0.0,0.0,0.0,0.0,0.0,0.0,0.0,0.0,0.0,0.0,0.0,0.0,0.0,0.0,0.0,0.0,0.0,0.0,0.0,0.0,0.0,0.0,0.0,0.0,0.0,0.0,0.0,0.0,0.0,0.0,0.0,0.0,0.0,0.0,0.0,0.0,0.0,0.0,0.0,0.0,0.0,0.0,0.0,0.0,0.0,0.0,0.0,0.0,0.0,0.0,0.0,0.0,0.0,0.0,0.0,0.0,0.0,0.0,0.0,0.0,0.0,0.0,0.0774,0.0977,0.1214,0.1483,0.1747,0.1878,0.0,0.0,0.0,0.0,0.0,0.0,0.0,0.0,0.0,0.0,0.0,0.0,0.0,0.0,0.0,0.0,0.0,0.0,0.0,0.0,0.0,0.0,0.0,0.0,0.0,0.0,0.0,0.0,0.0,0.0,0.0,0.0,0.0,0.0,0.0,0.0,0.0,0.0,0.0,0.0,0.0,0.0,0.0,0.0,0.0,0.0,0.0,0.0,0.0,0.0,0.0,0.0,0.0,0.0,0.0,0.0,0.0,0.0,0.0,0.0,0.0,0.0,0.0,0.0,0.0,0.0,0.0,0.0,0.0,0.0,0.0,0.0,0.0,0.0,0.0,0.0,0.0,0.0,0.0,0.0,0.0,0.0,0.0,0.0,0.0,0.0,0.0,0.0,0.0,0.0,0.0,0.0,0.0,0.0,0.0,0.0,0.0,0.0,0.0,0.0,0.0,0.0,0.0,0.0,0.0,0.0,0.0,0.0,0.0,0.101,0.1214,0.1447,0.1613,0.1814,0.1945,0.0,0.0,0.0,0.0,0.0,0.0,0.0,0.0,0.0,0.0,0.0,0.0,0.0,0.0,0.0,0.0,0.0,0.0,0.0,0.0,0.0,0.0,0.0,0.0,0.0,0.0,0.0,0.0,0.0,0.0,0.0,0.0,0.0,0.0,0.0,0.0,0.0,0.0,0.0,0.0,0.0,0.0,0.0,0.0,0.0,0.0,0.0,0.0,0.0,0.0,0.0,0.0,0.0,0.0,0.0,0.0,0.0,0.0,0.0,0.0,0.0,0.0,0.0,0.0,0.0,0.0,0.0,0.0,0.0,0.0,0.0,0.0,0.0,0.0,0.0,0.0,0.0,0.0,0.0,0.0,0.0,0.0,0.0,0.0,0.0,0.0,0.0,0.0,0.0,0.0,0.0,0.0,0.0,0.0,0.0,0.0,0.0,0.0,0.0,0.0,0.0,0.0,0.0,0.0,0.0,0.0,0.0,0.0,0.0,0.1247,0.0,0.1613,0.1709,0.1878,0.2014,0.0,0.0,0.0,0.0,0.0,0.0,0.0,0.0,0.0,0.0,0.0,0.0,0.0,0.0,0.0,0.0,0.0,0.0,0.0,0.0,0.0,0.0,0.0,0.0,0.0,0.0,0.0,0.0,0.0,0.0,0.0,0.0,0.0,0.0,0.0,0.0,0.0,0.0,0.0,0.0,0.0,0.0,0.0,0.0,0.0,0.0,0.0,0.0,0.0,0.0,0.0,0.0,0.0,0.0,0.0,0.0,0.0,0.0,0.0,0.0,0.0,0.0,0.0,0.0,0.0,0.0,0.0,0.0,0.0,0.0,0.0,0.0,0.0,0.0,0.0,0.0,0.0,0.0,0.0,0.0,0.0,0.0,0.0,0.0,0.0,0.0,0.0,0.0,0.0,0.0,0.0,0.0,0.0,0.0,0.0,0.0,0.0,0.0,0.0,0.0,0.0,0.0,0.0,0.0,0.0,0.0,0.0,0.0,0.1315,0.1516,0.1644,0.1709,0.1709,0.1945,0.2114,0.0,0.0,0.0,0.0,0.0,0.0,0.0,0.0,0.0,0.0,0.0,0.0,0.0,0.0,0.0,0.0,0.0,0.0,0.0,0.0,0.0,0.0,0.0,0.0,0.0,0.0,0.0,0.0,0.0,0.0,0.0,0.0,0.0,0.0,0.0,0.0,0.0,0.0,0.0,0.0,0.0,0.0,0.0,0.0,0.0,0.0,0.0,0.0,0.0,0.0,0.0,0.0,0.0,0.0,0.0,0.0,0.0,0.0,0.0,0.0,0.0,0.0,0.0,0.0,0.0,0.0,0.0,0.0,0.0,0.0,0.0,0.0,0.0,0.0,0.0,0.0,0.0,0.0,0.0,0.0,0.0,0.0,0.0,0.0,0.0,0.0,0.0,0.0,0.0,0.0,0.0,0.0,0.0,0.0,0.0,0.0,0.0,0.0,0.0,0.0,0.0,0.0,0.0,0.0,0.0,0.0,0.0,0.0,0.0,0.1782,0.1814,0.1878,0.1978,0.2047,0.2183,0.0,0.0,0.0,0.0,0.0,0.0,0.0,0.0,0.0,0.0,0.0,0.0,0.0,0.0,0.0,0.0,0.0,0.0,0.0,0.0,0.0,0.0,0.0,0.0,0.0,0.0,0.0,0.0,0.0,0.0,0.0,0.0,0.0,0.0,0.0,0.0,0.0,0.0,0.0,0.0,0.0,0.0,0.0,0.0,0.0,0.0,0.0,0.0,0.0,0.0,0.0,0.0,0.0,0.0,0.0,0.0,0.0,0.0,0.0,0.0,0.0,0.0,0.0,0.0,0.0,0.0,0.0,0.0,0.0,0.0,0.0,0.0,0.0,0.0,0.0,0.0,0.0,0.0,0.0,0.0,0.0,0.0,0.0,0.0,0.0,0.0,0.0,0.0,0.0,0.0,0.0,0.0,0.0,0.0,0.0,0.0,0.0,0.0,0.0,0.0,0.0,0.0,0.0,0.0,0.0,0.0,0.0,0.0,0.0,0.2384,0.22,0.2176,0.2247,0.2236,0.2371,0.2655,0.0,0.0,0.0,0.0,0.0,0.0,0.0,0.0,0.0,0.0,0.0,0.0,0.0,0.0,0.0,0.0,0.0,0.0,0.0,0.0,0.0,0.0,0.0,0.0,0.0,0.0,0.0,0.0,0.0,0.0,0.0,0.0,0.0,0.0,0.0,0.0,0.0,0.0,0.0,0.0,0.0,0.0,0.0,0.0,0.0,0.0,0.0,0.0,0.0,0.0,0.0,0.0,0.0,0.0,0.0,0.0,0.0,0.0,0.0,0.0,0.0,0.0,0.0,0.0,0.0,0.0,0.0,0.0,0.0,0.0,0.0,0.0,0.0,0.0,0.0,0.0,0.0,0.0,0.0,0.0,0.0,0.0,0.0,0.0,0.0,0.0,0.0,0.0,0.0,0.0,0.0,0.0,0.0,0.0,0.0,0.0,0.0,0.0,0.0,0.0,0.0,0.0,0.0,0.0,0.0,0.0,0.0,0.0,0.3236,0.2806,0.2591,0.2546,0.2528,0.2655,0.0,0.0,0.0,0.0,0.0,0.0,0.0,0.0,0.0,0.0,0.0,0.0,0.0,0.0,0.0,0.0,0.0,0.0,0.0,0.0,0.0,0.0,0.0,0.0,0.0,0.0,0.0,0.0,0.0,0.0,0.0,0.0,0.0,0.0,0.0,0.0,0.0,0.0,0.0,0.0,0.0,0.0,0.0,0.0,0.0,0.0,0.0,0.0,0.0,0.0,0.0,0.0,0.0,0.0,0.0,0.0,0.0,0.0,0.0,0.0,0.0,0.0,0.0,0.0,0.0,0.0,0.0,0.0,0.0,0.0,0.0,0.0,0.0,0.0,0.0,0.0,0.0,0.0,0.0,0.0,0.0,0.0,0.0,0.0,0.0,0.0,0.0,0.0,0.0,0.0,0.0,0.0,0.0,0.0,0.0,0.0,0.0,0.0,0.0,0.0,0.0,0.0,0.0,0.0,0.0,0.0,0.0,0.0,0.0,0.3625,0.3664,0.3484,0.3107,0.2989,0.3071,0.0,0.0,0.0,0.0,0.0,0.0,0.0,0.0,0.0,0.0,0.0,0.0,0.0,0.0,0.0,0.0,0.0,0.0,0.0,0.0,0.0,0.0,0.0,0.0,0.0,0.0,0.0,0.0,0.0,0.0,0.0,0.0,0.0,0.0,0.0,0.0,0.0,0.0,0.0,0.0,0.0,0.0,0.0,0.0,0.0,0.0,0.0,0.0,0.0,0.0,0.0,0.0,0.0,0.0,0.0,0.0,0.0,0.0,0.0,0.0,0.0,0.0,0.0,0.0,0.0,0.0,0.0,0.0,0.0,0.0,0.0,0.0,0.0,0.0,0.0,0.0,0.0,0.0,0.0,0.0,0.0,0.0,0.0,0.0,0.0,0.0,0.0,0.0,0.0,0.0,0.0,0.0,0.0,0.0,0.0,0.0,0.0,0.0,0.0,0.0,0.0,0.0,0.0,0.0,0.0,0.0,0.0,0.0,0.3934,0.4211,0.4315,0.4277,0.4012,0.3605,0.3508,0.0,0.0,0.0,0.0,0.0,0.0,0.0,0.0,0.0,0.0,0.0,0.0,0.0,0.0,0.0,0.0,0.0,0.0,0.0,0.0,0.0,0.0,0.0,0.0,0.0,0.0,0.0,0.0,0.0,0.0,0.0,0.0,0.0,0.0,0.0,0.0,0.0,0.0,0.0,0.0,0.0,0.0,0.0,0.0,0.0,0.0,0.0,0.0,0.0,0.0,0.0,0.0,0.0,0.0,0.0,0.0,0.0,0.0,0.0,0.0,0.0,0.0,0.0,0.0,0.0,0.0,0.0,0.0,0.0,0.0,0.0,0.0,0.0,0.0,0.0,0.0,0.0,0.0,0.0,0.0,0.0,0.0,0.0,0.0,0.0,0.0,0.0,0.0,0.0,0.0,0.0,0.0,0.0,0.0,0.0,0.0,0.0,0.0,0.0,0.0,0.0,0.0,0.0,0.0,0.0,0.0,0.0,0.0,0.4466,0.4884,0.4888,0.4937,0.5019,0.4315,0.3953,0.0,0.0,0.0,0.0,0.0,0.0,0.0,0.0,0.0,0.0,0.0,0.0,0.0,0.0,0.0,0.0,0.0,0.0,0.0,0.0,0.0,0.0,0.0,0.0,0.0,0.0,0.0,0.0,0.0,0.0,0.0,0.0,0.0,0.0,0.0,0.0,0.0,0.0,0.0,0.0,0.0,0.0,0.0,0.0,0.0,0.0,0.0,0.0,0.0,0.0,0.0,0.0,0.0,0.0,0.0,0.0,0.0,0.0,0.0,0.0,0.0,0.0,0.0,0.0,0.0,0.0,0.0,0.0,0.0,0.0,0.0,0.0,0.0,0.0,0.0,0.0,0.0,0.0,0.0,0.0,0.0,0.0,0.0,0.0,0.0,0.0,0.0,0.0,0.0,0.0,0.0,0.0,0.0,0.0,0.0,0.0,0.0,0.0,0.0,0.0,0.0,0.0,0.0,0.0,0.0,0.0,0.0,0.0,0.5054,0.5356,0.5453,0.555,0.555,0.4859,0.4478,0.0,0.0,0.0,0.0,0.0,0.0,0.0,0.0,0.0,0.0,0.0,0.0,0.0,0.0,0.0,0.0,0.0,0.0,0.0,0.0,0.0,0.0,0.0,0.0,0.0,0.0,0.0,0.0,0.0,0.0,0.0,0.0,0.0,0.0,0.0,0.0,0.0,0.0,0.0,0.0,0.0,0.0,0.0,0.0,0.0,0.0,0.0,0.0,-1.2715,0.0,0.0,0.0,0.0,0.0,0.0,0.0,0.0,0.0,0.0,0.0,0.0,0.0,0.0,0.0,0.0,0.0,0.0,0.0,0.0,0.0,0.0,0.0,0.0,0.0,0.0,0.0,0.0,0.0,0.0,0.0,0.0,0.0,0.0,0.0,0.0,0.0,0.0,0.0,0.0,0.0,0.0,0.0,0.0,0.0,0.0,0.0,0.0,0.0,0.0,0.0,0.0,0.0,0.0,0.0,0.0,0.0,0.0,0.0,0.5629,0.583,0.589,0.5976,0.6019,0.5677,0.5319,0.0,0.0,0.0,0.0,0.0,0.0,0.0,0.0,0.0,0.0,0.0,0.0,0.0,0.0,0.0,0.0,0.0,0.0,0.0,0.0,0.0,0.0,0.0,0.0,0.0,0.0,0.0,0.0,0.0,0.0,0.0,0.0,0.0,0.0,0.0,0.0,0.0,0.0,0.0,0.0,0.0,0.0,0.0,0.0,0.0,0.0,0.0,0.0,0.0,0.0,0.0,0.0,0.0,0.0,0.0,0.0,0.0,0.0,0.0,0.0,0.0,0.0,0.0,0.0,0.0,0.0,0.0,0.0,0.0,0.0,0.0,0.0,0.0,0.0,0.0,0.0,0.0,0.0,0.0,0.0,0.0,0.0,0.0,0.0,0.0,0.0,0.0,0.0,0.0,0.0,0.0,0.0,0.0,0.0,0.0,0.0,0.0,0.0,0.0,0.0,0.0,0.0,0.0,0.0,0.0,0.0,0.0,0.6013,0.619,0.6313,0.6307,0.6355,0.6496,0.6496,0.6149,0.5421,0.0,0.0,0.0,0.0,0.0,0.0,0.0,0.0,0.0,0.0,0.0,0.0,0.0,0.0,0.0,0.0,0.0,0.0,0.0,0.0,0.0,0.0,0.0,0.0,0.0,0.0,0.0,0.0,0.0,0.0,0.0,0.0,0.0,0.0,0.0,0.0,0.0,0.0,-1.1655,-1.3164,0.0,0.0,0.0,0.0,0.0,0.0,0.0,0.0,-1.5095,0.0,0.0,0.0,0.0,0.0,0.0,0.0,0.0,0.0,0.0,0.0,0.0,0.0,0.0,0.0,0.0,0.0,0.0,0.0,0.0,0.0,0.0,0.0,0.0,0.0,0.0,0.0,0.0,0.0,0.0,0.0,0.0,0.0,0.0,0.0,0.0,0.0,0.0,0.0,0.0,0.0,0.0,0.0,0.0,0.0,0.0,0.0,0.0,0.0,0.0,0.0,0.0,0.0,0.0,0.0,0.0,0.619,0.6556,0.6745,0.6787,0.6859,0.6859,0.6901,0.6999,0.6801,0.623,0.0,0.0,0.0,0.0,0.0,0.0,0.0,0.0,0.0,0.0,0.0,0.0,0.0,0.0,0.0,0.0,0.0,0.0,0.0,0.0,0.0,0.0,0.0,0.0,0.0,0.0,0.0,0.0,0.0,0.0,0.0,0.0,0.0,0.0,0.0,0.0,0.0,0.0,0.0,-1.4443,-1.509,0.0,0.0,0.0,0.0,0.0,0.0,0.0,0.0,-1.4725,0.0,0.0,0.0,0.0,0.0,0.0,0.0,0.0,0.0,0.0,0.0,0.0,0.0,0.0,0.0,0.0,0.0,0.0,0.0,0.0,0.0,0.0,0.0,0.0,0.0,0.0,0.0,0.0,0.0,0.0,0.0,0.0,0.0,0.0,0.0,0.0,0.0,0.0,0.0,0.0,0.0,0.0,0.0,0.0,0.0,0.0,0.0,0.0,0.0,0.0,0.0,0.0,0.0,0.0,0.0,0.7004,0.7217,0.7335,0.7419,0.7447,0.7489,0.7523,0.7538,0.7363,0.0,0.0,0.0,0.0,0.0,0.0,0.0,0.0,0.0,0.0,0.0,0.0,0.0,0.0,0.0,0.0,0.0,0.0,0.0,0.0,0.0,0.0,0.0,0.0,0.0,0.0,0.0,0.0,0.0,0.0,0.0,0.0,0.0,0.0,0.0,0.0,0.0,0.0,0.0,0.0,-1.4944,-1.5202,-1.5143,0.0,0.0,0.0,0.0,0.0,0.0,-1.4719,-1.4629,0.0,0.0,0.0,0.0,0.0,0.0,0.0,0.0,0.0,0.0,0.0,0.0,0.0,0.0,0.0,0.0,0.0,0.0,0.0,0.0,0.0,0.0,0.0,0.0,0.0,0.0,0.0,0.0,0.0,0.0,0.0,0.0,0.0,0.0,0.0,0.0,0.0,0.0,0.0,0.0,0.0,0.0,0.0,0.0,0.0,0.0,0.0,0.0,0.0,0.0,0.0,0.0,0.0,0.0,0.0,0.7889,0.7919,0.7953,0.8036,0.8036,0.8077,0.8144,0.8111,0.7893,0.0,0.0,0.0,0.0,0.0,0.0,0.0,0.0,0.0,0.0,0.0,0.0,0.0,0.0,0.0,0.0,0.0,0.0,0.0,0.0,0.0,0.0,0.0,0.0,0.0,0.0,0.0,0.0,0.0,0.0,0.0,0.0,0.0,0.0,0.0,0.0,0.0,0.0,0.0,0.0,0.0,-1.5075,-1.5178,-1.5188,0.0,0.0,0.0,0.0,-1.512,-1.4851,0.0,0.0,0.0,0.0,0.0,0.0,0.0,0.0,0.0,0.0,0.0,0.0,0.0,0.0,0.0,0.0,0.0,0.0,0.0,0.0,0.0,0.0,0.0,0.0,0.0,0.0,0.0,0.0,0.0,0.0,0.0,0.0,0.0,0.0,0.0,0.0,0.0,0.0,0.0,0.0,0.0,0.0,0.0,0.0,0.0,0.0,0.0,0.0,0.0,0.0,0.0,0.0,0.0,0.0,0.0,0.0,0.8529,0.8602,0.8594,0.8594,0.8594,0.8602,0.8635,0.8635,0.8314,0.0,0.0,0.0,0.0,0.0,0.0,0.0,0.0,0.0,0.0,0.0,0.0,0.0,0.0,0.0,0.0,0.0,0.0,0.0,0.0,0.0,0.0,0.0,0.0,0.0,0.0,0.0,0.0,0.0,0.0,0.0,0.0,0.0,0.0,0.0,0.0,0.0,0.0,0.0,0.0,0.0,-1.5084,-1.579,-1.578,-1.591,0.0,0.0,-1.6525,-1.6492,-1.5767,0.0,0.0,0.0,0.0,0.0,0.0,0.0,0.0,0.0,0.0,0.0,0.0,0.0,0.0,0.0,0.0,0.0,0.0,0.0,0.0,0.0,0.0,0.0,0.0,0.0,0.0,0.0,0.0,0.0,0.0,0.0,0.0,0.0,0.0,0.0,0.0,0.0,0.0,0.0,0.0,0.0,0.0,0.0,0.0,0.0,0.0,0.0,0.0,0.0,0.0,0.0,0.0,0.0,0.0,0.0,0.8502,0.9204,0.9231,0.9231,0.931,0.927,0.9231,0.9328,0.9199,0.8945,0.0,0.0,0.0,0.0,0.0,0.0,0.0,0.0,0.0,0.0,0.0,0.0,0.0,0.0,0.0,0.0,0.0,0.0,0.0,0.0,0.0,0.0,0.0,0.0,0.0,0.0,0.0,0.0,0.0,0.0,0.0,0.0,0.0,0.0,0.0,0.0,0.0,0.0,0.0,0.0,0.0,0.0,-1.6136,-1.6183,0.0,0.0,0.0,-1.6476,-1.6429,0.0,0.0,0.0,0.0,0.0,0.0,0.0,0.0,0.0,0.0,0.0,0.0,0.0,0.0,0.0,0.0,0.0,0.0,0.0,0.0,0.0,0.0,0.0,0.0,0.0,0.0,0.0,0.0,0.0,0.0,0.0,0.0,0.0,0.0,0.0,0.0,0.0,0.0,0.0,0.0,0.0,0.0,0.0,0.0,0.0,0.0,0.0,0.0,0.0,0.0,0.0,0.0,0.0,0.0,0.0,0.0,0.0,0.9943,0.9894,0.9933,1.0011,0.9903,0.9913,1.001,0.9883,0.0,0.0,0.0,0.0,0.0,0.0,0.0,0.0,0.0,0.0,0.0,0.0,0.0,0.0,0.0,0.0,0.0,0.0,0.0,0.0,0.0,0.0,0.0,0.0,0.0,0.0,0.0,0.1449,0.0,0.0,0.0,0.0,0.0,0.0,0.0,0.0,0.0,0.0,0.0,0.0,0.0,0.0,-1.5419,-1.6287,-1.6446,-1.6552,0.0,0.0,-1.6659,-1.6533,-1.621,-1.5955,0.0,0.0,0.0,0.0,0.0,0.0,0.0,0.0,0.0,0.0,0.0,0.0,0.0,0.0,0.0,0.0,0.0,0.0,0.0,0.0,0.0,0.0,0.0,0.0,0.0,0.0,0.0,0.0,0.0,0.0,0.0,0.0,0.0,0.0,0.0,0.0,0.0,0.0,0.0,0.0,0.0,0.0,0.0,0.0,0.0,0.0,0.0,0.0,0.0,0.0,0.0,0.0,0.0,0.0,0.0,1.0874,1.0715,1.0639,1.0639,1.0572,1.0572,1.0639,1.0572,1.0456,0.0,0.0,0.0,0.0,0.0,0.0,0.0,0.0,0.0,0.0,0.0,0.0,0.0,0.0,0.0,0.0,0.0,0.0,0.0,0.0,0.0,0.0,0.0,0.0,0.0,0.0,0.0,0.0,0.0,0.0,0.0,0.0,0.0,0.0,0.0,0.0,0.0,0.0,0.0,0.0,0.0,-1.4786,-1.6265,-1.6598,-1.6853,0.0,0.0,-1.771,-1.7457,-1.6703,-1.6171,-1.611,0.0,0.0,0.0,0.0,0.0,0.0,0.0,0.0,0.0,0.0,0.0,0.0,0.0,0.0,0.0,0.0,0.0,0.0,0.0,0.0,0.0,0.0,0.0,0.0,0.0,0.0,0.0,0.0,0.0,0.0,0.0,0.0,0.0,0.0,0.0,0.0,0.0,0.0,0.0,0.0,0.0,0.0,0.0,0.0,0.0,0.0,0.0,0.0,0.0,0.0,0.0,0.0,0.0,1.1175,1.152,1.1494,1.1431,1.1356,1.1282,1.1282,1.1394,1.1282,1.1233,0.0,0.0,0.0,0.0,0.0,0.0,0.0,0.0,0.0,0.0,0.0,0.0,0.0,0.0,0.0,0.0,0.0,0.0,0.0,0.0,0.0,0.0,0.0,0.0,0.0,0.0,0.0,0.0,0.7145,0.4775,0.2277,0.0,0.0,0.0,0.0,0.0,0.0,0.0,0.0,0.0,0.0,-0.5679,-0.6868,-0.7136,0.0,0.0,-1.2375,-1.353,-1.6449,-1.6479,-1.6209,-1.6158,-1.517,0.0,0.0,0.0,0.0,0.0,0.0,0.0,0.0,0.0,0.0,0.0,0.0,0.0,0.0,0.0,0.0,0.0,0.0,0.0,0.0,0.0,0.0,0.0,0.0,0.0,0.0,0.0,0.0,0.0,0.0,0.0,0.0,0.0,0.0,0.0,0.0,0.0,0.0,0.0,0.0,0.0,0.0,0.0,0.0,0.0,0.0,0.0,0.0,0.0,0.0,0.0,0.0,1.2047,1.2294,1.2198,1.2126,1.2102,1.1982,1.1957,1.2102,1.2018,1.2054,0.0,0.0,0.0,0.0,0.0,0.0,0.0,0.0,0.0,0.0,0.0,0.0,0.0,0.0,0.0,0.0,0.0,0.0,0.0,0.0,0.0,0.0,0.0,0.0,0.0,0.0,0.0,0.0,1.1858,0.963,0.7065,0.0,0.0,0.0,0.0,0.0,0.0,0.0,0.0,0.0,0.0,0.0599,-0.0321,-0.0599,-0.1956,-0.548,-0.6204,-0.7566,-1.0952,-1.1389,-1.1308,-1.1267,0.0,0.0,0.0,0.0,0.0,0.0,0.0,0.0,0.0,0.0,0.0,0.0,0.0,0.0,0.0,0.0,0.0,0.0,0.0,0.0,0.0,0.0,0.0,0.0,0.0,0.0,0.0,0.0,0.0,0.0,0.0,0.0,0.0,0.0,0.0,0.0,0.0,0.0,0.0,0.0,0.0,0.0,0.0,0.0,0.0,0.0,0.0,0.0,0.0,0.0,0.0,0.0,0.0,1.3101,1.3148,1.2896,1.2768,1.2768,1.2638,1.2638,1.2768,1.2803,1.2838,1.2883,0.0,0.0,0.0,0.0,0.0,0.0,0.0,0.0,0.0,0.0,0.0,0.0,0.0,0.0,0.0,0.0,0.0,0.0,0.0,0.0,0.0,0.0,0.0,0.0,0.0,0.0,1.5753,1.7189,1.748,0.0,0.0,0.0,0.0,0.0,0.0,0.0,0.0,0.0,0.0,0.2501,0.2198,0.1359,0.0938,0.097,0.0475,0.01,-0.0177,-0.0336,-0.0369,-0.016,0.0,0.0,0.0,0.0,0.0,0.0,0.0,0.0,0.0,0.0,0.0,0.0,0.0,0.0,0.0,0.0,0.0,0.0,0.0,0.0,0.0,0.0,0.0,0.0,0.0,0.0,0.0,0.0,1.7272,0.0,0.0,0.0,0.0,0.0,0.0,0.0,0.0,0.0,0.0,0.0,1.535,1.5179,0.0,0.0,0.0,0.0,0.0,0.0,0.0,0.0,0.0,0.0,0.0,0.0,1.3689,1.3656,1.3514,1.3378,1.3288,1.3276,1.3297,1.3399,1.3501,1.3602,1.3749,0.0,0.0,0.0,0.0,0.0,0.0,0.0,0.0,0.0,0.0,0.0,0.0,0.0,0.0,0.0,0.0,0.0,0.0,0.0,0.0,0.0,0.0,0.0,0.0,0.0,1.595,0.0,0.0,0.0,0.0,0.0,0.0,0.0,0.0,0.0,0.0,0.0,1.2787,1.2504,1.2804,1.2859,1.2313,1.207,1.07,0.0,0.0,0.0,0.0,0.0,0.0,0.0,0.0,0.0,0.0,0.0,0.0,0.0,0.0,-0.1725,-0.5007,-0.5598,-0.6559,-0.9744,0.0,0.0,0.0,0.0,0.0,0.0,0.0,0.0,0.0,0.0,0.0,0.0,0.0,0.0,0.0,0.0,1.8477,0.0,0.0,0.0,0.0,0.0,0.0,0.0,0.0,1.7124,1.6878,1.6764,1.6342,1.6052,0.0,1.5725,1.5021,0.0,0.0,0.0,0.0,0.0,0.0,0.0,0.0,1.4387,1.4511,1.4191,1.3954,1.3868,1.3901,1.3934,1.3967,1.4065,1.4195,1.4383,1.3987,1.3717,0.0,0.0,0.0,0.0,0.0,0.0,0.0,0.0,0.0,0.0,0.0,0.0,0.0,0.0,0.0,0.0,0.0,0.0,0.0,0.0,0.0,0.0,0.0,1.7603,0.0,0.0,0.0,0.0,0.0,0.0,0.0,0.0,0.0,1.7519,1.7994,1.8421,1.8345,1.8652,1.8757,1.8457,0.0,0.0,0.0,0.0,0.0,0.0,0.0,0.7495,0.741,0.7567,0.7735,0.7909,0.8513,0.8899,0.8655,0.0,0.0,0.0424,-0.0836,-0.2279,-0.7064,-0.7999,-0.8456,-1.0056,-1.0321,-1.0406,0.0,0.0,0.0,0.0,0.0,0.0,0.0,0.0,1.9941,1.9984,0.0,1.9916,0.0,0.0,0.0,0.0,0.0,0.0,0.0,0.0,1.8345,1.7946,1.7871,1.7029,1.6553,1.6487,1.6366,1.624,1.6057,1.5418,0.0,0.0,0.0,0.0,0.0,0.0,1.5244,1.5806,1.5113,1.4665,1.4616,1.4616,1.4588,1.4574,1.4574,1.4669,1.4808,1.4794,1.4574,1.4084,1.407,0.0,0.0,0.0,0.0,0.0,0.0,0.0,0.0,0.0,0.0,0.0,0.0,0.0,0.0,0.0,0.0,0.0,0.0,0.0,0.0,1.761,0.0,0.0,0.0,0.0,0.0,0.0,0.0,0.0,0.0,0.0,1.8935,1.9497,1.9989,1.9896,0.0,0.0,0.0,0.0,1.9151,1.8852,1.8717,1.8498,1.836,1.8122,1.7947,1.7925,0.0,0.0,1.8165,1.8338,1.8161,1.8333,1.7916,1.5266,0.5522,0.3654,0.1802,-0.2878,-0.3865,-0.5499,-0.9504,-1.0153,-1.0375,2.1885,0.0,0.0,0.0,0.0,2.079,2.0679,2.0212,2.0764,2.0986,2.096,2.0424,0.0,0.0,0.0,0.0,0.0,0.0,1.9707,1.9638,1.9219,1.8996,1.8969,1.8538,1.8335,1.8266,1.8124,1.8008,1.7907,1.7652,1.7046,1.6185,0.0,0.0,0.0,0.0,1.6851,1.6979,1.6702,1.6469,1.636,1.6341,1.6192,1.5889,1.5874,1.5688,1.5328,1.5299,1.5242,1.5155,1.4798,0.0,0.0,0.0,0.0,0.0,0.0,0.0,0.0,0.0,0.0,0.0,0.0,0.0,0.0,0.0,0.0,0.0,0.0,0.0,1.7939,1.8501,1.8912,0.0,0.0,0.0,0.0,0.0,0.0,0.0,0.0,0.0,1.9828,2.0037,2.0215,0.0,0.0,2.0077,1.9968,1.9896,1.9777,1.9646,0.0,0.0,0.0,1.9114,1.8979,1.8903,1.8788,1.8753,1.8789,1.8843,1.8824,1.8714,1.8695,1.7574,1.4794,1.1135,0.7266,0.2739,0.1437,-0.0095,-0.4305,-0.5522,-0.6536,2.2539,2.1962,2.1514,2.13,2.1326,2.1756,2.1661,2.1284,2.1678,2.1893,2.1859,2.1379,2.1378,2.1735,2.1249,0.0,0.0,0.0,2.0877,2.0834,2.0338,2.0096,2.0009,1.9564,1.9339,1.9228,1.9159,1.9029,1.8901,1.914,1.8806,1.7915,0.0,0.0,1.8268,1.793,1.7897,1.8022,1.7685,1.75,1.7372,1.7372,1.7279,1.7022,1.7007,1.686,1.6578,1.6338,1.6173,1.6231,1.5725,1.5373,0.0,0.0,0.0,0.0,0.0,0.0,0.0,0.0,0.0,0.0,0.0,1.3982,0.0,0.0,0.0,0.0,1.6971,1.7962,1.886,1.8965,0.0,0.0,0.0,0.0,0.0,0.0,0.0,1.9909,2.0238,2.0517,2.0594,2.0928,2.0961,2.037,2.0319,2.0441,2.076,0.0,2.0811,2.1043,2.1039,2.0983,2.0821,2.0732,2.0621,2.0453,2.028,2.0175,2.0144,2.013,2.0063,1.9957,1.9921,1.9847,1.964,1.711,1.3349,0.7903,0.6666,0.5097,0.0541,-0.194,-0.4285,2.2919,2.2919,2.2902,2.2876,2.2816,2.2816,2.2764,2.2712,2.2659,2.2676,2.2712,2.2579,2.2552,2.2605,2.2542,0.0,0.0,2.2477,2.2415,2.2388,2.1566,2.1191,2.1076,2.0341,1.9944,1.981,1.9793,1.9668,1.9479,2.0172,2.0351,2.0016,1.9091,1.8811,1.9188,1.8667,1.8617,1.9015,1.8407,1.8089,1.801,1.8025,1.8059,1.8111,1.8064,1.808,1.8207,1.7637,1.7327,1.7325,1.6881,1.636,1.576,0.0,0.0,0.0,0.0,0.0,0.0,0.0,0.0,0.0,0.0,0.0,0.0,0.0,0.0,0.0,1.8141,0.0,1.907,1.917,0.0,0.0,0.0,1.9435,1.9569,1.9653,1.9745,1.9857,0.0,0.0,0.0,0.0,2.1996,2.0643,2.0521,2.0889,2.1691,2.1792,2.2088,2.271,2.2877,2.2863,2.2617,2.2527,2.2364,2.2192,2.2173,2.1936,2.1838,2.1784,2.1745,2.1568,2.1607,2.1516,2.1329,2.0997,1.9383,1.3178,1.2042,1.0573,0.5902,0.1733,-0.1496,2.307,2.307,2.3052,2.2995,2.2893,2.2893,2.2868,2.2868,2.2842,2.2842,2.2825,2.2816,2.279,2.2738,2.2685,2.2659,2.2676,2.2632,2.2605,2.2525,2.2283,2.2116,2.205,2.1826,2.1625,2.1491,2.1434,2.1366,2.1251,2.1361,2.1341,2.1189,2.0795,2.0512,2.0327,2.0186,2.0104,2.011,1.9903,1.9793,1.9795,1.9795,1.9582,1.9168,1.9121,1.8952,1.8545,1.8505,1.8498,1.8498,1.8523,1.8259,1.7601,1.7729,0.0,0.0,0.0,0.0,0.0,0.0,0.0,0.0,0.0,1.6435,1.6768,0.0,1.8148,0.0,1.8646,1.8913,1.9066,1.9168,0.0,0.0,1.939,1.9416,1.9504,2.0121,2.0555,2.0615,2.14,2.1952,2.1969,2.2224,2.2324,2.2005,2.2086,2.2262,2.2578,2.2667,2.2759,2.2962,2.3085,2.3025,2.3003,2.2842,2.275,2.2623,2.2475,2.2357,2.2293,2.2178,2.2085,2.199,2.1898,2.1782,2.1698,2.1571,2.1041,1.9292,1.8771,1.7206,1.2483,1.0363,0.7302,2.3119,2.3119,2.3119,2.3052,2.2977,2.2995,2.2995,2.2995,2.297,2.2944,2.2944,2.2919,2.2893,2.2825,2.2799,2.279,2.279,2.279,2.2747,2.2738,2.2685,2.2632,2.2542,2.2487,2.2415,2.2271,2.2243,2.2175,2.2061,2.1991,2.1886,2.1754,2.1587,2.1371,2.1119,2.0909,2.0728,2.0628,2.061,2.0595,2.0646,2.063,2.049,2.0289,2.0257,2.0099,1.9826,1.9686,1.9628,1.9612,1.9474,1.9252,1.89,1.9031,1.8793,0.0,0.0,0.0,0.0,0.0,0.0,0.0,0.0,0.0,0.0,0.0,1.9763,0.0,1.9993,0.0,2.0241,2.0273,2.0358,2.0457,2.0489,2.0538,2.0563,2.1004,2.1313,2.1417,2.2141,2.2656,2.273,2.3121,2.3436,2.3504,2.3636,2.3638,2.3433,2.3476,2.3679,2.4085,2.4184,2.4199,2.4163,2.4073,2.3986,2.3945,2.3842,2.372,2.3664,2.355,2.3404,2.3299,2.3195,2.307,2.2937,2.2831,2.274,2.2531,2.2391,2.0982,1.7738,1.5189,1.1433,2.339,2.326,2.3284,2.3232,2.3119,2.3119,2.3119,2.3095,2.3045,2.302,2.302,2.2944,2.2927,2.2902,2.2927,2.2944,2.2944,2.2919,2.2902,2.2919,2.2919,2.2825,2.2738,2.2729,2.2659,2.2542,2.2525,2.246,2.2338,2.231,2.2209,2.1957,2.1869,2.1768,2.165,2.123,2.0974,2.086,2.0893,2.0909,2.0958,2.0974,2.1087,2.1247,2.1262,2.1294,2.1355,2.0921,2.071,2.0693,2.0285,2.001,1.9927,2.0025,2.0103,0.0,2.0298,0.0,0.0,0.0,0.0,0.0,0.0,0.0,0.0,2.1164,2.1285,2.1402,2.1459,2.1552,2.1661,2.1678,2.1748,2.1852,2.1885,2.1884,2.1881,2.1992,2.2099,2.2213,2.2901,2.3417,2.355,2.4229,2.4704,2.4685,2.4761,2.4657,2.4263,2.4248,2.4606,2.5488,2.5601,2.5398,2.5444,2.5467,2.5411,2.5447,2.5282,2.5303,2.5138,2.5027,2.4936,2.4804,2.4599,2.4535,2.4464,2.4338,2.4229,2.3967,2.383,2.3213,2.133,1.812,1.4612,2.4827,2.4244,2.4244,2.3848,2.3283,2.3265,2.3193,2.3119,2.3077,2.3095,2.3077,2.307,2.307,2.3052,2.307,2.307,2.307,2.3052,2.3045,2.2995,2.2995,2.2944,2.285,2.2868,2.2799,2.2738,2.2685,2.2632,2.2525,2.2432,2.2321,2.2209,2.2044,2.1928,2.184,0.0,0.0,0.0,2.1373,2.1402,2.1324,2.1419,2.1481,2.1528,2.1573,0.0,2.1691,2.1707,2.174,2.1809,2.1904,0.0,0.0,0.0,0.0,0.0,0.0,0.0,0.0,0.0,0.0,0.0,2.2093,2.1828,2.1223,2.1342,2.1457,2.1476,2.1495,2.1533,2.1607,2.1607,2.1679,2.1803,2.182,2.1818,2.1852,2.2404,2.2844,2.2986,2.3671,2.4222,2.4321,2.4522,2.4663,2.4791,2.4856,2.4896,2.4816,2.4924,2.5166,2.5398,2.5517,2.5615,2.5683,2.5616,2.557,2.5565,2.5531,2.543,2.5374,2.5254,2.5138,2.5049,2.4929,2.4813,2.4726,2.458,2.4445,2.4321,2.419,2.3885,2.3286,2.2369,2.0221,2.5463,0.0,2.5108,2.486,0.0,2.4463,2.4244,2.3781,2.3375,2.3199,2.3193,2.3193,2.3193,2.3193,2.3193,2.3193,2.3193,2.3175,2.3175,2.3126,2.3144,2.3119,2.3028,2.3045,2.302,2.2944,2.2919,2.2842,2.2738,2.2685,2.2596,2.2487,2.2354,2.2271,2.2243,2.2175,2.1945,2.154,2.1678,2.1721,2.1661,2.1751,2.1797,2.1781,0.0,0.0,0.0,0.0,0.0,0.0,0.0,0.0,0.0,0.0,0.0,2.186,2.1961,2.2059,2.2171,2.2325,2.2593,2.307,2.3213,2.3111,2.2616,2.2676,2.2733,2.2733,2.2753,2.2792,2.283,2.2849,2.2905,2.2978,2.3014,2.305,2.3121,2.3435,2.3747,2.3836,2.4152,2.4429,2.4512,2.458,2.4631,2.4748,2.4817,2.4884,2.4953,2.5122,2.5293,2.5426,2.5531,2.5598,2.5648,2.5663,2.5659,2.5634,2.5609,2.5554,2.5499,2.5401,2.5284,2.5203,2.508,2.4974,2.4917,2.4753,2.4613,2.4513,2.4375,2.419,2.3996,2.3789,2.2932,2.6038,2.594,2.5932,2.5825,2.5701,2.5719,2.5329,2.4647,0.0,0.0,0.0,2.3271,2.3271,2.3271,2.3271,2.3271,2.3271,2.3271,2.3271,2.3271,2.3271,2.3265,2.3217,2.3217,2.3193,2.3119,2.3119,2.3052,2.2944,2.2902,2.2868,2.2721,2.2659,2.2649,2.2605,2.2569,2.236,2.1957,2.2003,2.1986,2.1986,2.2027,2.2084,2.2084,2.2231,2.2304,2.2304,2.2405,2.2436,2.2405,2.2634,2.2868,2.3033,2.3072,2.3119,2.3193,2.336,2.3494,2.3567,2.3682,2.3768,2.3847,2.3912,2.3955,2.3996,2.3978,2.3978,2.3978,2.4036,2.4094,2.4112,2.4151,2.4171,2.421,2.4266,2.4284,2.4339,2.4358,2.4338,2.4447,2.4411,2.4447,2.4513,2.4564,2.4596,2.4698,2.4772,2.4823,2.494,2.5099,2.5274,2.5437,2.5538,2.559,2.5613,2.5648,2.5683,2.5696,2.5654,2.5617,2.559,2.5506,2.5406,2.5312,2.5214,2.5115,2.5044,2.4912,2.4783,2.4689,2.453,2.4393,2.4248,2.4056,2.3777,2.7433,2.6809,2.6809,2.6417,2.5793,2.5793,2.574,2.5483,2.3981,2.3289,2.3271,2.3271,2.3271,2.3271,2.3271,2.3271,2.3271,2.3271,2.3271,0.0,2.3271,2.3289,2.3289,2.3289,2.3265,2.3193,2.3193,2.3126,2.307,2.302,2.2944,2.2893,2.2816,2.2738,2.2703,2.2685,2.2632,2.2561,2.2415,2.2293,2.2254,2.2377,2.2415,2.2443,2.2552,2.2659,2.2694,2.2738,2.273,2.273,2.2935,2.3087,2.3165,2.3276,2.3407,2.3526,2.3611,2.3703,2.3813,2.3873,2.3917,2.4054,2.4056,2.4036,2.3998,2.3978,2.3978,2.3978,2.4016,2.4036,2.4094,2.4113,2.4133,2.4209,2.4209,2.4228,2.4247,2.4229,2.4284,2.4358,2.4358,2.4465,2.4566,2.4547,2.458,2.4676,2.4772,2.4879,2.5038,2.5145,2.5253,2.5387,2.5476,2.5531,2.5585,2.5645,2.5693,2.5703,2.5696,2.5654,2.5617,2.5585,2.5525,2.5406,2.5331,2.5243,2.5187,2.5013,2.4907,2.4837,2.4657,2.4478,2.4391,2.4266,2.4096,2.8103,2.7762,2.7762,2.7548,2.7171,2.6724,2.657,2.6462,2.5314,2.451,2.4064,2.4046,2.3815,2.3424,2.3424,2.3424,2.3407,2.3407,2.3407,2.3424,2.3407,2.3407,2.3424,2.3407,2.3383,2.3378,2.3378,2.3354,2.3283,2.3241,2.3193,2.3119,2.3045,2.2977,2.2902,2.2902,2.2902,2.2919,2.2712,2.2579,2.2515,2.2605,2.2649,2.2623,2.2712,2.279,2.285,2.2876,2.2952,2.3007,2.3157,2.3307,2.3472,2.3534,2.3611,2.37,2.3747,2.3831,2.3937,2.4018,2.4096,2.4153,2.419,2.4191,2.4153,2.4114,2.4113,2.4114,2.4096,2.4115,2.4209,2.4209,2.4228,2.4303,2.4303,2.4321,2.4376,2.4358,2.4393,2.441,2.4445,2.4515,2.4599,2.4599,2.4634,2.4714,2.4772,2.4917,2.5082,2.5153,2.5252,2.5379,2.5456,2.5531,2.559,2.5636,2.5657,2.5681,2.5703,2.5694,2.5668,2.5628,2.5565,2.5479,2.5398,2.535,2.5303,2.5157,2.5019,2.4929,2.4813,2.4642,2.4526,2.4389,2.4266,2.8963,2.8945,2.8748,2.8541,2.8344,2.7741,2.7453,2.7417,2.6867,2.611,2.5296,2.5099,2.467,2.4116,2.392,2.3812,2.3794,2.3634,2.3562,2.3539,2.3562,2.3562,2.3522,2.3544,2.3522,2.3544,2.3544,2.3517,2.3476,2.3453,2.3407,2.3336,2.3289,2.3199,2.3168,2.3144,2.3144,2.3144,2.2995,2.2868,2.279,2.2868,2.2868,2.2816,2.2876,2.2944,2.2995,2.3045,2.3126,2.3253,2.3365,2.3494,2.3701,2.3718,2.3786,2.385,2.3876,2.3958,2.4056,2.4154,2.421,2.421,2.4266,2.4303,2.4284,2.4266,2.4209,2.421,2.4229,2.4247,2.4284,2.4284,2.4321,2.4358,2.4376,2.4375,2.4447,2.4501,2.4517,2.4497,2.4512,2.4547,2.4615,2.4666,2.4714,2.4742,2.4846,2.4972,2.5082,2.516,2.5261,2.538,2.5451,2.5522,2.5587,2.5615,2.5639,2.5675,2.5702,2.5702,2.5685,2.5642,2.5589,2.5529,2.5473,2.5426,2.5397,2.5273,2.5145,2.5063,2.4907,2.4768,2.4626,2.4526,2.4391,3.0556,3.0466,2.9782,2.9071,2.8478,2.8352,2.8334,2.828,2.8182,2.7741,2.6914,2.6285,2.5925,2.5763,2.5062,2.4756,2.4703,2.4019,2.3714,2.3714,2.3678,2.3678,2.3678,2.3678,2.3678,2.3678,2.3678,2.3674,2.3674,2.3607,2.3522,2.3494,2.3424,2.3401,2.336,2.3313,2.3289,2.3289,2.3247,2.3193,2.307,2.3126,2.3168,2.3151,2.3217,2.3265,2.3265,2.3247,2.333,2.3478,2.3489,2.358,2.3772,2.3847,2.3935,2.4054,2.4134,2.4192,2.4266,2.4284,2.4303,2.4284,2.4303,2.4303,2.4303,2.4321,2.4303,2.4303,2.4284,2.4284,2.4303,2.4303,2.4321,2.4321,2.4339,2.4303,2.4339,2.4429,2.45,2.45,2.4547,2.4596,2.4682,2.4695,2.4772,2.4861,2.4945,2.5025,2.5101,2.5164,2.5262,2.5361,2.5451,2.5522,2.5589,2.56,2.5629,2.5685,2.5697,2.5703,2.5696,2.5698,2.5675,2.5591,2.5529,2.5466,2.5401,2.5332,2.5243,2.5153,2.5,2.4851,2.4726,2.4631,2.4532,3.092,3.0884,3.0559,3.0234,2.9963,2.9945,2.9674,2.924,2.924,2.8797,2.8098,2.7761,2.7055,2.6111,2.5798,2.5654,2.5641,2.538,2.4946,2.4508,2.4472,2.4219,2.3786,2.3765,2.3761,2.3761,2.3721,2.3718,2.37,2.3674,2.3629,2.3544,2.3539,2.3517,2.3517,2.3494,2.3499,2.3544,2.3544,2.3522,2.3435,2.3336,2.3265,2.3313,2.3354,2.3401,2.3471,2.3539,2.3589,2.3678,2.3725,2.3789,2.391,2.3994,2.4074,2.4152,2.4303,2.4393,2.4409,2.4462,2.4462,2.4481,2.4462,2.4479,2.4462,2.4462,2.4462,2.4462,2.443,2.4375,2.4411,2.4411,2.4411,2.4411,2.441,2.4409,2.4409,2.4497,2.4566,2.4617,2.4634,2.4682,2.4745,2.4772,2.4832,2.4931,2.4999,2.5057,2.5137,2.5217,2.5302,2.5389,2.547,2.5495,2.5538,2.5571,2.5617,2.5673,2.5689,2.57,2.5699,2.5691,2.5696,2.5675,2.5605,2.5517,2.5464,2.5404,2.5322,2.522,2.5076,2.4917,2.4768,2.4742,2.4663,3.1655,3.1618,3.1437,3.1184,3.1003,3.103,3.0712,3.0186,3.0168,2.9893,2.9373,2.9155,2.8379,2.7224,2.6778,2.6584,2.6548,2.6395,2.6,2.5415,2.5379,2.4944,2.4254,2.4179,2.4049,2.3886,2.3807,2.3786,2.3765,2.3725,2.3721,2.3656,2.3652,2.3652,2.3652,2.3652,2.3674,2.3739,2.3739,2.3721,2.3703,2.3549,2.3458,2.3476,2.3476,2.3522,2.367,2.3718,2.3786,2.3855,2.3896,2.3978,2.4075,2.4114,2.419,2.4284,2.4429,2.4497,2.453,2.4564,2.4599,2.4599,2.4599,2.4599,2.4599,2.4599,2.4599,2.4599,2.4515,2.4464,2.4517,2.4515,2.4515,2.4515,2.453,2.4547,2.4564,2.4615,2.4663,2.4729,2.4745,2.4791,2.485,2.4875,2.4898,2.5004,2.5051,2.5075,2.5184,2.5261,2.5322,2.5388,2.5468,2.5503,2.5518,2.5571,2.5636,2.5668,2.5705,2.5698,2.57,2.5697,2.5707,2.5671,2.5628,2.5571,2.5518,2.5445,2.5379,2.5241,2.5106,2.4972,2.4889,2.4846,2.4787,3.3302,3.3158,3.2451,3.1745,3.1048,3.1138,3.1119,3.1065,3.1099,3.1115,3.0878,3.025,2.9885,2.963,2.8244,2.757,2.7437,2.684,2.6498,2.6352,2.637,2.591,2.516,2.5124,2.4759,2.4213,2.4083,2.399,2.3876,2.3834,2.3795,2.3795,2.3807,2.3804,2.3783,2.3721,2.3721,2.3786,2.3786,2.3807,2.3813,2.3792,2.375,2.3682,2.3678,2.3721,2.3765,2.3804,2.385,2.3996,2.4016,2.4095,2.4247,2.4303,2.4357,2.4461,2.4495,2.4547,2.458,2.4596,2.4615,2.4615,2.4615,2.4615,2.4613,2.4613,2.4631,2.4596,2.4596,2.458,2.4599,2.4599,2.4599,2.4599,2.465,2.4701,2.4701,2.4726,2.4787,2.4798,2.4842,2.4898,2.4985,2.498,2.5006,2.5082,2.5144,2.5195,2.522,2.5264,2.5322,2.5404,2.5472,2.5517,2.5595,2.5595,2.564,2.5671,2.5687,2.5698,2.5703,2.5698,2.5705,2.5684,2.5621,2.5586,2.5538,2.5461,2.5369,2.5262,2.5184,2.5063,2.4972,2.4931,2.4856,3.3491,3.3502,3.3211,3.2902,3.2683,3.2675,3.2393,3.1955,3.1946,3.1733,3.1327,3.1023,3.0919,3.0962,2.9876,2.9058,2.8507,2.8268,2.7926,2.7485,2.7429,2.7006,2.6268,2.6153,2.5965,2.5615,2.5059,2.4468,2.4012,2.3937,2.3935,2.3917,2.3935,2.3915,2.3933,2.3894,2.3894,2.3933,2.3933,2.3935,2.3937,2.3976,2.3994,2.3953,2.3933,2.3933,2.3994,2.4036,2.4077,2.4115,2.421,2.4284,2.4358,2.4446,2.453,2.461,2.466,2.4711,2.4723,2.4738,2.4738,2.4738,2.4738,2.4723,2.4738,2.4738,2.4738,2.4719,2.4738,2.4738,2.4723,2.4645,2.4615,2.4666,2.4679,2.4711,2.4776,2.4836,2.4875,2.487,2.494,2.4987,2.5044,2.5063,2.5099,2.5153,2.5228,2.5271,2.5322,2.5341,2.5397,2.5448,2.5476,2.5518,2.5587,2.5605,2.5617,2.5668,2.5707,2.5699,2.5703,2.5701,2.5691,2.569,2.5652,2.5595,2.5531,2.5468,2.5378,2.5253,2.5164,2.5125,2.5089,2.5004,2.4917,3.4196,3.4035,3.4016,3.388,3.3689,3.3689,3.3387,3.2893,3.2902,3.2669,3.2268,3.1998,3.1918,3.1885,3.1228,3.0576,2.9894,2.9455,2.8904,2.8424,2.8387,2.798,2.7276,2.7085,2.6917,2.6602,2.6002,2.5244,2.4549,2.4399,2.4271,2.4034,2.4034,2.4054,2.4054,2.4074,2.4074,2.4075,2.4057,2.4057,2.4095,2.4134,2.4171,2.4172,2.4171,2.4153,2.4153,2.421,2.4266,2.4302,2.4375,2.4446,2.45,2.4582,2.4679,2.4726,2.4772,2.4821,2.4813,2.4813,2.4813,2.4813,2.4813,2.4813,2.4813,2.4813,2.4813,2.4813,2.4813,2.4813,2.4813,2.4753,2.4711,2.4726,2.4738,2.4783,2.4865,2.4903,2.494,2.4993,2.5038,2.5099,2.5141,2.5176,2.519,2.5233,2.5302,2.5361,2.5388,2.5415,2.5448,2.5488,2.5524,2.5557,2.5593,2.561,2.5621,2.5668,2.5687,2.5699,2.5703,2.5702,2.5696,2.5698,2.5671,2.56,2.5543,2.5476,2.5378,2.5253,2.519,2.5153,2.5101,2.5057,2.4991,3.5542,3.4971,3.4916,3.4559,3.4064,3.4126,3.3987,3.3913,3.3972,3.3906,3.3635,3.3185,3.2895,3.2794,3.2199,3.1853,3.1533,3.0216,2.9428,2.924,2.924,2.8815,2.8056,2.8019,2.7611,2.6944,2.6696,2.6195,2.5458,2.5303,2.4935,2.4296,2.4243,2.4244,2.4208,2.419,2.4191,2.4192,2.421,2.4229,2.4303,2.4284,2.4339,2.4375,2.4447,2.4429,2.4321,2.4303,2.4356,2.4478,2.4512,2.4564,2.4682,2.4692,2.4742,2.4787,2.4806,2.4802,2.4813,2.4827,2.4827,2.4827,2.4813,2.4827,2.4827,2.4827,2.4827,2.4827,2.4842,2.4842,2.4884,2.4884,2.487,2.4808,2.4856,2.4898,2.4977,2.4999,2.5063,2.5168,2.5179,2.5241,2.5282,2.5292,2.5283,2.5293,2.5361,2.5416,2.5412,2.5456,2.5488,2.5505,2.5551,2.5576,2.559,2.5619,2.5644,2.5668,2.5687,2.5698,2.5703,2.5703,2.5697,2.5701,2.5652,2.5595,2.5525,2.5461,2.5395,2.5313,2.5243,2.5179,2.5149,2.5095,2.505,3.6186,3.6021,3.6003,3.5874,3.5661,3.5742,3.5473,3.4955,3.4995,3.473,3.4234,3.3942,3.3897,3.3757,3.3212,3.286,3.2767,3.1701,3.0856,3.0344,3.0286,2.9839,2.915,2.8961,2.8511,2.7805,2.7655,2.7209,2.6541,2.6392,2.5985,2.5338,2.5208,2.4875,2.4394,2.4356,2.4338,2.4338,2.4338,2.4355,2.4373,2.4426,2.4462,2.4461,2.4566,2.4599,2.458,2.4582,2.4582,2.465,2.4679,2.4726,2.4768,2.4813,2.4842,2.4875,2.4922,2.4936,2.495,2.495,2.4917,2.4917,2.4936,2.495,2.495,2.495,2.4931,2.4926,2.494,2.4953,2.5031,2.5031,2.5018,2.4934,2.4947,2.5006,2.5044,2.5094,2.5157,2.5241,2.5253,2.5284,2.5341,2.5351,2.536,2.5367,2.5432,2.5476,2.548,2.5483,2.5531,2.5564,2.5582,2.5618,2.563,2.5652,2.5655,2.5673,2.5689,2.5698,2.5703,2.5702,2.5696,2.5679,2.5629,2.5581,2.5512,2.5461,2.5404,2.5341,2.5283,2.5239,2.5191,2.5139,2.5076,3.7276,3.7071,3.7052,3.6893,3.6679,3.6712,3.644,3.6037,3.6025,3.5781,3.5362,3.5011,3.4922,3.4798,3.4189,3.3853,3.3797,3.3294,3.2616,3.1784,3.1349,3.0824,3.0037,2.9624,2.9268,2.8781,2.8668,2.824,2.7494,2.7401,2.701,2.6356,2.6226,2.5815,2.5086,2.4993,2.4881,2.4584,2.4528,2.451,2.4526,2.4561,2.4578,2.4629,2.4698,2.4745,2.4719,2.4757,2.4776,2.476,2.4787,2.4846,2.487,2.4912,2.494,2.4972,2.5004,2.5037,2.5037,2.5037,2.5037,2.5037,2.5037,2.5037,2.5037,2.5018,2.5031,2.5025,2.5025,2.5057,2.5095,2.5126,2.5107,2.5082,2.5057,2.5082,2.513,2.5209,2.5273,2.5332,2.5351,2.5359,2.5412,2.5421,2.5437,2.5434,2.5468,2.5529,2.5524,2.5544,2.557,2.5587,2.5604,2.563,2.5691,2.5691,2.5704,2.5701,2.5693,2.5699,2.5703,2.5702,2.5693,2.5645,2.5604,2.5571,2.5518,2.5449,2.5393,2.536,2.5312,2.525,2.5184,2.5151,2.5076,3.8691,3.8111,3.8074,3.7716,3.7193,3.7175,3.7168,3.7066,3.7108,3.7019,3.6844,3.6249,3.597,3.5821,3.5335,3.5016,3.4865,3.4831,3.432,3.3526,3.2788,3.1939,3.1017,3.0396,3.0039,2.9795,2.9739,2.9251,2.8501,2.8427,2.7978,2.7281,2.7169,2.6793,2.6191,2.6057,2.5718,2.5174,2.5023,2.5005,2.4892,2.4854,2.4794,2.4825,2.4802,2.4817,2.4808,2.487,2.487,2.4842,2.4884,2.4964,2.4991,2.4999,2.5025,2.5089,2.5082,2.507,2.5082,2.507,2.5089,2.507,2.5082,2.5082,2.5082,2.5082,2.5114,2.5114,2.5222,2.5272,2.5297,2.5497,2.5539,2.5398,2.5325,2.5184,2.5192,2.5313,2.5379,2.5415,2.5412,2.5437,2.5495,2.5483,2.5498,2.5511,2.5499,2.5531,2.557,2.5582,2.5599,2.5615,2.5649,2.5652,2.5691,2.5697,2.5693,2.5705,2.5696,2.5701,2.5703,2.57,2.5687,2.5655,2.5591,2.5574,2.5525,2.5483,2.5429,2.5369,2.5313,2.5241,2.5195,2.5156,2.507,3.927,3.9108,3.9108,3.9002,3.8839,3.8863,3.8536,3.8089,3.8143,3.7867,3.7397,3.712,3.7009,3.6952,3.6842,3.6501,3.6027,3.5913,3.5476,3.4792,3.4508,3.3392,3.2276,3.1785,3.135,3.0879,3.0748,3.0351,2.9576,2.9487,2.9034,2.8242,2.8188,2.7775,2.7094,2.7013,2.6934,2.6726,2.6737,2.6359,2.5868,2.5811,2.5452,2.4917,2.4983,2.5015,2.4972,2.5018,2.5012,2.4953,2.5031,2.5063,2.5114,2.5152,2.5222,2.5254,2.5178,2.5139,2.5139,2.5158,2.5133,2.5088,2.5272,2.5094,2.508,2.5099,2.513,2.5268,2.5692,2.6136,2.6285,2.6741,2.7061,2.7024,2.6128,2.5417,2.5447,2.5376,2.5421,2.5453,2.5534,2.5614,2.5673,2.5693,2.5738,2.5725,2.5751,2.5762,2.5949,2.5921,2.6053,2.5775,2.5714,2.571,2.5704,2.569,2.5701,2.5691,2.5699,2.5703,2.5703,2.5696,2.5701,2.5675,2.5619,2.5579,2.5538,2.5498,2.5445,2.5406,2.5322,2.5262,2.5209,2.5172,2.5076,3.9623,3.9623,3.9647,3.967,3.9689,3.9712,3.9475,3.9142,3.9129,3.8965,3.8531,3.8155,3.8042,3.7985,3.77,3.7337,3.6918,3.6916,3.6474,3.573,3.5291,3.4325,3.3213,3.2703,3.2229,3.1849,3.1792,3.1298,3.0617,3.0487,3.0032,2.9371,2.9223,2.8787,2.801,2.7949,2.7774,2.7528,2.7519,2.7267,2.6844,2.6806,2.661,2.6167,2.6123,2.6136,2.6155,2.6181,2.5882,2.5368,2.5406,2.5641,2.5679,2.6035,2.6168,2.6187,2.6187,2.6219,2.6193,2.6193,2.6199,2.623,2.6242,2.6235,2.6278,2.6232,2.6255,2.64,2.6836,2.7061,2.7198,2.7643,2.7894,2.7749,2.7006,2.6446,2.65,2.6575,2.6568,2.6597,2.6598,2.6599,2.6598,2.6629,2.6673,2.6751,2.6854,2.6821,2.6831,2.6685,2.6597,2.6517,2.6311,2.6341,2.6197,2.6127,2.6041,2.599,2.6074,2.5995,2.5913,2.5863,2.5671,2.5664,2.5619,2.5585,2.5544,2.5498,2.5464,2.5406,2.5332,2.5283,2.5212,2.5153,2.5069,3.9826,3.9807,3.9889,3.993,3.9911,3.9933,3.9935,3.9998,3.9962,3.9963,3.9832,3.9319,3.9051,3.9032,3.8514,3.7995,3.7861,3.7879,3.7379,3.6648,3.5921,3.5012,3.4304,3.3506,3.3048,3.28,3.2746,3.2267,3.16,3.1356,3.0937,3.0327,3.0122,2.9684,2.9074,2.8955,2.8555,2.8155,2.815,2.803,2.7809,2.7733,2.7612,2.7408,2.7383,2.7433,2.7484,2.7515,2.6974,2.5482,2.6136,2.6492,2.6638,2.7319,2.7561,2.7523,2.7447,2.7497,2.7618,2.7465,2.7604,2.7558,2.7627,2.7812,2.7612,2.75,2.7514,2.7505,2.7911,2.8115,2.8338,2.8357,2.8498,2.8543,2.8346,2.8288,2.826,2.8179,2.8119,2.8107,2.8074,2.8118,2.8168,2.8204,2.8126,2.7498,2.76,2.7581,2.7571,2.7537,2.7608,2.7722,2.7456,2.7128,2.6886,2.6603,2.6477,2.6405,2.6562,2.6556,2.6388,2.6217,2.5827,2.5628,2.561,2.5574,2.5531,2.5483,2.5503,2.5406,2.5351,2.5264,2.5212,2.5141,2.5076,4.0036,4.0036,4.0057,4.0057,4.0057,4.0098,4.0176,4.0214,4.0234,4.0291,4.0233,4.0116,4.0038,4.0038,3.9749,3.948,3.8846,3.875,3.8367,3.7559,3.6715,3.6278,3.5806,3.5063,3.4355,3.3934,3.3776,3.3298,3.257,3.1895,3.1384,3.1193,3.0586,3.0095,2.9961,2.9822,2.9855,2.9645,2.9633,2.9257,2.876,2.8676,2.8447,2.8018,2.7908,2.7884,2.7868,2.786,2.7657,2.7424,2.7428,2.7604,2.7565,2.7757,2.7948,2.7968,2.7891,2.7865,2.7807,2.7934,2.7812,2.798,2.808,2.7871,2.7873,2.799,2.7981,2.8078,2.8569,2.9215,2.9715,3.002,2.992,2.9858,2.9919,2.9972,2.9887,2.8935,2.8379,2.8281,2.8304,2.8204,2.8272,2.8394,2.8379,2.8242,2.8281,2.8242,2.8325,2.845,2.8579,2.8785,2.8363,2.8017,2.7852,2.751,2.7224,2.707,2.7164,2.721,2.7036,2.6731,2.6381,2.5974,2.5605,2.5646,2.5874,2.5638,2.5669,2.5522,2.5351,2.5283,2.5201,2.513,2.5076,4.138,4.136,4.138,4.1418,4.1418,4.1437,4.1246,4.0959,4.0937,4.0725,4.0419,4.0415,4.0449,4.0449,4.0427,4.0137,3.9753,3.933,3.8965,3.8408,3.7698,3.7275,3.7083,3.6358,3.5532,3.4793,3.4644,3.4184,3.3456,3.2924,3.2584,3.2048,3.1268,3.0929,3.0718,3.0483,3.0215,3.0177,3.0279,3.0075,2.9716,2.9632,2.954,2.9159,2.9066,2.9077,2.9156,2.9156,2.9137,2.9088,2.9066,2.8841,2.8576,2.8787,2.8986,2.8975,2.8975,2.8975,2.8994,2.9006,2.9068,2.8967,2.9077,2.9117,2.9129,2.913,2.9187,2.9291,2.9685,3.0203,3.0583,3.0651,3.0697,3.0704,3.0698,3.071,3.0529,2.9849,2.9324,2.9399,2.9527,2.9499,2.943,2.9186,2.9342,2.9552,2.96,2.9585,2.9663,2.9749,2.9682,2.9653,2.9194,2.8886,2.8816,2.8511,2.8066,2.7927,2.7879,2.7864,2.7764,2.7398,2.7015,2.6744,2.6548,2.6398,2.6533,2.6219,2.5862,2.5541,2.5399,2.5302,2.5209,2.5168,2.5126,4.2813,4.2833,4.2869,4.2908,4.2926,4.2849,4.2466,4.1948,4.1909,4.1485,4.0758,4.0694,4.0729,4.0518,4.0492,4.0489,4.0296,3.9912,3.9492,3.9358,3.8589,3.8243,3.7973,3.73,3.656,3.5733,3.535,3.4865,3.4443,3.4136,3.3522,3.2947,3.2198,3.1814,3.1603,3.1143,3.0778,3.0695,3.0676,3.0508,3.0333,3.0306,3.0282,3.0286,3.0269,3.0259,3.024,3.0289,3.0394,3.053,3.053,3.0094,2.9773,2.9921,3.041,3.0271,3.0148,3.0071,3.0044,3.0198,3.024,3.0409,3.0422,3.0433,3.0395,3.0346,3.0344,3.0447,3.0576,3.0593,3.0717,3.0736,3.0728,3.0734,3.0714,3.0714,3.0714,3.0714,3.055,3.0589,3.037,3.0263,3.0399,3.0345,3.0613,3.0789,3.0798,3.0786,3.079,3.0758,3.0495,3.0406,2.9984,2.9816,2.9743,2.959,2.9137,2.8955,2.8825,2.8769,2.8743,2.8729,2.8481,2.796,2.7723,2.7498,2.7251,2.7032,2.6566,2.5878,2.564,2.5742,2.5562,2.5263,2.5196,4.2889,4.2889,4.2889,4.2908,4.2926,4.2981,4.2979,4.2806,4.284,4.2376,4.1629,4.1569,4.1184,4.0758,4.0508,4.0508,4.0469,4.0219,4.02,4.0085,3.9431,3.9084,3.8911,3.82,3.7666,3.7204,3.6383,3.5537,3.5133,3.457,3.423,3.382,3.3109,3.2705,3.2667,3.2474,3.1948,3.1518,3.1441,3.1234,3.0863,3.0749,3.0693,3.0724,3.0723,3.0645,3.0595,3.0585,3.0585,3.0585,3.0585,3.046,3.0326,3.0424,3.0479,3.0469,3.0458,3.0439,3.0458,3.0488,3.0479,3.05,3.055,3.0578,3.0606,3.064,3.0653,3.0683,3.0711,3.0736,3.0778,3.0769,3.0779,3.0769,3.0778,3.0763,3.0763,3.0763,3.0778,3.0789,3.0802,3.079,3.079,3.079,3.079,3.079,3.0798,3.0785,3.0788,3.0794,3.0743,3.073,3.0733,3.0681,3.0664,3.0524,3.0277,3.013,3.0037,3.0018,3.0068,3.0267,3.0036,2.9181,2.8579,2.8249,2.802,2.7838,2.7505,2.6988,2.664,2.6316,2.6201,2.6015,2.5469,4.4303,4.4303,4.4303,4.4303,4.4303,4.432,4.4088,4.3722,4.3701,4.3239,4.2662,4.245,4.2277,4.1797,4.1296,4.095,4.0623,4.0489,4.0489,4.0354,4.0085,3.9912,3.9811,3.9046,3.8757,3.8349,3.7425,3.6521,3.6103,3.5295,3.4911,3.4661,3.4,3.359,3.3448,3.3094,3.2817,3.2405,3.2359,3.2207,3.1844,3.1826,3.1709,3.1349,3.123,3.1053,3.068,3.0661,3.0661,3.0661,3.0642,3.0642,3.0665,3.0668,3.0625,3.0617,3.0569,3.0521,3.053,3.054,3.055,3.0559,3.0615,3.066,3.0645,3.0676,3.0704,3.0736,3.0767,3.0774,3.0793,3.0798,3.0786,3.079,3.0798,3.0798,3.0801,3.0804,3.0798,3.081,3.0813,3.0801,3.0785,3.0785,3.0788,3.0791,3.0794,3.0799,3.0804,3.0829,3.0832,3.0836,3.0858,3.084,3.0857,3.0829,3.0791,3.0798,3.0782,3.0774,3.0753,3.0678,3.0484,2.9972,2.9472,2.905,2.8819,2.8653,2.8376,2.8068,2.7572,2.7167,2.7031,2.6753,2.6193,4.5586,4.5586,4.5586,4.5586,4.5586,4.5586,4.5182,4.4643,4.4566,4.4085,4.3393,4.3316,4.3239,4.2931,4.2374,4.17,4.1008,4.095,4.085,4.0812,4.0543,4.0466,4.0308,3.998,3.9552,3.9418,3.8662,3.7872,3.6997,3.6169,3.5823,3.5528,3.4905,3.4475,3.434,3.4017,3.3558,3.3299,3.3291,3.3285,3.3161,3.313,3.2912,3.2268,3.2178,3.1875,3.1481,3.1442,3.1423,3.1404,3.1365,3.1287,3.1248,3.1229,3.1195,3.1099,3.0843,3.0613,3.0585,3.0585,3.0621,3.061,3.0653,3.0695,3.0723,3.0724,3.0728,3.0779,3.0789,3.0798,3.0794,3.0801,3.0801,3.0785,3.0785,3.0804,3.0807,3.0833,3.0836,3.0833,3.083,3.0833,3.0838,3.0821,3.0843,3.0845,3.0847,3.0852,3.0855,3.0857,3.0859,3.0859,3.0858,3.0834,3.0825,3.0819,3.0801,3.0802,3.0765,3.0759,3.0742,3.0704,3.0503,3.0339,3.0343,2.9959,2.9724,2.9486,2.9303,2.8953,2.8376,2.803,2.7943,2.7542,2.6999,4.5586,4.5586,4.5586,4.5586,4.5586,4.5586,4.5547,4.5413,4.5374,4.4951,4.4162,4.4124,4.3778,4.3258,4.3085,4.2874,4.2508,4.1986,4.1674,4.1647,4.1069,4.0718,4.0631,4.0535,4.0304,4.0188,3.9585,3.8786,3.7995,3.716,3.6678,3.6485,3.5888,3.5437,3.5391,3.5048,3.4936,3.4359,3.4235,3.3945,3.3447,3.3382,3.3327,3.3167,3.3103,3.2979,3.2726,3.2655,3.2726,3.2804,3.2882,3.2954,3.2999,3.2992,3.2998,3.2551,3.1728,3.0683,3.0858,3.0987,3.0994,3.102,3.0859,3.0737,3.0716,3.0759,3.0765,3.079,3.0794,3.0798,3.0788,3.0791,3.0794,3.0796,3.0796,3.0796,3.0799,3.0858,3.0862,3.0888,3.0866,3.0886,3.0888,3.0891,3.0874,3.0874,3.0875,3.0878,3.0879,3.0859,3.0856,3.0832,3.0829,3.0819,3.0807,3.0798,3.0786,3.0784,3.0764,3.0722,3.071,3.0691,3.0656,3.0576,3.0645,3.0613,3.0259,3.0095,3.0171,2.9847,2.921,2.8969,2.8862,2.8376,2.788,4.5586,4.5586,4.5586,4.5586,4.5586,4.5586,4.5586,4.5586,4.5586,4.5393,4.5086,4.5028,4.4566,4.3929,4.383,4.3522,4.3134,4.2765,4.2607,4.2463,4.1827,4.1326,4.1224,4.0858,4.0621,4.0552,4.0353,4.0108,3.9264,3.828,3.752,3.7418,3.6786,3.6346,3.63,3.5889,3.5503,3.5224,3.5136,3.5016,3.4777,3.4671,3.4504,3.4068,3.4047,3.3818,3.3517,3.3346,3.3366,3.3361,3.3361,3.3361,3.3366,3.3351,3.3332,3.3254,3.2718,3.2269,3.2221,3.2169,3.2072,3.1975,3.1734,3.1318,3.095,3.0852,3.0868,3.0785,3.0788,3.0849,3.0875,3.0796,3.0799,3.0819,3.1075,3.1018,3.1021,3.0886,3.0907,3.0912,3.0993,3.1169,3.1268,3.123,3.1132,3.0879,3.0879,3.0858,3.0856,3.0811,3.0821,3.0807,3.0801,3.0794,3.0802,3.0789,3.076,3.0759,3.0742,3.0704,3.0717,3.0697,3.0668,3.0626,3.0629,3.0595,3.055,3.0472,3.0334,3.0202,3.0042,2.9762,2.9499,2.9513,2.8969,4.562,4.562,4.5603,4.5586,4.5586,4.5586,4.5586,4.5586,4.5586,4.5622,4.564,4.5563,4.5216,4.4809,4.4652,4.4418,4.3801,4.3601,4.3535,4.326,4.2753,4.2207,4.1873,4.1351,4.0939,4.0739,4.0648,4.0575,4.0273,3.9565,3.8806,3.8453,3.7669,3.7312,3.7121,3.6833,3.6473,3.6103,3.5826,3.5721,3.5684,3.5768,3.5455,3.5139,3.4876,3.4651,3.4172,3.4113,3.4133,3.4152,3.4207,3.4285,3.4246,3.4312,3.4296,3.4277,3.4062,3.402,3.3784,3.3551,3.3412,3.3145,3.2897,3.2196,3.1742,3.1445,3.1471,3.1672,3.1652,3.1597,3.1482,3.1543,3.168,3.1738,3.1682,3.1567,3.1513,3.1633,3.1792,3.199,3.2031,3.1855,3.1894,3.1737,3.1443,3.1013,3.0874,3.0909,3.094,3.0986,3.0876,3.0895,3.0808,3.0804,3.0755,3.0759,3.0728,3.071,3.0691,3.0678,3.0664,3.0676,3.0653,3.0637,3.0621,3.0567,3.054,3.05,3.0488,3.0325,3.0196,3.019,3.0103,3.0113,2.9924,4.568,4.5684,4.5637,4.5603,4.5603,4.5586,4.5603,4.5603,4.5603,4.564,4.5673,4.5668,4.5626,4.5545,4.5468,4.5445,4.5391,4.4716,4.4525,4.42,4.3672,4.3041,4.264,4.2187,4.1637,4.1094,4.1039,4.0962,4.0807,4.0634,4.0023,3.9489,3.8636,3.8326,3.8132,3.7927,3.7514,3.7051,3.6573,3.6197,3.6156,3.6153,3.6051,3.5962,3.5908,3.5869,3.5791,3.558,3.5486,3.5467,3.5431,3.5428,3.5337,3.5383,3.5366,3.5369,3.5391,3.5352,3.5191,3.4394,3.3587,3.3427,3.3333,3.3197,3.2798,3.3035,3.3135,3.2926,3.2712,3.2868,3.2988,3.3163,3.2792,3.2697,3.2543,3.2567,3.2609,3.2751,3.2928,3.3144,3.3027,3.2691,3.2609,3.2489,3.2215,3.1786,3.158,3.161,3.1437,3.1402,3.1135,3.1003,3.089,3.0806,3.0722,3.071,3.0685,3.0678,3.0664,3.0642,3.0626,3.0629,3.0637,3.0621,3.0604,3.0568,3.0511,3.049,3.0447,3.041,3.0337,3.0253,3.0171,3.0083,2.9991,4.568,4.568,4.5668,4.5671,4.5651,4.5651,4.5671,4.5671,4.5651,4.5687,4.5703,4.5735,4.5765,4.5781,4.5824,4.5838,4.58,4.5557,4.5376,4.5118,4.4601,4.4098,4.3695,4.3233,4.2721,4.2334,4.1985,4.1694,4.1742,4.1304,4.0885,4.0263,3.9585,3.9285,3.9099,3.8762,3.8332,3.8085,3.7687,3.7483,3.7498,3.7457,3.7289,3.6824,3.6797,3.6467,3.6077,3.5999,3.5999,3.6057,3.6077,3.6094,3.6055,3.604,3.6062,3.6025,3.6007,3.6009,3.6007,3.5294,3.482,3.4239,3.4176,3.4017,3.3668,3.3473,3.3414,3.3356,3.3495,3.3634,3.3437,3.3378,3.328,3.3361,3.3463,3.3566,3.3629,3.3749,3.375,3.3846,3.3569,3.3209,3.3222,3.3272,3.2943,3.2611,3.244,3.2264,3.2104,3.1991,3.1799,3.1605,3.1514,3.1202,3.1098,3.0909,3.07,3.0711,3.0723,3.0687,3.069,3.0602,3.0621,3.0604,3.0597,3.055,3.052,3.0479,3.0417,3.0348,3.0305,3.0259,3.0157,3.0038,2.9975,4.5757,4.5757,4.5757,4.5727,4.5715,4.568,4.568,4.57,4.5735,4.5746,4.5761,4.5824,4.5838,4.5833,4.586,4.5919,4.5912,4.5866,4.591,4.5708,4.539,4.5138,4.4819,4.4335,4.3744,4.3598,4.308,4.2649,4.2638,4.1797,4.1493,4.1149,4.0578,4.022,3.9921,3.9358,3.8901,3.8878,3.8619,3.8545,3.8436,3.8414,3.8305,3.7739,3.7706,3.7493,3.7102,3.7024,3.6829,3.679,3.6692,3.6498,3.6303,3.6168,3.6226,3.613,3.6032,3.6032,3.6016,3.5929,3.571,3.5185,3.5087,3.4771,3.4361,3.4166,3.442,3.4361,3.4283,3.4144,3.4125,3.4381,3.4461,3.4619,3.4583,3.4625,3.4588,3.4648,3.4549,3.4487,3.4303,3.4351,3.4347,3.4393,3.375,3.336,3.2932,3.2814,3.2785,3.2707,3.2674,3.2497,3.2357,3.1972,3.156,3.1676,3.1715,3.1261,3.1194,3.0875,3.0789,3.074,3.0643,3.0606,3.0578,3.0559,3.053,3.0469,3.0394,3.0316,3.026,3.0204,3.0098,2.9991,2.9943,4.5886,4.5905,4.5905,4.5827,4.5712,4.5715,4.5715,4.5731,4.5761,4.5805,4.588,4.588,4.5905,4.5886,4.5917,4.5941,4.5983,4.6003,4.6025,4.5969,4.5891,4.5949,4.5695,4.5179,4.4692,4.4303,4.3861,4.3564,4.3564,4.2695,4.2356,4.2056,4.1515,4.0989,4.0959,4.0209,3.9809,3.9676,3.9071,3.8902,3.8866,3.8934,3.886,3.8627,3.8589,3.8415,3.8083,3.8024,3.779,3.7438,3.7848,3.7536,3.6755,3.7069,3.6952,3.6385,3.6289,3.6191,3.6074,3.6035,3.5914,3.5816,3.5678,3.5619,3.5776,3.5795,3.5599,3.5304,3.554,3.5677,3.5815,3.5795,3.5659,3.5562,3.5485,3.5428,3.5351,3.5331,3.5209,3.5125,3.5545,3.5864,3.5788,3.5541,3.4742,3.4107,3.3531,3.3375,3.3541,3.3623,3.3677,3.3331,3.3158,3.2792,3.2502,3.2745,3.2706,3.2154,3.1787,3.1584,3.1245,3.1081,3.0917,3.0714,3.0559,3.052,3.0479,3.0466,3.0359,3.0267,3.0166,3.0083,3.0022,2.9959,2.991,4.5898,4.5898,4.5898,4.5861,4.5841,4.5841,4.5841,4.5841,4.5854,4.5867,4.5905,4.5953,4.5975,4.5986,4.6007,4.6047,4.6056,4.6076,4.6104,4.6102,4.6111,4.6119,4.5998,4.5857,4.5631,4.5404,4.4929,4.4468,4.4454,4.3607,4.329,4.3025,4.2354,4.1654,4.1199,4.075,4.0675,4.0625,4.0398,4.0264,4.0205,4.0151,3.9939,3.949,3.9452,3.9238,3.8828,3.8848,3.8555,3.8144,3.8574,3.8457,3.7988,3.834,3.7969,3.7695,3.7676,3.7422,3.6894,3.6464,3.6034,3.6074,3.6034,3.6033,3.6013,3.6011,3.6011,3.6011,3.6011,3.6011,3.5971,3.5951,3.5875,3.5877,3.5839,3.584,3.5819,3.5836,3.579,3.5742,3.5985,3.5942,3.5903,3.5859,3.5262,3.5072,3.4598,3.4641,3.4811,3.4844,3.4865,3.4284,3.3945,3.3577,3.3432,3.3616,3.3461,3.2909,3.2696,3.2609,3.2203,3.1661,3.1526,3.1487,3.0955,3.049,3.0574,3.0587,3.0356,3.0207,3.0142,3.0102,3.0038,2.9975,2.9912,4.5975,4.5975,4.5983,4.5964,4.5964,4.591,4.5898,4.5922,4.5922,4.5933,4.5966,4.6017,4.6027,4.6037,4.6075,4.613,4.6138,4.6138,4.6142,4.6137,4.6144,4.617,4.6196,4.6209,4.6072,4.6025,4.5763,4.5382,4.5343,4.4551,4.3997,4.3537,4.3134,4.2412,4.1782,4.1333,4.1041,4.0988,4.0873,4.0913,4.0934,4.0935,4.0819,4.0488,4.0293,4.0117,3.9687,3.9434,3.9316,3.9082,3.9219,3.9394,3.9375,3.9219,3.8867,3.873,3.8535,3.8242,3.7695,3.7402,3.7148,3.709,3.6465,3.6054,3.6015,3.6014,3.6014,3.6014,3.6014,3.6015,3.6015,3.6015,3.6015,3.6016,3.6074,3.6073,3.6089,3.6083,3.6094,3.6082,3.5986,3.5933,3.5879,3.5838,3.5624,3.5666,3.5696,3.5756,3.5766,3.567,3.5573,3.5088,3.4768,3.4564,3.438,3.4399,3.4137,3.3654,3.3557,3.3538,3.2966,3.2406,3.2328,3.2232,3.1911,3.1521,3.0964,3.0732,3.0484,3.027,3.0142,3.0083,3.0068,2.9975,2.9895,4.6113,4.6113,4.6114,4.6114,4.6095,4.5956,4.5933,4.6007,4.6007,4.6027,4.6113,4.6084,4.6093,4.6093,4.6122,4.6146,4.6176,4.6176,4.6183,4.6201,4.6206,4.6231,4.6211,4.6197,4.6221,4.6225,4.6117,4.5971,4.6128,4.5453,4.4659,4.4017,4.3823,4.3199,4.2496,4.1969,4.1479,4.1266,4.113,4.1131,4.1131,4.1152,4.1094,4.0957,4.0918,4.0918,4.0762,4.0762,4.084,4.0859,4.0996,4.0391,4.0,3.9805,3.9336,3.9004,3.8867,3.8691,3.8613,3.8437,3.8262,3.7949,3.707,3.6426,3.6113,3.6152,3.6016,3.6015,3.6015,3.6014,3.6012,3.6012,3.6012,3.607,3.6168,3.6184,3.62,3.6191,3.6196,3.6142,3.5977,3.5905,3.5845,3.5791,3.5853,3.5757,3.5728,3.5728,3.5718,3.5718,3.5658,3.5629,3.5444,3.556,3.5394,3.5085,3.493,3.4485,3.4408,3.4311,3.3731,3.3276,3.3189,3.3102,3.2982,3.259,3.1884,3.1168,3.0567,3.0409,3.0357,3.0068,3.0003,2.9978,2.9895,4.6113,4.6113,4.6104,4.6113,4.6113,4.6066,4.6047,4.6075,4.6075,4.6084,4.6113,4.6149,4.6166,4.6162,4.6176,4.6177,4.6189,4.6201,4.6236,4.6245,4.6253,4.6261,4.6267,4.6251,4.627,4.6273,4.6276,4.6297,4.6258,4.5894,4.5427,4.4782,4.4647,4.4082,4.3516,4.3066,4.2266,4.1601,4.1406,4.1406,4.1328,4.1348,4.1328,4.1308,4.123,4.123,4.1191,4.1191,4.1191,4.1191,4.1191,4.0859,4.084,4.0781,4.0566,4.0449,4.0,3.9512,3.9414,3.8964,3.871,3.8787,3.8103,3.7577,3.703,3.6562,3.6268,3.6344,3.6382,3.6479,3.6497,3.6458,3.6456,3.6495,3.6667,3.6877,3.6891,3.6879,3.6859,3.6776,3.6586,3.6202,3.6098,3.5939,3.596,3.5805,3.5707,3.5716,3.5706,3.5706,3.5706,3.5715,3.5704,3.5704,3.5704,3.5452,3.5452,3.5375,3.5201,3.5065,3.4814,3.4447,3.4156,3.3865,3.3608,3.3191,3.2654,3.1949,3.1205,3.0815,3.0685,3.0281,2.9956,2.9964,2.9897,4.6146,4.6138,4.613,4.613,4.6149,4.6138,4.6119,4.6119,4.6149,4.613,4.6146,4.6162,4.6196,4.6209,4.6203,4.6206,4.6221,4.6245,4.6253,4.6267,4.629,4.6295,4.63,4.6301,4.63,4.6301,4.6303,4.6303,4.6305,4.6268,4.5897,4.5585,4.5527,4.498,4.4453,4.4062,4.3457,4.2715,4.2266,4.2168,4.2051,4.1836,4.1699,4.1621,4.1484,4.1308,4.1269,4.1289,4.125,4.1211,4.1191,4.1191,4.1191,4.1172,4.1172,4.0996,4.0703,4.0391,4.0292,3.9979,3.9684,3.9469,3.9253,3.8843,3.8316,3.7808,3.7455,3.7278,3.7161,3.71,3.7061,3.704,3.7038,3.7055,3.7399,3.7741,3.7749,3.7737,3.7668,3.7618,3.7292,3.6825,3.655,3.6338,3.6057,3.5834,3.5697,3.5695,3.5715,3.5715,3.5715,3.5704,3.5704,3.5704,3.5704,3.5704,3.5646,3.5607,3.5568,3.5491,3.5568,3.5414,3.4939,3.4511,3.4118,3.3737,3.3403,3.2659,3.199,3.1637,3.126,3.0839,3.0433,3.008,2.9975,4.6203,4.6196,4.6201,4.6193,4.6193,4.6189,4.6203,4.6203,4.6189,4.6201,4.6203,4.6196,4.6209,4.6234,4.6226,4.6245,4.6257,4.628,4.629,4.6301,4.6301,4.6303,4.6303,4.6303,4.6305,4.6305,4.6306,4.6287,4.6288,4.6269,4.6269,4.6289,4.6211,4.5762,4.5215,4.5117,4.4648,4.416,4.3848,4.375,4.332,4.293,4.248,4.2383,4.1992,4.1562,4.1523,4.1465,4.1367,4.1348,4.1328,4.1387,4.1211,4.1191,4.1191,4.1152,4.0996,4.0955,4.0896,4.0737,4.0834,4.0637,4.0422,4.001,3.95,3.8604,3.8096,3.7997,3.7897,3.7856,3.7834,3.7831,3.7828,3.7956,3.8237,3.8521,3.8624,3.8544,3.839,3.8257,3.7894,3.7491,3.7259,3.7064,3.6714,3.6181,3.5919,3.5955,3.5723,3.5723,3.5704,3.5704,3.5704,3.5704,3.5704,3.5704,3.5704,3.5704,3.5704,3.5704,3.5646,3.5654,3.5662,3.5183,3.4692,3.452,3.4147,3.344,3.2891,3.2611,3.2175,3.1564,3.1044,3.0652,3.0092,4.6196,4.6196,4.6196,4.6203,4.6209,4.6196,4.6209,4.6195,4.6215,4.6209,4.6203,4.6195,4.6231,4.6255,4.6269,4.628,4.629,4.6295,4.6301,4.6305,4.6306,4.6307,4.6289,4.6289,4.6289,4.6289,4.6289,4.6289,4.6289,4.6289,4.6289,4.6289,4.6289,4.6074,4.5898,4.5859,4.5644,4.5332,4.5312,4.4766,4.3984,4.3691,4.3379,4.334,4.3047,4.291,4.291,4.2988,4.2637,4.2305,4.2168,4.1816,4.125,4.1191,4.1132,4.1112,4.1149,4.1108,4.1107,4.1105,4.1101,4.1099,4.0884,4.086,4.0352,3.9264,3.8698,3.8693,3.871,3.8704,3.8681,3.8678,3.869,3.8911,3.9092,3.9296,3.9499,3.9305,3.9132,3.8846,3.852,3.8268,3.8063,3.7741,3.7381,3.7061,3.6759,3.6516,3.5955,3.5762,3.5704,3.5704,3.5704,3.5704,3.5704,3.5704,3.5704,3.5704,3.5684,3.5704,3.5704,3.5651,3.5608,3.5534,3.5271,3.502,3.471,3.4304,3.3849,3.3547,3.2975,3.2324,3.2031,3.1675,3.0791,4.6195,4.6215,4.6203,4.6209,4.6215,4.6215,4.6201,4.6206,4.6221,4.624,4.6255,4.624,4.6249,4.6296,4.6306,4.6295,4.63,4.6303,4.6306,4.6288,4.6289,4.6289,4.6289,4.6289,4.6289,4.6289,4.6289,4.6289,4.6289,4.6289,4.6289,4.6289,4.6289,4.6289,4.6289,4.6289,4.6289,4.625,4.6289,4.5703,4.4668,4.4512,4.4316,4.4258,4.3984,4.3867,4.3711,4.3691,4.3437,4.3105,4.3008,4.2871,4.2383,4.2031,4.1775,4.1598,4.1419,4.1103,4.114,4.1119,4.1114,4.1111,4.1108,4.0987,4.0984,4.005,4.0011,4.0005,4.0001,3.9997,3.9993,3.9989,3.996,4.0062,4.0117,4.0241,4.0283,4.0196,4.0072,3.9908,3.9626,3.9381,3.9135,3.8794,3.8346,3.763,3.7367,3.7,3.6439,3.5936,3.5839,3.5742,3.5762,3.5723,3.5704,3.5704,3.5704,3.5704,3.5673,3.5662,3.5639,3.5596,3.554,3.5502,3.5443,3.5345,3.5033,3.4736,3.4661,3.4432,3.3777,3.3082,3.2863,3.2618,3.1807,4.6211,4.6206,4.6206,4.6206,4.6211,4.6211,4.6216,4.6221,4.6277,4.6303,4.6303,4.6284,4.6303,4.629,4.6297,4.6303,4.6306,4.6287,4.6289,4.6289,4.6289,4.6289,4.6289,4.6289,4.6289,4.6289,4.6289,4.6289,4.6289,4.6289,4.6289,4.6289,4.6289,4.6289,4.6289,4.6289,4.6289,4.6289,4.6289,4.6289,4.5918,4.5586,4.5273,4.4883,4.4492,4.4082,4.4043,4.4062,4.4062,4.373,4.3672,4.3476,4.3299,4.2848,4.269,4.2433,4.1843,4.1548,4.137,4.1228,4.1166,4.1104,4.1117,4.1109,4.1105,4.1042,4.0983,4.0959,4.0974,4.0955,4.095,4.092,4.0889,4.0851,4.0882,4.0879,4.0848,4.082,4.0761,4.0671,4.0494,4.0258,4.0033,3.97,3.9178,3.8431,3.7889,3.7425,3.698,3.6535,3.6226,3.6013,3.5858,3.582,3.5723,3.5704,3.5704,3.5673,3.5643,3.5608,3.5584,3.554,3.5515,3.5501,3.546,3.5393,3.535,3.5128,3.5092,3.5009,3.4558,3.3918,3.3715,3.3391,3.2784,4.6245,4.6206,4.6206,4.6236,4.6264,4.6273,4.628,4.6287,4.6295,4.63,4.63,4.6303,4.6303,4.63,4.6305,4.6287,4.6288,4.6289,4.6289,4.6289,4.6289,4.6289,4.6289,4.6289,4.6289,4.6289,4.6289,4.6289,4.6289,4.6289,4.6289,4.6289,4.6289,4.6289,4.6289,4.6289,4.6289,4.6289,4.6289,4.6289,4.6289,4.6094,4.6113,4.5957,4.5918,4.582,4.5801,4.582,4.5371,4.4785,4.4218,4.4003,4.3844,4.3704,4.3505,4.3247,4.2636,4.2262,4.2064,4.1745,4.1644,4.1289,4.128,4.1189,4.1145,4.1031,4.1006,4.1,4.0994,4.1006,4.098,4.0968,4.0948,4.0898,4.0913,4.0849,4.0819,4.0798,4.0787,4.0765,4.0703,4.0614,4.0551,4.028,4.0068,3.9417,3.8992,3.8528,3.7909,3.7309,3.669,3.6458,3.6207,3.5839,3.5704,3.5693,3.5673,3.5643,3.5601,3.5565,3.554,3.5509,3.5489,3.5474,3.5446,3.5379,3.5354,3.5308,3.5209,3.5088,3.5089,3.4792,3.4528,3.4182,3.3592]}]]